[[{"header":{"parameterUnit":"m.s-1","parameterCategory":1,"la1":30.6,"la2":28.766,"lo1":-90.7593,"lo2":-88.6598,"dy":0.0162,"dx":0.0183,"nx":116,"ny":114,"refTime":"2024-03-31T06:00:00:Z","depth":0,"parameterNumber":2,"parameterNumberName":"U-component_of_WINDS"},"data":[0.0,0.0,0.0,0.0,0.0,0.0,0.0,0.0,0.0,0.0,0.0,0.0,0.0,0.0,0.0,0.0,0.0,0.0,0.0,0.0,0.0,0.0,0.0,0.0,0.0,0.0,0.0,0.0,0.0,0.0,0.0,0.0,0.0,0.0,0.0,0.0,0.0,0.0,0.0,0.0,0.0,0.0,0.0,0.0,0.0,0.0,0.0,0.0,0.0,0.0,0.0,0.0,0.0,0.0,0.0,0.0,0.0,0.0,0.0,0.0,0.0,0.0,0.0,0.0,0.0,0.0,0.0,0.0,0.0,0.0,0.0,0.0,0.0,0.0,0.0,0.0,0.0,0.0,0.0,0.0,0.0,0.0,0.0,0.0,0.0,0.0,0.0,0.0,0.0,0.0,0.0,0.0,0.0,0.0,0.0,0.0,0.0,0.0,0.0,0.0,0.0,0.0,0.0,0.0,0.0,0.0,0.0,0.0,0.0,0.0,0.0,0.0,0.0,0.0,0.0,0.0,0.0,0.0,0.0,0.0,0.0,0.0,0.0,0.0,0.0,0.0,0.0,0.0,0.0,0.0,0.0,0.0,0.0,0.0,0.0,0.0,0.0,0.0,0.0,0.0,0.0,0.0,0.0,0.0,0.0,0.0,0.0,0.0,0.0,0.0,0.0,0.0,0.0,0.0,0.0,0.0,0.0,0.0,0.0,0.0,0.0,0.0,0.0,0.0,0.0,0.0,0.0,0.0,0.0,0.0,0.0,0.0,0.0,0.0,0.0,0.0,0.0,0.0,0.0,0.0,0.0,0.0,0.0,0.0,0.0,0.0,0.0,0.0,0.0,0.0,0.0,0.0,0.0,0.0,0.0,0.0,0.0,0.0,0.0,0.0,0.0,0.0,0.0,0.0,0.0,0.0,0.0,0.0,0.0,0.0,0.0,0.0,0.0,0.0,0.0,0.0,0.0,0.0,0.0,0.0,0.0,0.0,0.0,0.0,0.0,0.0,0.0,0.0,0.0,0.0,0.0,0.0,0.0,0.0,0.0,0.0,0.0,0.0,0.0,0.0,0.0,0.0,0.0,0.0,0.0,0.0,0.0,0.0,0.0,0.0,0.0,0.0,0.0,0.0,0.0,0.0,0.0,0.0,0.0,0.0,0.0,0.0,0.0,0.0,0.0,0.0,0.0,0.0,0.0,0.0,0.0,0.0,0.0,0.0,0.0,0.0,0.0,0.0,0.0,0.0,0.0,0.0,0.0,0.0,0.0,0.0,0.0,0.0,0.0,0.0,0.0,0.0,0.0,0.0,0.0,0.0,0.0,0.0,0.0,0.0,0.0,0.0,0.0,0.0,0.0,0.0,0.0,0.0,0.0,0.0,0.0,0.0,0.0,0.0,0.0,0.0,0.0,0.0,0.0,0.0,0.0,0.0,0.0,0.0,0.0,0.0,0.0,0.0,0.0,0.0,0.0,0.0,0.0,0.0,0.0,0.0,0.0,0.0,0.0,0.0,0.0,0.0,0.0,0.0,0.0,0.0,0.0,0.0,0.0,0.0,0.0,0.0,0.0,0.0,0.0,0.0,0.0,0.0,0.0,0.0,0.0,0.0,0.0,0.0,0.0,0.0,0.0,0.0,0.0,0.0,0.0,0.0,0.0,0.0,0.0,0.0,0.0,0.0,0.0,0.0,0.0,0.0,0.0,0.0,0.0,0.0,0.0,0.0,0.0,0.0,0.0,0.0,0.0,0.0,0.0,0.0,0.0,0.0,0.0,0.0,0.0,0.0,0.0,0.0,0.0,0.0,0.0,0.0,0.0,0.0,0.0,0.0,0.0,0.0,0.0,0.0,0.0,0.0,0.0,0.0,0.0,0.0,0.0,0.0,0.0,0.0,0.0,0.0,0.0,0.0,0.0,0.0,0.0,0.0,0.0,0.0,0.0,0.0,0.0,0.0,0.0,0.0,0.0,0.0,0.0,0.0,0.0,0.0,0.0,0.0,0.0,0.0,0.0,0.0,0.0,0.0,0.0,0.0,0.0,0.0,0.0,0.0,0.0,0.0,0.0,0.0,0.0,0.0,0.0,0.0,0.0,0.0,0.0,0.0,0.0,0.0,0.0,0.0,0.0,0.0,0.0,0.0,0.0,0.0,0.0,0.0,0.0,0.0,0.0,0.0,0.0,0.0,0.0,0.0,0.0,0.0,0.0,0.0,0.0,0.0,0.0,0.0,0.0,0.0,0.0,0.0,0.0,0.0,0.0,0.0,0.0,0.0,0.0,0.0,0.0,0.0,0.0,0.0,0.0,0.0,0.0,0.0,0.0,0.0,0.0,0.0,0.0,0.0,0.0,0.0,0.0,0.0,0.0,0.0,0.0,0.0,0.0,0.0,0.0,0.0,0.0,0.0,0.0,0.0,0.0,0.0,0.0,0.0,0.0,0.0,0.0,0.0,0.0,0.0,0.0,0.0,0.0,0.0,0.0,0.0,0.0,0.0,0.0,0.0,0.0,0.0,0.0,0.0,0.0,0.0,0.0,0.0,0.0,0.0,0.0,0.0,0.0,0.0,0.0,0.0,0.0,0.0,0.0,0.0,0.0,0.0,0.0,0.0,0.0,0.0,0.0,0.0,0.0,0.0,0.0,0.0,0.0,0.0,0.0,0.0,0.0,0.0,0.0,0.0,0.0,0.0,0.0,0.0,0.0,0.0,0.0,0.0,0.0,0.0,0.0,0.0,0.0,0.0,0.0,0.0,0.0,0.0,0.0,0.0,0.0,0.0,0.0,0.0,0.0,0.0,0.0,0.0,0.0,0.0,0.0,0.0,0.0,0.0,0.0,0.0,0.0,0.0,0.0,0.0,0.0,0.0,0.0,0.0,0.0,0.0,0.0,0.0,0.0,0.0,0.0,0.0,0.0,0.0,0.0,0.0,0.0,0.0,0.0,0.0,0.0,0.0,0.0,0.0,0.0,0.0,0.0,0.0,0.0,0.0,0.0,0.0,0.0,0.0,0.0,0.0,0.0,0.0,0.0,0.0,0.0,0.0,0.0,0.0,0.0,0.0,0.0,0.0,0.0,0.0,0.0,0.0,0.0,0.0,0.0,0.0,0.0,0.0,0.0,0.0,0.0,0.0,0.0,0.0,0.0,0.0,0.0,0.0,0.0,0.0,0.0,0.0,0.0,0.0,0.0,0.0,0.0,0.0,0.0,0.0,0.0,0.0,0.0,0.0,0.0,0.0,0.0,0.0,0.0,0.0,0.0,0.0,0.0,0.0,0.0,0.0,0.0,0.0,0.0,0.0,0.0,0.0,0.0,0.0,0.0,0.0,0.0,0.0,0.0,0.0,0.0,0.0,0.0,0.0,0.0,0.0,0.0,0.0,0.0,0.0,0.0,0.0,0.0,0.0,0.0,0.0,0.0,0.0,0.0,0.0,0.0,0.0,0.0,0.0,0.0,0.0,0.0,0.0,0.0,0.0,0.0,0.0,0.0,0.0,0.0,0.0,0.0,0.0,0.0,0.0,0.0,0.0,0.0,0.0,0.0,0.0,0.0,0.0,0.0,0.0,0.0,0.0,0.0,0.0,0.0,0.0,0.0,0.0,0.0,0.0,0.0,0.0,0.0,0.0,0.0,0.0,0.0,0.0,0.0,0.0,0.0,0.0,0.0,0.0,0.0,0.0,0.0,0.0,0.0,0.0,0.0,0.0,0.0,0.0,0.0,0.0,0.0,0.0,0.0,0.0,0.0,0.0,0.0,0.0,0.0,0.0,0.0,0.0,0.0,0.0,0.0,0.0,0.0,0.0,0.0,0.0,0.0,0.0,0.0,0.0,0.0,0.0,0.0,0.0,0.0,0.0,0.0,0.0,0.0,0.0,0.0,0.0,0.0,0.0,0.0,0.0,0.0,0.0,0.0,0.0,0.0,0.0,0.0,0.0,0.0,0.0,0.0,0.0,0.0,0.0,0.0,0.0,0.0,0.0,0.0,0.0,0.0,0.0,0.0,0.0,0.0,0.0,0.0,0.0,0.0,0.0,0.0,0.0,0.0,0.0,0.0,0.0,0.0,0.0,0.0,0.0,0.0,0.0,0.0,0.0,0.0,0.0,0.0,0.0,0.0,0.0,0.0,0.0,0.0,0.0,0.0,0.0,0.0,0.0,0.0,0.0,0.0,0.0,0.0,0.0,0.0,0.0,0.0,0.0,0.0,0.0,0.0,0.0,0.0,0.0,0.0,0.0,0.0,0.0,0.0,0.0,0.0,0.0,0.0,0.0,0.0,0.0,0.0,0.0,0.0,0.0,0.0,0.0,0.0,0.0,0.0,0.0,0.0,0.0,0.0,0.0,0.0,0.0,0.0,0.0,0.0,0.0,0.0,0.0,0.0,0.0,0.0,0.0,0.0,0.0,0.0,0.0,0.0,0.0,0.0,0.0,0.0,0.0,0.0,0.0,0.0,0.0,0.0,0.0,0.0,0.0,0.0,0.0,0.0,0.0,0.0,0.0,0.0,0.0,0.0,0.0,0.0,0.0,0.0,0.0,0.0,0.0,0.0,0.0,0.0,0.0,0.0,0.0,0.0,0.0,0.0,0.0,0.0,0.0,0.0,0.0,0.0,0.0,0.0,0.0,0.0,0.0,0.0,0.0,0.0,0.0,0.0,0.0,0.0,0.0,0.0,0.0,0.0,0.0,0.0,0.0,0.0,0.0,0.0,0.0,0.0,0.0,0.0,0.0,0.0,0.0,0.0,0.0,0.0,0.0,0.0,0.0,0.0,0.0,0.0,0.0,0.0,0.0,0.0,0.0,0.0,0.0,0.0,0.0,0.0,0.0,0.0,0.0,0.0,0.0,0.0,0.0,0.0,0.0,0.0,0.0,0.0,0.0,0.0,0.0,0.0,0.0,0.0,0.0,0.0,0.0,0.0,0.0,0.0,0.0,0.0,0.0,0.0,0.0,0.0,0.0,0.0,0.0,0.0,0.0,0.0,0.0,0.0,0.0,0.0,0.0,0.0,0.0,0.0,0.0,0.0,0.0,0.0,0.0,0.0,0.0,0.0,0.0,0.0,0.0,0.0,0.0,0.0,0.0,0.0,0.0,0.0,0.0,0.0,0.0,0.0,0.0,0.0,0.0,0.0,0.0,0.0,0.0,0.0,0.0,0.0,0.0,0.0,0.0,0.0,0.0,0.0,0.0,0.0,0.0,0.0,0.0,0.0,0.0,0.0,0.0,0.0,0.0,0.0,0.0,0.0,0.0,0.0,0.0,0.0,0.0,0.0,0.0,0.0,0.0,0.0,0.0,0.0,0.0,0.0,0.0,0.0,0.0,0.0,0.0,0.0,0.0,0.0,0.0,0.0,0.0,0.0,0.0,0.0,0.0,0.0,0.0,0.0,0.0,0.0,0.0,0.0,0.0,0.0,0.0,0.0,0.0,0.0,0.0,0.0,0.0,0.0,0.0,0.0,0.0,0.0,0.0,0.0,0.0,0.0,0.0,0.0,0.0,0.0,0.0,0.0,0.0,0.0,0.0,0.0,0.0,0.0,0.0,0.0,0.0,0.0,0.0,0.0,0.0,0.0,0.0,0.0,0.0,0.0,0.0,0.0,0.0,0.0,0.0,0.0,0.0,0.0,0.0,0.0,0.0,0.0,0.0,0.0,0.0,0.0,0.0,0.0,0.0,0.0,0.0,0.0,0.0,0.0,0.0,0.0,0.0,0.0,0.0,0.0,0.0,0.0,0.0,0.0,0.0,0.0,0.0,0.0,0.0,0.0,0.0,0.0,0.0,0.0,0.0,0.0,0.0,0.0,0.0,0.0,0.0,0.0,0.0,0.0,0.0,0.0,0.0,0.0,0.0,0.0,0.0,0.0,0.0,0.0,0.0,0.0,0.0,0.0,0.0,0.0,0.0,0.0,0.0,0.0,0.0,0.0,0.0,0.0,0.0,0.0,0.0,0.0,0.0,0.0,0.0,0.0,0.0,0.0,0.0,0.0,0.0,0.0,0.0,0.0,0.0,0.0,0.0,0.0,0.0,0.0,0.0,0.0,0.0,0.0,0.0,0.0,0.0,0.0,0.0,0.0,0.0,0.0,0.0,0.0,0.0,0.0,0.0,2.736,0.0,0.0,0.0,0.0,0.0,0.0,0.0,0.0,0.0,0.0,0.0,0.0,0.0,0.0,0.0,0.0,0.0,0.0,0.0,0.0,0.0,0.0,0.0,0.0,1.3929,1.4072,1.4244,1.4445,1.4645,1.4842,0.0,0.0,0.0,0.0,0.0,1.7025,1.6992,1.7292,1.7948,1.8153,1.8681,1.945,1.9263,1.9117,1.8986,0.0,0.0,0.0,0.0,0.0,0.0,0.0,0.0,0.0,0.0,0.0,0.0,0.0,0.0,0.0,0.0,0.0,0.0,0.0,0.0,0.0,0.0,0.0,0.0,0.0,0.0,0.0,0.0,0.0,0.0,0.0,0.0,0.0,0.0,0.0,0.0,0.0,0.0,0.0,0.0,0.0,0.0,0.0,0.0,0.0,0.0,0.0,0.0,0.0,0.0,0.0,0.0,0.0,0.0,0.0,0.0,0.0,0.0,0.0,0.0,0.0,0.0,0.0,0.0,0.0,0.0,0.0,0.0,0.0,0.0,0.0,2.852,0.0,0.0,0.0,0.0,0.0,0.0,0.0,0.0,0.0,0.0,0.0,0.0,0.0,0.0,0.0,0.0,0.0,0.0,0.0,0.0,0.0,1.3476,1.3712,1.3771,1.3896,1.4113,1.4276,1.4494,1.4782,1.5118,1.5608,1.6293,1.6395,1.6759,1.7491,1.7427,1.7812,1.8669,1.9344,2.01,2.0956,2.1086,2.1025,2.0784,2.015,0.0,0.0,0.0,0.0,0.0,0.0,0.0,0.0,0.0,0.0,0.0,0.0,0.0,0.0,0.0,0.0,0.0,0.0,0.0,0.0,0.0,0.0,0.0,0.0,0.0,0.0,0.0,0.0,0.0,0.0,0.0,0.0,0.0,0.0,0.0,0.0,0.0,0.0,0.0,0.0,0.0,0.0,0.0,0.0,0.0,0.0,0.0,0.0,0.0,0.0,0.0,0.0,0.0,0.0,0.0,0.0,0.0,0.0,0.0,0.0,0.0,0.0,0.0,0.0,3.2036,3.2182,3.2182,3.2571,3.3231,3.2638,3.2334,3.2209,0.0,0.0,0.0,0.0,0.0,0.0,0.0,0.0,0.0,0.0,0.0,0.0,0.0,0.0,0.0,0.0,0.0,0.0,0.0,0.0,1.3408,1.345,1.3657,1.3813,1.3854,1.4081,1.4509,1.5185,1.548,1.5993,1.6764,1.6875,1.7237,1.7915,1.7799,1.8522,2.0114,2.1582,2.2301,2.2346,2.2479,2.2522,2.244,2.1376,2.0872,2.0786,0.0,0.0,0.0,0.0,0.0,0.0,0.0,0.0,0.0,0.0,0.0,0.0,0.0,0.0,0.0,0.0,0.0,0.0,0.0,0.0,0.0,0.0,0.0,0.0,0.0,0.0,0.0,0.0,0.0,0.0,0.0,0.0,0.0,0.0,0.0,0.0,0.0,0.0,0.0,0.0,0.0,2.7266,2.6623,0.0,0.0,0.0,0.0,0.0,0.0,0.0,0.0,0.0,0.0,0.0,0.0,0.0,0.0,3.3102,3.3744,3.406,3.4077,3.4715,3.5385,3.6056,3.6056,3.6462,3.7161,3.706,0.0,3.2276,3.209,0.0,0.0,0.0,0.0,0.0,0.0,0.0,0.0,0.0,0.0,0.0,0.0,0.0,0.0,0.0,0.0,0.0,0.0,0.0,0.0,0.0,1.3766,1.4178,1.4549,1.5006,1.545,1.5883,1.6127,1.6496,1.6995,1.6968,1.7441,1.854,1.8728,1.9626,2.1289,2.2226,2.2748,2.2898,2.3434,2.3703,2.369,2.3459,2.2724,2.1671,2.1571,0.0,0.0,0.0,0.0,0.0,0.0,0.0,0.0,0.0,0.0,0.0,0.0,0.0,0.0,0.0,0.0,0.0,0.0,0.0,0.0,0.0,0.0,0.0,0.0,0.0,0.0,0.0,0.0,0.0,0.0,0.0,0.0,0.0,0.0,0.0,0.0,0.0,0.0,0.0,2.8145,2.8813,2.8087,2.8713,2.8899,0.0,0.0,0.0,0.0,0.0,0.0,0.0,0.0,0.0,3.3484,3.3931,3.4726,3.5926,3.6248,3.6417,3.6417,3.6744,3.7077,3.7427,3.7427,3.7601,3.7893,3.7893,3.6975,3.5385,3.4506,3.3768,3.3108,0.0,0.0,0.0,0.0,0.0,3.206,0.0,0.0,0.0,0.0,0.0,0.0,0.0,0.0,0.0,0.0,0.0,0.0,1.3572,1.4194,1.4818,1.5309,1.5917,1.637,1.6588,1.6768,1.7039,1.7466,1.7362,1.7835,1.9033,1.9876,2.1004,2.2432,2.3036,2.3459,2.3687,2.4367,2.4669,2.4697,2.5078,2.4273,2.2606,2.2634,2.2062,0.0,0.0,0.0,0.0,0.0,0.0,0.0,0.0,0.0,0.0,0.0,0.0,0.0,0.0,0.0,0.0,0.0,0.0,0.0,0.0,0.0,0.0,0.0,0.0,0.0,0.0,0.0,0.0,0.0,0.0,0.0,0.0,0.0,0.0,0.0,0.0,0.0,0.0,2.9644,3.0396,2.986,3.0762,3.1009,0.0,0.0,0.0,0.0,0.0,0.0,3.2605,3.3156,3.4043,3.5334,3.5898,3.6828,3.8176,3.8176,3.8278,3.8464,3.8464,3.8565,3.8739,3.8739,3.8853,3.9039,3.9039,3.9039,3.8886,3.698,3.6084,3.5797,3.4709,3.415,3.3987,3.4201,3.4269,3.4387,0.0,0.0,0.0,0.0,0.0,0.0,0.0,0.0,0.0,0.0,0.0,1.4065,1.4065,1.5052,1.5729,1.5764,1.6379,1.6879,1.7139,1.7219,1.7659,1.8497,1.8396,1.86,1.9172,2.1143,2.2628,2.3605,2.4776,2.5298,2.5182,2.5365,2.5444,2.5456,2.56,2.4935,2.3702,2.3455,2.2957,2.2247,0.0,0.0,0.0,0.0,0.0,0.0,0.0,0.0,0.0,0.0,0.0,0.0,0.0,0.0,0.0,0.0,0.0,0.0,0.0,0.0,0.0,0.0,0.0,0.0,0.0,0.0,0.0,0.0,0.0,0.0,0.0,0.0,0.0,0.0,0.0,0.0,0.0,0.0,0.0,3.1941,3.2015,0.0,0.0,0.0,0.0,3.3176,3.3914,3.4973,3.644,3.6558,3.6936,3.7691,3.7758,3.8159,3.8937,3.8937,3.9305,3.9994,3.9994,4.0354,4.1035,4.1035,4.1424,4.208,4.208,4.208,4.186,3.8971,3.7364,3.6733,3.666,3.6163,3.5577,3.6344,3.6626,3.6733,0.0,0.0,0.0,0.0,0.0,1.3198,1.3198,1.3198,1.3198,1.3198,1.3727,1.4233,1.4576,1.5585,1.6554,1.7283,1.7885,1.8446,1.8968,1.8695,1.8697,1.9105,1.8987,1.969,2.1352,2.287,2.3936,2.4546,2.5361,2.5683,2.549,2.6035,2.6267,2.6284,2.6462,2.602,2.5143,2.497,2.4425,2.3646,2.3068,2.2465,0.0,0.0,0.0,0.0,0.0,0.0,0.0,0.0,0.0,0.0,0.0,0.0,0.0,0.0,0.0,0.0,0.0,0.0,0.0,0.0,0.0,0.0,0.0,0.0,0.0,0.0,0.0,0.0,0.0,0.0,0.0,0.0,0.0,0.0,0.0,0.0,0.0,3.1771,3.2673,0.0,0.0,3.3961,3.4605,3.5227,3.6075,3.6946,3.7842,3.8011,3.865,3.9851,3.9986,4.0375,4.1132,4.1132,4.1267,4.1521,4.1999,4.2371,4.2628,4.3149,4.3535,4.3772,4.3772,4.3772,4.3653,4.21,4.073,3.958,3.9106,3.8751,3.8543,3.8826,3.8916,3.8971,0.0,0.0,0.0,0.0,1.3198,1.3198,1.3198,1.3198,1.3269,1.3475,1.4167,1.4843,1.5377,1.6584,1.7641,1.8405,1.9146,1.9623,1.9725,1.9737,1.9711,1.9671,2.008,2.1256,2.3303,2.4139,2.4858,2.5521,2.5907,2.6034,2.5917,2.6413,2.6624,2.6641,2.6773,2.657,2.6105,2.6008,2.5485,2.4667,2.425,2.3715,2.3116,0.0,0.0,0.0,0.0,0.0,0.0,0.0,0.0,0.0,0.0,0.0,0.0,0.0,0.0,0.0,0.0,0.0,0.0,0.0,0.0,0.0,0.0,0.0,0.0,0.0,0.0,0.0,0.0,0.0,0.0,0.0,0.0,0.0,0.0,0.0,3.2694,3.2447,3.3615,3.4551,3.4854,3.573,3.6448,3.6882,3.7949,3.873,3.9091,3.9469,4.0227,4.1431,4.156,4.2081,4.3071,4.3141,4.3289,4.3558,4.4159,4.4437,4.4468,4.508,4.5345,4.5345,4.5345,4.5345,4.5294,4.4773,4.3978,4.2946,4.1428,4.0849,4.0828,4.0828,4.0832,4.0836,0.0,0.0,0.0,1.3207,1.3207,1.3207,1.3207,1.3198,1.3416,1.4018,1.5035,1.5906,1.6473,1.8005,1.9008,1.9058,2.0062,2.0304,1.9357,2.0256,2.0663,2.031,2.1757,2.3285,2.4791,2.4842,2.5398,2.6512,2.6512,2.6524,2.6549,2.6549,2.6549,2.6549,2.6549,2.6549,2.6549,2.6549,2.6093,2.532,2.4978,2.5111,2.5424,0.0,0.0,0.0,0.0,0.0,0.0,0.0,0.0,0.0,0.0,0.0,0.0,0.0,0.0,0.0,0.0,0.0,0.0,0.0,0.0,0.0,0.0,0.0,0.0,0.0,0.0,0.0,0.0,0.0,0.0,0.0,0.0,0.0,3.2165,3.2655,3.3343,3.4127,3.4876,3.5736,3.6724,3.7439,3.7936,3.8134,3.9508,4.0348,4.0351,4.1062,4.1772,4.2451,4.2485,4.316,4.4595,4.4829,4.5302,4.6017,4.6386,4.6569,4.6585,4.68,4.6891,4.6891,4.6891,4.6891,4.6891,4.6874,4.6857,4.6551,4.3589,4.2435,4.2435,4.2435,4.2435,4.2435,0.0,0.0,1.3357,1.3408,1.3382,1.3348,1.3348,1.3267,1.3416,1.4018,1.5035,1.608,1.7047,1.8267,1.9334,2.0163,2.0515,2.0919,2.1409,2.1359,2.1599,2.2268,2.3497,2.4551,2.536,2.5816,2.6369,2.7072,2.7072,2.7273,2.7657,2.7657,2.7657,2.7657,2.7657,2.7657,2.7657,2.7657,2.7314,2.6687,2.5912,2.5676,2.5719,0.0,0.0,0.0,0.0,0.0,0.0,0.0,0.0,0.0,0.0,0.0,0.0,0.0,0.0,0.0,0.0,0.0,0.0,0.0,0.0,0.0,0.0,0.0,0.0,0.0,0.0,0.0,0.0,0.0,0.0,0.0,0.0,3.2622,3.2981,3.3558,3.4152,3.4709,3.5597,3.6438,3.7096,3.8203,3.9037,3.9382,4.0461,4.1222,4.1525,4.2422,4.3245,4.396,4.4279,4.4617,4.5027,4.5568,4.6009,4.6368,4.7539,4.8166,4.833,4.8928,4.9193,4.9193,4.9193,4.9193,4.916,4.8628,4.8079,4.7459,4.6088,4.5551,4.5551,4.5551,4.5551,4.5551,0.0,1.3399,1.3425,1.348,1.3476,1.3442,1.3442,1.3348,1.3646,1.4677,1.5522,1.6549,1.7928,1.8832,1.971,2.0616,2.0905,2.1294,2.192,2.2096,2.2759,2.4089,2.4779,2.5398,2.5967,2.6532,2.7002,2.7298,2.7537,2.7795,2.8109,2.8109,2.8109,2.8109,2.8109,2.8109,2.8109,2.8109,2.7921,2.7575,2.6799,2.6395,2.6181,2.5782,2.5731,2.5886,2.5965,2.6069,2.6102,2.5889,0.0,0.0,0.0,0.0,0.0,0.0,0.0,0.0,0.0,0.0,0.0,0.0,0.0,0.0,0.0,0.0,0.0,0.0,0.0,0.0,0.0,0.0,0.0,0.0,3.276,3.3723,3.4362,3.4632,3.4974,3.5526,3.6344,3.7261,3.82,3.9251,4.0119,4.0687,4.1561,4.2165,4.2426,4.3244,4.4045,4.4795,4.5273,4.5681,4.6002,4.6562,4.6895,4.7016,4.8208,4.8841,4.8978,4.9578,4.9845,0.0,4.9845,4.9845,4.9812,4.94,4.8972,0.0,0.0,0.0,0.0,0.0,4.6727,4.68,0.0,1.3408,1.3442,1.3527,1.3514,1.3505,1.3505,1.3501,1.4047,1.56,1.6275,1.7202,1.882,1.9484,2.0075,2.0729,2.1218,2.1583,2.1771,2.2784,2.4051,2.5552,2.5678,2.5979,2.6575,2.7047,2.7361,2.7487,2.7959,2.8235,2.8298,2.8298,2.8298,2.8298,2.8298,2.8298,2.8298,2.8298,2.826,2.816,2.767,2.7198,2.6764,2.6344,2.6233,2.6264,2.6049,2.6183,2.6491,2.6567,0.0,0.0,0.0,0.0,0.0,0.0,0.0,0.0,0.0,0.0,0.0,0.0,0.0,0.0,0.0,0.0,0.0,0.0,0.0,0.0,0.0,0.0,0.0,0.0,3.3834,3.5226,3.5968,3.5932,3.6044,3.658,3.7255,3.8241,3.9668,4.0459,4.116,4.1852,4.2683,4.3135,4.3102,0.0,0.0,0.0,0.0,4.6373,4.7025,4.746,4.7703,4.7741,4.852,4.8919,4.8955,4.9298,4.9476,4.9476,4.9476,4.9476,4.9476,4.9476,4.9445,4.9291,4.7919,4.7033,4.6514,4.6852,4.7111,0.0,0.0,1.3484,1.3543,1.3708,1.3653,1.3581,1.3581,1.3851,1.447,1.5651,1.6626,1.7677,1.887,1.9484,2.0213,2.1256,2.1444,2.2058,2.3427,2.4519,2.5259,2.5603,2.6067,2.6587,2.7123,2.7248,2.772,2.8593,2.8693,2.8982,2.9465,2.9465,2.9465,2.9465,2.9465,2.9465,2.9465,2.9465,2.9202,2.8743,2.8631,2.8112,2.736,2.6794,2.6943,2.7468,2.7527,2.7808,2.8102,2.7854,2.7843,2.7886,2.7526,0.0,0.0,0.0,0.0,0.0,0.0,0.0,0.0,0.0,0.0,0.0,0.0,0.0,0.0,0.0,0.0,0.0,0.0,0.0,0.0,3.3832,3.4792,3.5795,3.695,3.7992,3.8529,3.8277,3.8929,3.9694,4.0443,4.1361,4.1912,4.1891,4.3166,4.3907,4.3724,4.5035,0.0,4.597,4.6252,4.6474,4.6612,4.7271,4.769,4.7884,0.0,0.0,4.9146,4.9225,4.9265,4.9265,4.9265,4.9265,4.9265,4.9265,4.9129,4.8964,4.9182,4.929,4.936,4.9741,5.0019,5.0196,0.0,1.3476,1.3501,1.367,1.3644,1.3615,1.3686,1.4011,1.4652,1.5756,1.6519,1.7375,1.8481,1.8832,1.9447,2.0552,2.1655,2.2771,2.3929,2.4996,2.5724,2.603,2.6336,2.6751,2.7286,2.7557,2.8097,2.8888,2.9195,2.9503,2.9792,2.9792,2.9792,2.9792,2.9792,2.9792,2.9792,2.9792,2.9628,2.9321,2.9032,2.8636,2.8149,2.7321,2.7092,2.7259,2.7443,2.7921,2.8451,2.8456,2.8852,2.9315,2.9161,2.9082,2.8994,0.0,0.0,0.0,0.0,0.0,0.0,0.0,0.0,0.0,0.0,0.0,0.0,0.0,0.0,3.1211,0.0,0.0,3.3949,3.5281,3.6596,3.7671,3.8315,3.9559,4.0059,3.916,4.0001,4.0895,4.1498,4.2292,4.2844,4.3083,4.4126,4.472,4.4604,4.565,4.625,4.625,4.6656,4.69,4.69,4.738,4.7636,4.7761,4.8331,4.8651,4.8754,4.8857,4.8898,4.8898,4.8898,4.8898,4.8898,4.8898,4.8803,4.8758,4.9318,4.9578,4.9707,5.0087,5.0442,5.0743,0.0,1.351,1.3518,1.3644,1.364,1.3678,1.3804,1.4184,1.4836,1.5875,1.6389,1.7063,1.8091,1.8204,1.8631,1.971,2.1931,2.3487,2.3966,2.5109,2.5992,2.6474,2.6499,2.6751,2.7286,2.7821,2.8355,2.8888,2.9503,2.9792,2.9792,2.9792,2.9792,2.9792,2.9792,2.9792,2.9792,2.9792,2.9792,2.9754,2.927,2.8988,2.8787,2.7821,2.7216,2.6878,2.6939,2.7493,2.8254,2.8627,2.9498,3.0492,3.0717,3.0733,3.054,2.9939,2.9773,0.0,0.0,0.0,0.0,0.0,0.0,0.0,0.0,0.0,3.0896,3.0896,3.163,3.2602,3.3694,3.4533,3.5506,3.6853,3.8392,3.9496,3.975,4.0834,4.1254,4.0274,4.1115,4.2032,4.269,4.3329,4.3908,4.4446,4.5125,4.5484,4.5484,4.6121,4.6495,4.6495,4.7025,4.7309,4.7309,4.7467,4.7553,4.7553,4.7922,4.8112,4.8112,4.8265,4.8349,4.8349,4.8349,4.8349,4.8349,4.8349,4.837,4.8453,4.8888,4.9072,4.9151,4.9818,5.0309,5.0722,0.0,1.3763,1.3788,1.3841,1.3816,1.3804,1.3888,1.4577,1.5319,1.5926,1.6764,1.7525,1.8129,1.8204,1.8631,1.971,2.2322,2.3929,2.4004,2.5519,2.6424,2.6499,2.6499,2.6751,2.7286,2.7821,2.8355,2.8888,2.9503,2.9792,2.9792,2.9792,2.9792,2.9792,2.9792,2.9792,2.9792,2.9792,2.9792,2.9779,2.9729,2.939,2.8825,2.8247,2.7808,2.7424,2.6921,2.7222,2.7924,2.8384,2.9139,3.0007,3.0598,3.0984,3.1098,3.0555,0.0,3.0387,3.0313,3.0342,3.0402,3.0402,3.0402,3.0402,0.0,0.0,3.2273,3.2273,3.3753,3.5099,3.525,3.6267,3.7524,3.8853,3.9257,3.9828,4.1014,4.1826,4.2421,4.2831,4.301,4.3354,4.4012,4.4691,4.511,4.5185,4.5813,4.6196,4.6196,4.6809,4.7189,4.7189,4.7264,4.7309,4.7309,4.7331,4.7331,4.7316,4.7396,4.7402,4.7402,4.7445,4.7445,4.7445,4.7445,4.7445,4.7445,4.7445,4.7553,4.773,4.8028,4.8361,4.8848,5.0387,5.121,5.1665,0.0,0.0,1.4113,1.4179,1.3965,1.3821,1.3896,1.4642,1.5277,1.5511,1.6321,1.6961,1.7188,1.7526,1.8041,1.8807,2.1117,2.2811,2.3436,2.5046,2.6118,2.6474,2.6499,2.6751,2.7286,2.7525,2.8059,2.8888,2.9145,2.9465,2.9792,2.9792,2.9792,2.9792,2.9792,2.9792,2.9792,2.9792,2.9792,2.9792,2.9792,2.9453,2.8838,2.8292,2.7824,2.7304,2.6396,2.6453,0.0,0.0,2.8363,2.9341,3.0362,3.0705,3.0682,3.054,3.0507,0.0,3.0987,3.1375,0.0,0.0,3.1958,3.2243,3.2243,3.329,3.4262,3.4262,3.5488,3.6714,3.712,3.7943,3.8868,0.0,4.0636,4.1343,4.1897,4.287,4.3599,4.3848,4.4581,4.4999,4.49,4.5499,4.5867,4.5867,4.6495,4.6869,4.6869,4.716,4.7309,4.7309,4.7309,4.7309,4.7309,4.7309,4.7309,4.7309,4.7309,4.7309,4.7309,4.7309,4.7309,4.7309,4.7309,4.7309,4.7309,4.7309,4.7337,4.7445,4.7681,4.788,4.8202,4.9686,5.049,5.0932,0.0,0.0,0.0,1.4509,1.4195,1.3932,1.3932,1.4647,1.52,1.52,1.5957,1.65,1.65,1.7036,1.7613,1.8154,2.0088,2.1732,2.2807,2.444,2.5636,2.6235,2.6411,2.6688,2.706,2.7223,2.767,2.8455,2.8769,2.912,2.9566,2.9716,2.9792,2.9792,2.9792,2.9792,2.9792,2.9792,2.9792,2.9798,2.9616,2.9283,2.8831,2.8147,2.7562,2.6947,2.5967,2.5909,0.0,0.0,2.7545,2.8509,2.9708,3.003,3.0076,3.0616,3.1046,3.139,3.169,0.0,0.0,3.2781,3.3275,3.3829,3.4008,3.4951,3.5818,3.5998,3.6894,3.7883,3.8556,3.9212,0.0,4.0801,4.1782,4.253,4.287,4.3718,4.4431,4.4805,4.5717,4.6181,4.5888,4.6292,4.657,4.657,4.704,4.7309,4.7309,4.7309,4.7309,4.7309,4.7309,4.7309,4.7309,4.7309,4.7309,4.7309,4.7309,4.7309,4.7309,4.7309,4.7309,4.7309,4.7309,4.7309,4.7309,4.7309,4.7309,4.7294,4.7467,4.7531,4.7624,4.8682,4.9425,5.0045,0.0,0.0,0.0,0.0,1.4517,1.4222,1.4024,1.4679,1.52,1.52,1.5957,1.65,1.65,1.7036,1.7613,1.8154,1.9748,2.1168,2.2245,2.3888,2.5055,2.5598,2.6197,2.6499,2.6512,2.7022,2.7324,2.7349,2.838,2.8919,2.8944,2.9528,2.9792,2.9792,2.9792,2.9792,2.9792,2.9792,2.9792,2.9741,2.9157,2.8932,2.8775,2.772,2.7002,2.6436,2.5829,0.0,0.0,2.6287,2.6737,2.7412,2.844,2.892,0.0,3.1006,3.2392,3.326,0.0,0.0,3.3469,3.3469,3.3979,3.4637,3.5295,3.5968,3.6643,3.7225,3.7883,3.8571,3.9242,3.9933,4.0786,4.2126,4.2366,4.2825,4.4077,4.4267,4.4775,4.6091,4.6285,4.6555,0.0,4.7264,4.7279,4.7279,4.7294,4.7309,4.7309,4.7309,4.7309,4.7309,4.7309,4.7309,4.7309,4.7309,4.7309,4.7309,4.7309,4.7309,4.7309,4.7309,4.7309,4.7309,4.7309,4.7309,4.7309,4.7309,4.7309,4.7309,4.7309,4.7309,4.7352,4.7574,4.8318,4.9394,0.0,0.0,0.0,0.0,0.0,1.4262,1.3977,1.4647,1.5172,1.5079,1.5903,0.0,0.0,0.0,0.0,0.0,1.9045,2.02,2.1669,2.296,2.4086,2.503,2.5598,2.6097,2.6487,2.6675,2.6952,2.7298,2.7657,2.8021,2.8367,2.8586,2.8674,2.8674,2.8674,2.8674,2.8674,2.8674,2.8674,2.8649,2.8442,2.816,2.7758,2.7035,2.6492,2.5987,0.0,0.0,2.5236,2.5637,2.6291,2.7144,2.8324,2.8961,2.9529,3.105,3.2123,3.2871,3.3095,0.0,3.4278,3.4711,3.5325,3.5985,3.6626,3.7285,3.7826,3.8018,3.8601,3.9122,3.9361,4.0307,4.1209,4.1658,4.2825,4.3808,4.4237,4.5059,4.5792,4.6256,4.6689,0.0,0.0,0.0,0.0,4.7309,4.7309,4.7309,4.7309,4.7309,4.7309,4.7309,4.7309,4.7309,4.7309,4.7309,4.7309,4.7309,4.7309,4.7309,4.7309,4.7309,4.7309,4.7309,4.7309,4.7309,4.7309,4.7309,4.7309,4.7309,4.7309,4.7309,4.7331,4.7531,4.7822,4.825,0.0,0.0,0.0,0.0,0.0,0.0,0.0,0.0,0.0,0.0,0.0,0.0,0.0,0.0,0.0,0.0,0.0,1.9334,2.0804,2.1918,2.2947,2.3876,2.4632,2.5213,2.5607,2.5791,2.6067,2.6402,2.6809,2.7185,2.755,2.7921,2.8109,2.8109,2.8109,2.8109,2.8109,2.8109,2.7996,2.7795,2.7613,2.7198,2.6633,2.6105,2.5639,0.0,0.0,0.0,2.4683,2.5109,2.5957,2.7046,2.8308,2.9661,3.0903,3.1362,3.2467,3.3664,3.4098,3.4712,3.5371,3.6028,3.6507,3.6985,3.7614,3.8078,3.8544,3.9023,3.9275,3.9556,4.0038,4.0816,4.1553,4.1998,4.3329,4.4461,4.494,4.5762,4.639,4.6629,4.7055,0.0,0.0,0.0,0.0,4.7309,4.7309,4.7309,4.7309,4.7309,4.7309,4.7309,4.7309,4.7309,4.7309,4.7534,4.7773,4.7997,4.7997,4.7997,4.7997,4.7997,4.7997,4.7997,4.7997,4.7878,4.7653,4.7653,4.7519,4.7309,4.7309,4.7309,4.7331,4.7445,4.7488,4.7596,0.0,0.0,0.0,0.0,0.0,0.0,0.0,0.0,0.0,0.0,0.0,0.0,0.0,0.0,0.0,0.0,0.0,0.0,1.9698,2.0841,2.1694,2.2232,2.3326,2.3941,2.4004,2.449,2.4763,2.4804,2.5879,2.6411,2.6436,2.7444,2.7934,2.7934,2.7934,2.7934,2.7934,2.7934,2.7632,2.7135,2.6625,2.6067,2.5515,2.4971,0.0,0.0,0.0,0.0,0.0,2.4764,2.5783,2.723,2.8451,3.0955,3.3215,3.2004,3.3484,3.5519,3.5549,3.6028,3.6686,3.73,3.7464,3.7629,3.8287,3.8484,3.8856,4.0142,3.9885,3.9825,0.0,0.0,4.1762,4.301,4.3818,4.476,4.6076,4.6315,4.6585,0.0,0.0,0.0,0.0,0.0,0.0,4.7309,0.0,4.7309,4.7309,4.7309,4.7309,4.7309,4.7339,4.7354,4.7354,4.8034,4.8678,4.9292,4.9292,4.9292,4.9292,4.9292,4.9292,4.9292,4.9292,4.8932,4.8364,4.8364,4.7974,4.7354,4.7354,4.7339,4.7309,4.7309,4.7309,4.7381,0.0,0.0,0.0,0.0,0.0,0.0,0.0,0.0,0.0,0.0,0.0,0.0,0.0,0.0,0.0,0.0,0.0,0.0,1.9158,2.0276,2.1144,2.1681,2.2372,2.3138,2.3979,2.4142,2.439,2.4804,2.5093,2.5234,2.5247,2.5507,2.5645,2.5645,2.5645,2.5645,2.5645,2.5645,2.5557,2.5435,0.0,2.5195,2.5091,0.0,0.0,0.0,0.0,0.0,0.0,0.0,0.0,0.0,0.0,3.1692,3.2871,3.3529,3.4577,3.5609,3.6103,3.6701,3.733,3.7973,3.8138,3.8317,3.8987,3.9529,3.9993,4.0337,4.0262,4.0247,0.0,0.0,0.0,4.1743,4.3254,0.0,4.5439,4.6426,0.0,0.0,0.0,4.7309,4.7309,4.7309,0.0,0.0,4.7309,4.7309,4.7309,4.7309,4.7309,4.7309,4.7773,4.8042,4.8042,4.8708,4.9127,4.9292,4.9292,4.9292,4.9292,4.9292,4.9292,4.9292,4.9292,4.9187,4.9037,4.9037,4.8648,4.8042,4.8042,4.7743,4.7309,4.7309,4.7309,4.7331,0.0,0.0,0.0,0.0,0.0,0.0,0.0,0.0,0.0,0.0,0.0,0.0,0.0,0.0,0.0,0.0,0.0,0.0,0.0,1.9472,2.0188,2.0741,2.1306,2.201,2.2874,2.3138,2.3512,2.4048,2.4327,2.444,2.4453,2.4691,2.4804,2.4804,2.4804,2.4804,2.4804,2.4804,0.0,0.0,0.0,0.0,0.0,0.0,0.0,0.0,0.0,0.0,0.0,0.0,0.0,3.0044,3.1484,3.2796,3.3918,3.4368,0.0,3.6073,3.6716,3.736,3.8003,3.8676,3.8841,3.8945,3.9316,3.969,4.0034,4.0337,4.0172,0.0,0.0,0.0,0.0,0.0,0.0,0.0,4.6007,4.683,4.7309,0.0,4.7309,0.0,4.7309,4.7309,4.7309,0.0,4.7309,4.7309,4.7309,4.7309,4.7429,4.7728,4.8087,4.8566,4.9134,4.9508,4.9838,5.0122,5.0122,5.0122,5.0122,5.0122,5.0122,5.0122,0.0,4.9957,4.9688,4.9688,4.9337,4.8738,4.8738,4.8334,4.7743,4.7743,4.7549,4.7309,0.0,0.0,0.0,0.0,0.0,0.0,0.0,0.0,0.0,0.0,1.6774,0.0,0.0,0.0,0.0,0.0,0.0,0.0,0.0,0.0,0.0,1.9773,2.0301,2.0842,2.1382,2.192,0.0,0.0,0.0,0.0,2.3891,2.4352,2.4578,2.4578,0.0,0.0,0.0,0.0,0.0,0.0,0.0,0.0,0.0,0.0,0.0,0.0,0.0,0.0,0.0,0.0,2.9953,3.1146,3.2273,3.3948,3.5385,3.4802,3.558,3.6731,3.727,3.7958,3.8676,3.9257,3.9406,3.9406,3.9406,3.9466,3.969,4.0277,0.0,3.9705,4.0292,4.0397,4.098,4.2771,0.0,4.4835,4.677,4.7115,4.7204,4.7294,4.7309,4.7309,4.7309,4.7309,4.7309,4.7309,4.7309,4.7309,4.7309,4.7384,4.7773,4.8521,4.8551,4.9134,5.0315,5.0315,5.0622,5.1191,5.1191,5.1191,5.1191,5.1191,5.1191,5.1191,0.0,0.0,5.0315,5.0315,4.9964,4.9411,4.9411,4.9022,4.8438,4.8438,4.7997,4.7429,0.0,0.0,0.0,0.0,0.0,0.0,0.0,0.0,0.0,0.0,1.6674,1.6697,0.0,0.0,0.0,0.0,0.0,0.0,0.0,0.0,0.0,0.0,1.9899,2.0238,0.0,0.0,0.0,0.0,0.0,0.0,2.3258,2.3346,0.0,0.0,0.0,0.0,0.0,0.0,0.0,0.0,0.0,0.0,0.0,0.0,0.0,0.0,0.0,0.0,0.0,0.0,3.0194,3.1486,3.2885,3.4337,3.5489,3.5355,3.6237,3.727,3.7375,3.8285,3.9257,3.9376,3.9406,3.9406,3.9406,3.9825,0.0,0.0,0.0,4.0262,4.0382,4.0397,4.0681,4.1579,0.0,0.0,0.0,0.0,4.6674,0.0,0.0,0.0,0.0,0.0,0.0,0.0,0.0,0.0,4.7309,4.7818,4.8671,4.983,4.9875,5.0249,5.1011,5.1026,5.1086,5.1191,5.1191,5.1191,5.1191,5.1191,5.1191,5.1191,0.0,0.0,5.1026,5.1026,5.0637,5.0039,5.0039,4.9673,4.9127,4.9127,4.8708,4.8139,0.0,0.0,0.0,0.0,0.0,0.0,0.0,1.5339,1.5685,1.607,1.6342,1.6586,1.6829,1.6769,1.6684,0.0,0.0,0.0,0.0,0.0,0.0,0.0,0.0,0.0,0.0,0.0,0.0,0.0,0.0,0.0,0.0,0.0,0.0,0.0,0.0,0.0,0.0,0.0,0.0,0.0,0.0,0.0,0.0,0.0,0.0,0.0,0.0,0.0,0.0,0.0,2.9841,3.1125,3.2527,3.4143,3.5429,3.507,3.6133,3.7387,3.7387,3.8374,3.9406,3.9406,3.9406,3.9406,3.9406,0.0,0.0,0.0,0.0,3.9888,3.9888,0.0,0.0,0.0,0.0,0.0,0.0,0.0,0.0,0.0,0.0,0.0,0.0,0.0,0.0,0.0,0.0,0.0,4.7803,4.876,4.9576,5.0166,5.0548,5.0877,5.1191,5.1191,5.1191,5.1191,5.1191,5.1191,5.1191,5.1191,5.1191,5.1191,5.1191,0.0,5.1191,5.1191,5.1011,5.0727,5.0727,5.0323,4.9778,4.9778,4.9359,4.8813,0.0,0.0,0.0,0.0,0.0,0.0,1.4847,1.5057,1.5383,1.5764,1.616,1.6581,1.7032,1.6971,1.6857,0.0,0.0,0.0,0.0,0.0,0.0,0.0,0.0,0.0,0.0,0.0,0.0,0.0,0.0,0.0,0.0,0.0,0.0,0.0,0.0,0.0,0.0,0.0,0.0,0.0,0.0,0.0,0.0,0.0,0.0,0.0,0.0,0.0,0.0,0.0,2.9445,3.0673,3.1734,3.3439,3.4996,3.4607,3.579,3.724,3.7357,3.8374,3.9406,3.9406,3.9406,3.9361,3.9212,3.9302,0.0,0.0,3.9302,3.9406,3.9406,0.0,0.0,0.0,0.0,0.0,0.0,0.0,0.0,0.0,0.0,0.0,0.0,0.0,0.0,0.0,0.0,0.0,4.8498,4.9576,5.0278,5.0405,5.0922,5.1191,5.1191,5.1191,5.1191,5.1191,5.1191,5.1191,5.1191,5.1191,5.1191,5.1191,5.1191,0.0,0.0,5.1191,5.1191,5.1191,5.1191,5.0877,5.0405,5.0405,5.0009,4.9501,0.0,0.0,0.0,0.0,0.0,0.0,1.4886,1.5174,1.5564,1.6086,1.6502,1.6917,1.7318,1.7089,1.6857,0.0,0.0,0.0,0.0,0.0,0.0,0.0,0.0,0.0,0.0,0.0,0.0,0.0,0.0,0.0,0.0,0.0,0.0,0.0,0.0,0.0,0.0,0.0,0.0,0.0,0.0,0.0,0.0,0.0,0.0,0.0,0.0,0.0,0.0,0.0,0.0,3.0522,3.0642,3.2063,3.3784,3.4338,0.0,0.0,3.7255,3.8374,3.9406,3.9406,3.9406,3.9242,3.8631,0.0,0.0,3.8616,3.899,3.9406,3.9406,0.0,0.0,0.0,0.0,4.3155,0.0,0.0,0.0,0.0,0.0,0.0,0.0,0.0,0.0,0.0,0.0,0.0,0.0,4.983,5.0488,5.1086,5.1161,5.1191,5.1191,5.1191,5.1191,5.1191,5.1191,5.1191,5.1191,5.1191,5.1191,5.1191,0.0,0.0,0.0,5.1191,5.1191,5.1191,5.1191,5.1161,5.1101,5.1101,5.0682,5.0129,0.0,0.0,0.0,0.0,0.0,0.0,1.4832,1.4814,1.5029,1.5632,1.6028,1.6437,1.6864,1.7023,1.7034,1.6886,0.0,0.0,0.0,0.0,0.0,0.0,0.0,0.0,0.0,0.0,0.0,0.0,0.0,0.0,0.0,0.0,0.0,0.0,0.0,0.0,0.0,0.0,0.0,0.0,0.0,0.0,0.0,0.0,0.0,0.0,0.0,0.0,0.0,0.0,0.0,0.0,3.0387,3.1331,0.0,0.0,3.5131,3.6626,3.724,3.8374,3.9406,3.9406,3.9406,3.9212,3.8542,0.0,3.9212,3.8544,3.8931,3.9406,3.9406,3.9963,0.0,0.0,0.0,0.0,0.0,0.0,0.0,0.0,0.0,0.0,0.0,0.0,0.0,0.0,0.0,0.0,0.0,5.0443,5.0922,5.1191,5.1191,5.1191,5.1191,5.1191,5.1191,5.1191,5.1191,5.1191,5.1191,5.1191,5.1191,5.1191,0.0,0.0,0.0,5.1191,5.1191,5.1191,5.1191,5.1191,5.1191,5.1191,5.1026,5.0802,0.0,0.0,0.0,0.0,0.0,1.4604,1.4675,1.4525,1.4634,1.5312,1.5715,1.6119,1.6607,1.6981,1.7178,1.7118,1.7044,0.0,0.0,0.0,0.0,0.0,0.0,0.0,0.0,0.0,0.0,0.0,0.0,0.0,0.0,0.0,0.0,0.0,0.0,0.0,0.0,0.0,0.0,0.0,0.0,0.0,0.0,0.0,0.0,0.0,0.0,0.0,0.0,0.0,0.0,0.0,0.0,0.0,0.0,0.0,3.4771,3.6372,3.718,3.8374,3.9406,3.9406,3.9257,3.8931,0.0,0.0,3.8673,3.8197,3.8646,3.9152,3.9361,3.978,4.0382,4.1268,4.1976,4.3005,4.4751,0.0,0.0,0.0,0.0,0.0,0.0,0.0,0.0,0.0,0.0,0.0,0.0,5.0936,5.1191,5.1191,5.1191,5.1191,5.1191,5.1191,5.1191,5.1191,5.1191,5.1191,5.1191,5.1191,5.1191,5.1191,0.0,0.0,0.0,5.1191,5.1191,5.1191,5.1191,5.1191,5.1191,5.1191,5.1191,5.1191,0.0,0.0,0.0,0.0,0.0,0.0,1.4397,1.4405,1.4634,1.5312,1.5751,1.6207,1.674,1.7045,1.7253,1.7384,1.7152,0.0,0.0,0.0,0.0,0.0,0.0,0.0,0.0,0.0,2.0489,2.1104,2.1831,2.2469,0.0,0.0,0.0,0.0,0.0,0.0,0.0,0.0,0.0,0.0,0.0,0.0,0.0,0.0,0.0,0.0,0.0,0.0,0.0,0.0,0.0,0.0,0.0,3.0957,3.1765,0.0,3.4457,3.5789,3.706,3.8374,3.9406,3.9406,3.8901,3.8227,0.0,0.0,3.7417,3.7402,3.7943,3.8601,3.9272,3.9406,3.984,4.1194,4.1976,0.0,4.4117,0.0,0.0,0.0,0.0,0.0,0.0,0.0,0.0,0.0,0.0,0.0,0.0,5.1191,5.1191,5.1191,5.1191,5.1191,5.1191,5.1191,5.1191,5.1191,5.1191,5.1191,5.1191,5.1191,5.1191,0.0,0.0,0.0,0.0,5.1191,5.1191,5.1191,5.1191,5.1191,5.1191,5.1191,5.1191,5.1191,0.0,0.0,0.0,0.0,0.0,0.0,1.4316,1.4292,1.4387,1.4737,1.5444,1.6017,1.6224,1.6897,1.7401,1.76,1.7391,0.0,0.0,0.0,0.0,0.0,0.0,0.0,0.0,0.0,2.0701,2.0897,2.2049,2.271,2.2881,2.4126,0.0,0.0,0.0,0.0,0.0,0.0,0.0,0.0,0.0,0.0,0.0,0.0,0.0,0.0,0.0,0.0,0.0,0.0,0.0,0.0,0.0,0.0,0.0,3.2557,3.3769,3.5012,3.5863,3.7043,3.803,3.803,3.7883,3.7554,3.6926,0.0,3.7387,3.7387,3.7928,3.8601,3.9272,3.9406,3.9993,4.1777,4.2261,4.299,0.0,0.0,0.0,0.0,0.0,0.0,0.0,0.0,0.0,0.0,0.0,0.0,0.0,0.0,5.1191,5.1191,5.1191,5.1191,5.1191,5.1191,5.1191,5.1191,5.1191,5.1191,5.1191,5.1191,0.0,0.0,0.0,0.0,0.0,5.1191,5.1191,5.1191,5.1191,5.1191,5.1191,5.1191,5.1191,5.1191,0.0,0.0,0.0,0.0,0.0,0.0,1.4081,1.4097,1.4162,1.4356,1.5059,1.5631,1.5928,1.6618,1.7255,1.7723,1.7676,0.0,0.0,0.0,0.0,0.0,0.0,0.0,1.9857,2.0725,2.1177,2.1177,2.2578,2.3252,2.3293,2.4791,2.5508,2.5577,0.0,0.0,0.0,0.0,0.0,0.0,0.0,0.0,2.76,0.0,0.0,0.0,0.0,0.0,0.0,0.0,0.0,0.0,0.0,0.0,0.0,0.0,3.308,3.4323,3.525,3.6432,3.7387,3.7387,3.724,3.6956,0.0,0.0,3.6821,3.7298,3.7928,3.8601,3.9272,3.9616,4.0277,4.1777,4.2421,0.0,0.0,0.0,0.0,0.0,0.0,0.0,0.0,0.0,0.0,0.0,0.0,0.0,0.0,0.0,5.1191,5.1191,5.1191,5.1191,5.1191,5.1191,5.1191,5.1191,5.1191,5.1191,5.1191,5.1191,0.0,0.0,0.0,0.0,0.0,5.1191,5.1191,5.1191,5.1191,5.1191,5.1191,5.1191,5.1191,5.1191,0.0,0.0,0.0,0.0,0.0,0.0,0.0,1.3833,1.3941,1.4154,1.458,1.5141,1.5819,1.6266,1.6894,1.7828,1.7985,0.0,0.0,0.0,0.0,0.0,0.0,0.0,2.0303,2.1331,2.1853,2.1853,2.3332,2.4061,2.4089,2.5632,2.6417,2.6537,2.6696,0.0,0.0,0.0,0.0,0.0,0.0,2.76,0.0,0.0,0.0,0.0,0.0,0.0,0.0,0.0,0.0,0.0,0.0,0.0,0.0,0.0,0.0,0.0,0.0,3.6281,3.7253,3.7253,3.6836,3.6434,3.6434,0.0,0.0,3.715,3.7928,3.8601,3.9272,3.9963,4.0636,4.1343,4.2506,0.0,0.0,0.0,0.0,0.0,0.0,0.0,0.0,0.0,0.0,0.0,0.0,0.0,0.0,0.0,5.1191,5.1191,5.1191,5.1191,5.1191,5.1191,5.1191,5.1191,5.1191,5.1191,5.1191,5.1191,0.0,0.0,0.0,0.0,0.0,5.1191,5.1191,5.1191,5.1191,5.1191,5.1191,5.1191,5.1191,5.1191,0.0,0.0,0.0,0.0,0.0,0.0,0.0,0.0,0.0,0.0,1.4344,1.495,1.5672,1.6289,1.7002,0.0,0.0,0.0,0.0,0.0,0.0,0.0,0.0,0.0,2.0381,2.1753,2.2492,2.2492,2.3906,2.4599,2.464,2.6144,2.6858,2.6897,2.713,2.7323,0.0,0.0,0.0,0.0,2.76,2.76,0.0,0.0,0.0,0.0,2.76,2.7931,0.0,0.0,0.0,0.0,0.0,0.0,0.0,0.0,3.2452,3.3559,3.3873,0.0,3.5953,3.5953,3.5848,3.5744,0.0,3.5609,0.0,0.0,0.0,3.8601,3.9272,3.9963,4.0786,4.1957,4.2806,0.0,0.0,0.0,0.0,0.0,0.0,0.0,0.0,0.0,0.0,0.0,0.0,0.0,0.0,0.0,5.1191,5.1191,5.1191,5.1191,5.1191,5.1191,5.1191,5.1191,5.1191,5.1191,5.1191,5.1191,0.0,0.0,0.0,0.0,5.1191,5.1191,5.1191,5.1191,5.1191,5.1191,5.1191,5.1191,5.1191,5.1191,0.0,0.0,0.0,0.0,0.0,0.0,0.0,0.0,0.0,0.0,1.4185,1.4828,1.5533,1.6264,1.7055,0.0,0.0,0.0,0.0,0.0,0.0,0.0,0.0,2.0736,2.0635,2.2163,2.2979,2.2979,2.4385,2.5077,2.5118,2.6575,2.7286,2.7286,2.7425,2.7524,2.76,0.0,0.0,0.0,2.76,0.0,0.0,0.0,0.0,0.0,2.76,2.8021,0.0,2.9368,2.9998,3.0613,0.0,0.0,0.0,0.0,3.2691,3.3575,3.3874,3.4711,3.5504,3.5504,3.5504,3.5504,3.5504,0.0,0.0,0.0,0.0,3.8601,3.9272,4.0202,0.0,0.0,4.2716,0.0,0.0,0.0,0.0,0.0,0.0,0.0,0.0,0.0,0.0,0.0,0.0,0.0,0.0,0.0,5.1191,5.1191,5.1191,5.1191,5.1191,5.1191,5.1191,5.1191,5.1191,5.1191,5.1191,5.1191,0.0,0.0,0.0,0.0,5.1191,5.1191,5.1191,5.1191,5.1191,5.1191,5.1191,5.1191,5.1191,5.1191,0.0,0.0,0.0,0.0,0.0,0.0,0.0,0.0,0.0,0.0,0.0,0.0,0.0,0.0,0.0,0.0,0.0,0.0,0.0,0.0,0.0,0.0,2.0324,2.1108,2.099,2.2537,2.3352,2.3352,2.4761,2.5435,2.545,2.6921,2.76,2.76,2.76,2.76,2.76,2.76,0.0,0.0,2.76,0.0,0.0,0.0,0.0,0.0,0.0,0.0,0.0,2.9518,3.0148,3.0747,3.1316,0.0,0.0,0.0,0.0,0.0,3.4324,3.4997,3.5504,3.5504,3.5504,3.5504,3.5504,0.0,0.0,0.0,0.0,0.0,0.0,0.0,0.0,0.0,0.0,0.0,0.0,0.0,0.0,0.0,0.0,0.0,0.0,0.0,0.0,0.0,0.0,0.0,0.0,0.0,0.0,5.1191,5.1191,5.1191,5.1191,5.1191,5.1191,5.1191,5.1191,5.1191,5.1191,5.1191,0.0,0.0,0.0,0.0,5.1191,5.1191,5.1191,5.1191,5.1191,5.1191,5.1191,5.1191,5.1191,5.1191,0.0,0.0,0.0,0.0,0.0,0.0,0.0,0.0,0.0,0.0,0.0,0.0,0.0,0.0,0.0,0.0,0.0,0.0,0.0,0.0,0.0,1.9308,2.0666,2.143,2.1409,2.2825,2.3541,2.3541,2.4907,2.5564,2.5594,2.6961,2.76,2.76,2.76,2.76,2.76,2.76,2.76,2.76,0.0,0.0,0.0,0.0,0.0,0.0,0.0,0.0,0.0,3.0148,3.0792,3.1361,3.1466,0.0,0.0,0.0,0.0,0.0,3.4324,3.4997,3.5504,3.5504,3.5504,3.5504,3.5504,0.0,0.0,0.0,0.0,0.0,0.0,0.0,0.0,0.0,0.0,0.0,0.0,0.0,0.0,0.0,0.0,0.0,0.0,0.0,0.0,0.0,0.0,0.0,0.0,0.0,0.0,5.1191,5.1191,5.1191,5.1191,5.1191,5.1191,5.1191,5.1191,5.1191,5.1191,5.1191,5.1191,0.0,0.0,5.1191,5.1191,5.1191,5.1191,5.1191,5.1191,5.1191,5.1191,5.1191,5.1191,5.1191,0.0,0.0,0.0,0.0,0.0,0.0,0.0,0.0,0.0,0.0,0.0,0.0,0.0,0.0,0.0,0.0,0.0,0.0,0.0,0.0,1.9717,2.0094,2.1064,2.157,2.15,2.2873,2.3595,2.3595,2.493,2.5603,2.5618,2.6973,2.76,2.76,2.76,2.76,2.76,2.76,2.76,2.76,0.0,0.0,0.0,0.0,0.0,0.0,0.0,0.0,0.0,0.0,3.0957,3.1511,3.1511,0.0,0.0,0.0,0.0,0.0,3.4862,3.5265,3.5504,3.5504,3.5504,3.5594,3.5953,0.0,0.0,0.0,0.0,0.0,0.0,0.0,0.0,0.0,0.0,0.0,0.0,0.0,0.0,0.0,0.0,0.0,0.0,0.0,0.0,0.0,0.0,0.0,0.0,0.0,0.0,0.0,5.1191,5.1191,5.1191,5.1191,5.1191,5.1191,5.1191,5.1191,5.1191,5.1191,5.1191,5.1191,0.0,5.1191,5.1191,5.1191,5.1191,5.1191,5.1191,5.1191,5.1191,5.1191,5.1191,5.1191,0.0,0.0,0.0,0.0,0.0,0.0,0.0,0.0,0.0,0.0,0.0,0.0,0.0,0.0,0.0,0.0,0.0,0.0,0.0,1.9572,1.9998,2.0668,2.1335,2.1729,2.1773,2.2984,2.3684,2.3823,2.502,2.5752,2.6093,2.7108,2.76,2.76,2.76,2.76,2.76,2.76,2.76,2.76,0.0,0.0,0.0,0.0,0.0,0.0,0.0,0.0,0.0,0.0,0.0,0.0,0.0,0.0,0.0,3.3305,3.3979,3.4637,3.5325,3.5504,3.5504,3.5504,0.0,3.5684,3.6359,0.0,0.0,0.0,0.0,0.0,0.0,0.0,0.0,0.0,0.0,0.0,0.0,0.0,0.0,0.0,0.0,0.0,0.0,0.0,0.0,0.0,0.0,0.0,0.0,0.0,0.0,0.0,5.1191,5.1191,5.1191,5.1191,5.1191,5.1191,5.1191,5.1191,5.1191,5.1191,5.1191,5.1191,5.1191,5.1191,5.1191,5.1191,5.1191,5.1191,5.1191,5.1191,5.1191,5.1191,5.1191,5.1191,0.0,0.0,0.0,0.0,0.0,0.0,0.0,0.0,0.0,0.0,0.0,0.0,0.0,0.0,0.0,0.0,0.0,0.0,0.0,1.9645,1.9998,2.0668,2.1335,2.1989,2.2603,2.3251,2.3898,2.453,2.5259,2.6243,2.7465,2.754,2.76,2.76,2.76,2.76,2.76,2.76,2.76,2.76,2.76,0.0,0.0,0.0,0.0,0.0,0.0,0.0,0.0,0.0,0.0,0.0,0.0,0.0,3.2632,3.3305,3.3979,3.4637,3.5325,3.5504,3.5504,3.5504,3.5504,0.0,3.6359,0.0,0.0,0.0,0.0,0.0,0.0,0.0,0.0,0.0,0.0,0.0,0.0,0.0,0.0,0.0,0.0,0.0,0.0,0.0,0.0,0.0,0.0,0.0,0.0,0.0,0.0,0.0,0.0,5.1191,5.1191,5.1191,5.1191,5.1191,5.1191,5.1191,5.1191,5.1191,5.1191,5.1191,5.1191,5.1191,5.1191,5.1191,5.1191,5.1191,5.1191,5.1191,5.1191,5.1191,5.1191,5.1191,0.0,0.0,0.0,0.0,0.0,0.0,0.0,0.0,0.0,0.0,0.0,0.0,0.0,0.0,0.0,0.0,0.0,0.0,0.0,1.9654,2.0193,2.1266,2.156,2.2188,2.3246,2.3475,2.3928,2.4593,2.5678,2.6689,2.76,2.76,2.76,2.76,2.76,2.76,2.76,2.76,2.76,2.76,2.76,2.76,0.0,0.0,0.0,0.0,0.0,0.0,0.0,0.0,3.1511,3.157,3.1989,3.2587,3.3245,3.3934,3.4607,3.5175,3.5429,3.5504,3.5609,3.6013,0.0,0.0,0.0,0.0,0.0,0.0,0.0,0.0,0.0,0.0,0.0,0.0,0.0,0.0,0.0,0.0,0.0,0.0,0.0,0.0,0.0,0.0,0.0,0.0,0.0,0.0,0.0,0.0,0.0,0.0,0.0,5.1191,5.1191,5.1191,5.1191,5.1191,5.1191,5.1191,5.1191,5.1191,5.1191,5.1191,5.1191,5.1191,5.1191,5.1191,5.1191,5.1191,5.1191,5.1191,5.1191,5.1191,5.1191,5.1191,0.0,0.0,0.0,0.0,0.0,0.0,0.0,0.0,0.0,0.0,0.0,0.0,0.0,0.0,0.0,0.0,0.0,0.0,1.9629,1.9672,2.0297,2.1635,2.1695,2.2303,2.3565,2.3595,2.4033,2.4918,2.6258,2.7151,2.76,2.76,2.76,2.76,2.76,2.76,2.76,2.76,2.76,2.76,2.76,2.772,0.0,0.0,0.0,0.0,0.0,0.0,0.0,0.0,3.1645,3.1899,3.2362,3.311,3.3904,3.4384,3.4966,3.5504,3.5504,3.5504,3.5669,0.0,0.0,0.0,0.0,0.0,0.0,0.0,0.0,0.0,0.0,0.0,0.0,0.0,0.0,0.0,0.0,0.0,0.0,0.0,0.0,0.0,0.0,0.0,0.0,0.0,0.0,0.0,0.0,0.0,0.0,0.0,0.0,0.0,5.1191,5.1191,5.1191,5.1191,5.1191,5.1191,5.1191,5.1191,5.1191,5.1191,5.1191,5.1191,5.1191,5.1191,5.1191,5.1191,5.1191,5.1191,5.1191,5.1191,5.1191,5.1191,0.0,0.0,0.0,0.0,0.0,0.0,0.0,0.0,1.4359,1.5287,1.5874,0.0,0.0,0.0,0.0,0.0,0.0,0.0,1.9699,1.9708,2.0297,2.1635,2.1695,2.2303,2.3565,2.361,2.4268,2.5603,2.6929,2.76,2.76,2.76,2.76,2.76,2.76,2.76,2.76,2.76,2.76,2.76,2.76,2.8006,2.8607,0.0,0.0,0.0,0.0,0.0,0.0,0.0,3.1944,3.2497,3.2512,3.3425,3.4503,3.4503,3.4982,3.5504,3.5504,3.5504,3.5669,0.0,0.0,0.0,0.0,0.0,0.0,0.0,0.0,0.0,0.0,0.0,0.0,0.0,0.0,0.0,0.0,0.0,0.0,0.0,0.0,0.0,0.0,0.0,0.0,0.0,0.0,0.0,0.0,0.0,0.0,0.0,0.0,0.0,5.1191,5.1191,5.1191,5.1191,5.1191,5.1191,5.1191,5.1191,5.1191,5.1191,5.1191,5.1191,5.1191,5.1191,5.1191,5.1191,5.1191,5.1191,5.1191,5.1191,5.1191,5.1191,0.0,0.0,0.0,0.0,0.0,0.0,0.0,0.0,1.5157,1.6059,1.6687,0.0,0.0,0.0,0.0,0.0,0.0,0.0,1.9699,1.9708,2.0297,2.1635,2.1695,2.2303,2.3565,2.4511,2.5199,2.5603,2.6929,2.76,2.76,2.76,2.76,2.76,2.76,2.76,2.76,2.76,2.7869,2.8306,2.8306,2.871,2.9353,0.0,0.0,0.0,0.0,0.0,0.0,0.0,0.0,0.0,3.3604,3.4173,3.4578,3.5071,3.534,3.5504,3.5504,3.5848,0.0,0.0,0.0,0.0,0.0,0.0,0.0,0.0,0.0,0.0,0.0,0.0,0.0,0.0,0.0,0.0,0.0,0.0,0.0,0.0,0.0,0.0,0.0,0.0,0.0,0.0,0.0,0.0,0.0,0.0,0.0,0.0,0.0,0.0,5.1191,5.1191,5.1191,5.1191,5.1191,5.1191,5.1191,5.1191,5.1191,5.1191,5.1191,5.1191,5.1191,5.1191,5.1191,5.1191,5.1191,5.1191,5.1191,5.1191,5.1191,5.1191,0.0,0.0,0.0,0.0,0.0,0.0,0.0,0.0,1.5743,1.6611,1.7304,1.8047,0.0,0.0,0.0,0.0,0.0,0.0,0.0,1.9953,2.0572,2.165,2.1959,2.2682,2.3973,2.5049,2.5734,2.6004,2.7063,2.76,2.76,2.76,2.76,2.76,2.76,2.76,2.7615,2.7872,2.8231,2.8622,2.8891,2.937,2.9997,0.0,0.0,0.0,0.0,0.0,0.0,0.0,0.0,0.0,3.4248,3.4878,3.5371,3.5774,3.5893,3.5893,3.5893,3.6194,0.0,0.0,0.0,0.0,0.0,0.0,0.0,0.0,0.0,0.0,0.0,0.0,0.0,0.0,0.0,0.0,0.0,0.0,0.0,0.0,0.0,0.0,0.0,0.0,0.0,0.0,0.0,0.0,0.0,0.0,0.0,0.0,0.0,0.0,5.0802,5.1071,5.1191,5.1191,5.1191,5.1191,5.1191,5.1191,5.1191,5.1191,5.1191,5.1191,5.1191,5.1191,5.1191,5.1191,5.1191,5.1191,5.1191,5.1191,5.1191,5.1191,0.0,0.0,1.3998,1.413,0.0,0.0,0.0,0.0,1.6202,1.7095,1.783,1.8571,0.0,0.0,0.0,0.0,0.0,0.0,0.0,0.0,2.0997,2.1665,2.2393,2.337,2.4653,2.5289,2.5959,2.6689,2.73,2.76,2.76,2.76,2.76,2.76,2.76,2.76,2.7645,2.8321,2.8637,2.8742,2.9413,3.0057,3.0597,3.0597,0.0,0.0,0.0,0.0,0.0,0.0,0.0,0.0,3.4563,3.5476,3.6508,3.6508,3.6508,3.6508,3.6508,0.0,0.0,0.0,0.0,0.0,0.0,0.0,0.0,0.0,0.0,0.0,0.0,0.0,0.0,0.0,0.0,0.0,0.0,0.0,0.0,0.0,0.0,0.0,0.0,0.0,0.0,0.0,0.0,0.0,0.0,0.0,0.0,0.0,0.0,0.0,5.0196,5.0802,5.1131,0.0,5.1191,5.1191,5.1191,5.1191,5.1191,5.1191,5.1191,5.1191,5.1191,5.1191,5.1191,5.1191,5.1191,5.1191,5.1191,5.1191,5.1191,5.1191,0.0,0.0,1.4343,1.4543,0.0,0.0,0.0,0.0,0.0,1.7841,0.0,0.0,0.0,0.0,0.0,0.0,0.0,0.0,0.0,0.0,2.0997,2.1665,2.2812,2.4029,2.5364,2.5528,2.6183,2.739,2.7525,2.76,2.76,2.76,2.76,2.76,2.76,2.76,2.7645,2.8321,2.8891,2.9443,3.0058,3.0702,3.1286,3.1286,3.169,0.0,0.0,0.0,0.0,0.0,0.0,0.0,3.5115,3.5833,3.6508,3.6508,3.6508,3.6508,3.6508,3.7227,0.0,0.0,0.0,0.0,0.0,0.0,0.0,0.0,0.0,0.0,0.0,0.0,0.0,0.0,0.0,0.0,0.0,0.0,0.0,0.0,0.0,0.0,0.0,0.0,0.0,0.0,0.0,0.0,0.0,0.0,0.0,0.0,0.0,4.9187,5.0181,5.0353,5.0682,0.0,5.1191,5.1191,5.1191,5.1191,5.1191,5.1191,5.1191,5.1191,5.1191,5.1191,5.1191,5.1191,5.1191,5.1191,5.1191,5.1191,5.1191,5.1191,0.0,0.0,0.0,0.0,0.0,0.0,0.0,0.0,0.0,0.0,0.0,0.0,0.0,0.0,0.0,0.0,0.0,0.0,0.0,0.0,2.162,2.2562,2.3251,2.4223,2.5573,2.5603,2.6258,2.76,2.76,2.76,2.76,2.76,2.76,2.76,2.76,2.7779,2.8126,2.88,2.9458,3.0102,3.0717,3.1182,3.154,3.1854,3.2198,3.2587,3.323,0.0,0.0,0.0,0.0,0.0,0.0,0.0,3.6508,3.6508,3.6508,3.6628,3.7242,0.0,0.0,4.0038,0.0,0.0,0.0,0.0,0.0,0.0,0.0,0.0,0.0,0.0,0.0,0.0,0.0,0.0,0.0,0.0,0.0,0.0,0.0,0.0,0.0,0.0,0.0,0.0,0.0,0.0,0.0,0.0,0.0,0.0,4.8117,4.8611,4.9276,4.9613,5.0092,5.0727,5.0727,5.0892,5.1191,5.1191,5.1191,5.1191,5.1191,5.1191,5.1191,5.1191,5.1191,5.1191,5.1191,5.1191,5.1191,5.1191,5.1191,5.1191,0.0,0.0,0.0,0.0,0.0,0.0,0.0,0.0,0.0,0.0,0.0,0.0,0.0,0.0,0.0,0.0,0.0,0.0,0.0,0.0,0.0,2.355,2.3714,2.4358,2.5573,2.5708,2.6363,2.76,2.772,2.7779,2.7764,2.7645,2.76,2.7612,2.772,2.8081,2.8652,2.9428,3.0042,3.0567,3.1227,3.157,3.1735,3.2288,3.2632,3.2991,3.4099,3.4563,3.4757,3.531,0.0,0.0,0.0,0.0,3.6508,3.6508,3.6567,3.6913,3.808,0.0,3.9382,4.1268,0.0,0.0,0.0,0.0,0.0,0.0,0.0,0.0,0.0,0.0,0.0,0.0,0.0,0.0,0.0,0.0,0.0,0.0,0.0,0.0,0.0,0.0,0.0,0.0,0.0,0.0,0.0,0.0,4.7309,4.7309,4.7833,4.8177,4.8304,4.8843,4.9456,5.0054,5.0159,5.0563,5.1191,5.1191,5.1191,5.1191,5.1191,5.1191,5.1191,5.1191,5.1191,5.1191,5.1191,5.1191,5.1191,5.1191,5.1191,5.1191,0.0,0.0,0.0,0.0,0.0,0.0,0.0,0.0,0.0,0.0,1.9548,1.9629,0.0,1.9708,1.9708,1.9708,2.0228,2.0608,2.0688,0.0,0.0,2.3565,2.4167,2.4814,2.5588,2.6168,2.6839,2.76,2.8186,2.8472,2.8442,2.7869,2.76,2.7642,2.8216,2.8517,2.8682,2.9879,3.0432,3.0567,3.1227,3.1854,3.2377,3.2467,0.0,3.4263,3.4444,3.4877,3.5385,3.5474,3.5504,0.0,0.0,0.0,0.0,3.6508,3.6866,3.7449,0.0,0.0,4.1343,0.0,4.317,0.0,0.0,0.0,0.0,0.0,0.0,0.0,0.0,0.0,0.0,0.0,0.0,0.0,0.0,0.0,0.0,0.0,0.0,0.0,0.0,0.0,0.0,0.0,0.0,0.0,0.0,4.7309,4.7309,4.7309,4.7399,4.7713,4.8282,4.8394,4.8768,4.9426,4.9949,5.0563,5.1191,5.1191,5.1191,5.1191,5.1191,5.1191,5.1191,5.1191,5.1191,5.1191,5.1191,5.1191,5.1191,5.1191,5.1191,5.1191,0.0,0.0,0.0,0.0,0.0,0.0,0.0,0.0,0.0,0.0,0.0,1.9669,1.9699,1.9708,1.9848,2.0228,2.0533,2.1027,2.1769,2.2692,2.349,2.4137,2.444,2.5083,2.6138,2.645,2.6929,2.76,2.8276,0.0,0.0,2.8306,2.8156,0.0,2.8472,2.8801,2.9219,3.0118,3.0717,3.1121,3.178,3.2243,3.2587,0.0,0.0,0.0,0.0,0.0,0.0,3.5504,3.5504,3.5504,3.5504,0.0,0.0,0.0,3.6926,0.0,3.9125,4.0965,4.2592,0.0,4.329,0.0,0.0,0.0,0.0,0.0,0.0,0.0,0.0,0.0,0.0,0.0,0.0,0.0,0.0,0.0,0.0,0.0,0.0,0.0,0.0,0.0,0.0,0.0,0.0,0.0,4.7309,4.7309,4.7309,4.7309,4.7309,4.7444,4.7743,4.7743,4.8094,4.8753,4.9389,5.0047,5.0652,5.0652,5.0847,5.1191,5.1191,5.1191,5.1191,5.1191,5.1191,5.1191,5.1191,5.1191,5.1191,5.1191,5.1191,5.1191,0.0,0.0,0.0,0.0,0.0,0.0,0.0,0.0,0.0,0.0,0.0,1.9708,1.9708,0.0,0.0,0.0,2.1012,2.1695,2.2853,2.3505,2.4077,2.459,2.4933,2.5573,2.6584,2.6764,2.7106,2.76,0.0,0.0,2.8607,2.8607,2.8682,0.0,2.8846,2.9131,0.0,0.0,0.0,3.157,3.2228,0.0,0.0,0.0,0.0,0.0,0.0,0.0,0.0,0.0,0.0,0.0,0.0,0.0,0.0,0.0,0.0,0.0,0.0,0.0,4.2816,4.2816,4.2816,4.3205,0.0,0.0,0.0,0.0,0.0,0.0,0.0,0.0,0.0,0.0,0.0,0.0,0.0,0.0,0.0,0.0,0.0,0.0,0.0,0.0,0.0,0.0,0.0,0.0,4.7309,4.7309,4.7309,4.7309,4.7309,4.7309,4.7309,4.7309,4.7638,4.8319,4.8813,4.9381,4.9979,5.0144,5.0465,5.0951,5.1131,5.1191,5.1191,5.1191,5.1191,5.1191,5.1191,5.1191,5.1191,5.1191,5.1191,5.1191,0.0,0.0,0.0,0.0,0.0,0.0,0.0,0.0,0.0,0.0,0.0,1.9708,1.9708,2.0273,2.0658,2.0703,2.1869,2.2872,2.3505,2.4182,2.4563,2.4593,2.5824,0.0,2.6599,2.7225,2.757,2.76,0.0,0.0,2.8607,2.8607,2.8949,2.9548,2.9548,2.9577,2.9683,0.0,0.0,0.0,0.0,0.0,0.0,0.0,0.0,0.0,0.0,0.0,0.0,0.0,0.0,0.0,0.0,0.0,0.0,0.0,0.0,0.0,0.0,4.0954,0.0,4.1508,4.1508,0.0,0.0,0.0,0.0,0.0,0.0,0.0,0.0,0.0,0.0,0.0,0.0,0.0,0.0,0.0,0.0,0.0,0.0,0.0,0.0,0.0,0.0,0.0,0.0,0.0,4.7309,4.7309,4.7309,4.7309,4.7309,4.7309,4.7309,4.7309,4.7638,4.8304,4.8349,4.8708,4.9366,4.9934,5.0211,5.0285,5.0922,5.1191,5.1191,5.1191,5.1191,5.1191,5.1191,5.1191,5.1191,5.1191,5.1191,5.1191,0.0,0.0,0.0,0.0,0.0,0.0,0.0,0.0,0.0,0.0,0.0,0.0,0.0,2.1201,2.1515,2.1944,2.2782,2.355,2.4201,2.447,2.4978,2.5854,2.6333,2.6794,2.724,2.748,2.76,0.0,0.0,2.8607,2.8607,2.8607,2.8951,2.9593,2.9593,2.9817,3.0238,3.1122,0.0,0.0,0.0,0.0,0.0,0.0,0.0,0.0,0.0,0.0,0.0,0.0,0.0,0.0,0.0,0.0,0.0,0.0,0.0,0.0,0.0,0.0,0.0,4.1403,4.1403,0.0,0.0,0.0,0.0,0.0,0.0,0.0,0.0,0.0,0.0,0.0,0.0,0.0,0.0,0.0,0.0,0.0,0.0,0.0,0.0,0.0,0.0,0.0,0.0,0.0,4.7309,4.7309,4.7309,4.7309,4.7309,4.7309,4.7309,4.7309,4.7429,4.7653,4.7653,4.7997,4.8663,4.888,4.9426,5.0196,5.0458,5.0802,5.1191,5.1191,5.1191,5.1191,5.1191,5.1191,5.1191,5.1191,5.1191,5.1191,0.0,0.0,0.0,0.0,0.0,1.9774,1.9998,2.0043,2.0273,2.0952,0.0,0.0,0.0,0.0,2.2393,2.3251,2.3689,2.4227,2.4889,2.5143,2.5663,2.6569,2.6809,2.7138,2.7585,2.76,2.76,0.0,0.0,0.0,0.0,2.8487,2.8951,2.9608,2.9817,3.0118,0.0,0.0,0.0,3.2572,0.0,0.0,3.4623,0.0,0.0,0.0,0.0,0.0,0.0,0.0,0.0,0.0,0.0,0.0,0.0,0.0,0.0,0.0,4.0068,0.0,0.0,0.0,0.0,0.0,0.0,0.0,0.0,0.0,0.0,0.0,0.0,0.0,0.0,0.0,0.0,0.0,0.0,0.0,0.0,0.0,0.0,0.0,0.0,0.0,0.0,0.0,0.0,0.0,4.7309,4.7309,4.7309,4.7309,4.7309,4.7309,4.7309,4.7309,4.7309,4.7309,4.7309,4.7534,4.7967,4.8214,4.876,4.9591,5.0024,5.0592,5.1191,5.1191,5.1191,5.1191,5.1191,5.1191,5.1191,5.1191,5.1191,5.1191,0.0,0.0,1.9708,1.9738,1.9729,1.9953,2.0623,2.0728,2.0967,2.1635,0.0,0.0,0.0,0.0,0.0,2.453,2.4634,2.4903,2.5588,2.6243,2.6614,2.6629,2.7255,2.76,2.76,0.0,0.0,0.0,0.0,0.0,0.0,0.0,2.8979,2.9653,3.0238,3.0522,3.0642,0.0,3.2512,3.2647,0.0,3.4503,3.4592,0.0,0.0,0.0,3.7419,3.7434,0.0,0.0,0.0,0.0,0.0,0.0,0.0,0.0,0.0,0.0,0.0,0.0,0.0,0.0,0.0,0.0,4.1025,0.0,0.0,0.0,0.0,0.0,0.0,0.0,0.0,0.0,0.0,0.0,0.0,0.0,0.0,0.0,0.0,0.0,0.0,0.0,0.0,0.0,0.0,4.7309,4.7309,4.7309,4.7309,4.7309,4.7309,4.7309,4.7309,4.7309,4.7309,4.7309,4.7309,4.7309,4.7324,4.7967,4.8267,4.8379,4.9605,5.0533,5.1161,5.1191,5.1191,5.1191,5.1191,5.1191,5.1191,5.1191,5.1191,5.1191,0.0,1.9708,1.9848,2.0348,2.0413,2.0653,2.1321,2.1425,2.1665,0.0,0.0,0.0,0.0,0.0,2.493,2.5289,2.5319,2.5603,2.6273,2.6509,2.6809,2.73,2.7495,2.76,2.76,0.0,0.0,0.0,0.0,2.7854,2.8336,2.8502,2.919,3.0253,3.0432,3.1046,3.1974,3.2347,0.0,0.0,3.4158,3.4787,0.0,0.0,0.0,0.0,0.0,3.8123,0.0,0.0,3.9409,3.8883,0.0,0.0,0.0,0.0,0.0,0.0,3.9406,0.0,0.0,0.0,0.0,0.0,3.9873,4.0846,0.0,0.0,0.0,0.0,0.0,0.0,0.0,0.0,0.0,0.0,0.0,0.0,0.0,0.0,0.0,0.0,0.0,0.0,0.0,0.0,4.7309,4.7309,4.7309,4.7309,4.7309,4.7309,4.7309,4.7309,4.7309,4.7309,4.7309,4.7309,4.7309,4.7309,4.7309,4.7489,4.7833,4.8334,4.8671,4.9441,5.0518,5.0996,5.1191,5.1191,5.1191,5.1191,5.1191,5.1191,5.1191,5.1191,2.0468,2.0537,2.0657,2.1051,2.1126,2.1335,2.2004,2.2119,2.2453,0.0,0.0,0.0,0.0,0.0,0.0,2.5989,2.6019,2.6303,2.6973,2.7031,2.7195,2.7585,2.76,2.76,2.76,2.76,2.76,0.0,0.0,0.0,0.0,0.0,0.0,3.0522,3.1076,3.1764,0.0,0.0,0.0,0.0,3.4652,0.0,0.0,3.5923,3.6252,0.0,0.0,0.0,3.8664,4.0281,4.0367,0.0,0.0,0.0,0.0,0.0,0.0,0.0,0.0,0.0,0.0,0.0,0.0,0.0,3.9406,4.0442,4.1583,0.0,0.0,0.0,0.0,0.0,0.0,0.0,0.0,0.0,0.0,0.0,0.0,0.0,0.0,0.0,0.0,0.0,0.0,0.0,4.7309,4.7309,4.7309,4.7309,4.7309,4.7309,4.7309,4.7309,4.7309,4.7309,4.7309,4.7309,4.7309,4.7309,4.7309,4.7309,4.7519,4.7893,4.8184,4.8716,4.9471,5.0398,5.0951,5.1191,5.1191,5.1191,5.1191,5.1191,5.1191,5.1191,0.0,2.1695,2.1724,2.1809,2.1809,2.2064,2.2797,2.2912,2.3336,0.0,2.4784,0.0,0.0,0.0,0.0,0.0,2.6704,2.6958,2.7555,2.76,2.76,2.76,2.76,2.76,2.76,2.76,2.763,0.0,0.0,0.0,0.0,0.0,0.0,0.0,3.1929,3.2542,3.2691,0.0,0.0,3.4772,3.537,3.5654,0.0,0.0,3.6193,0.0,3.817,3.8679,3.9023,4.0879,4.1074,0.0,0.0,0.0,0.0,0.0,3.9406,0.0,0.0,0.0,0.0,0.0,0.0,0.0,3.9406,4.0382,4.1478,0.0,0.0,0.0,0.0,0.0,0.0,0.0,0.0,0.0,0.0,0.0,0.0,0.0,0.0,0.0,0.0,0.0,4.7309,4.7309,4.7309,4.7309,4.7309,4.7309,4.7309,4.7309,4.7309,4.7309,4.7309,4.7309,4.7309,4.7309,4.7309,4.7309,4.7309,4.7309,4.7309,4.7339,4.7923,4.8244,4.8394,4.9516,5.0428,5.1101,5.1161,5.1191,5.1191,5.1191,5.1191,5.1191,2.1665,2.1695,2.1869,2.2418,2.2508,2.2887,2.4048,2.4231,2.4511,2.5304,2.5857,0.0,0.0,0.0,0.0,0.0,2.7405,2.7465,2.7585,2.76,2.76,2.76,2.76,2.76,2.76,2.76,2.7857,2.8397,0.0,0.0,0.0,0.0,0.0,0.0,3.2138,3.2796,3.3365,0.0,0.0,3.6119,3.6254,0.0,3.709,3.7629,3.793,3.8197,3.9529,4.0352,4.0954,0.0,4.1747,4.1089,0.0,0.0,0.0,0.0,0.0,0.0,0.0,0.0,0.0,0.0,0.0,0.0,3.9406,4.0004,4.0786,0.0,0.0,0.0,0.0,0.0,0.0,0.0,0.0,0.0,0.0,0.0,0.0,0.0,0.0,0.0,0.0,0.0,4.7309,4.7309,4.7309,4.7309,4.7309,4.7309,4.7309,4.7309,4.7309,4.7309,4.7309,4.7309,4.7309,4.7309,4.7309,4.7309,4.7309,4.7309,4.7309,4.7309,4.7444,4.7803,4.8334,4.8566,4.9359,5.0458,5.0981,5.1191,5.1191,5.1191,5.1191,5.1191,2.2592,2.2921,2.3255,2.3595,2.3924,2.4358,2.5005,2.5098,2.5349,2.6019,2.6689,0.0,0.0,0.0,0.0,0.0,0.0,0.0,0.0,2.76,2.76,2.76,2.76,2.7764,2.8081,2.8096,2.8425,2.9099,0.0,0.0,0.0,0.0,0.0,0.0,0.0,0.0,0.0,0.0,3.5744,3.6941,3.6941,0.0,3.7973,3.8646,3.8901,3.908,4.0412,4.1519,4.2357,4.2396,4.2186,0.0,0.0,4.0172,3.9825,0.0,3.9406,3.9406,0.0,0.0,0.0,3.9406,0.0,0.0,0.0,3.9933,4.0591,0.0,0.0,0.0,0.0,0.0,0.0,0.0,0.0,0.0,0.0,0.0,0.0,0.0,0.0,0.0,0.0,0.0,4.7309,4.7309,4.7309,4.7309,4.7309,4.7309,4.7309,4.7309,4.7309,4.7309,4.7309,4.7309,4.7309,4.7309,4.7309,4.7309,4.7309,4.7309,4.7309,4.7309,4.7309,4.7489,4.7818,4.8147,4.8865,4.9823,5.0443,5.0907,5.1191,5.1191,5.1191,5.1191,2.3894,2.4421,2.4784,2.4784,2.5244,2.5633,2.5767,2.5794,2.6033,2.6704,0.0,0.0,0.0,0.0,0.0,0.0,0.0,0.0,0.0,0.0,2.8169,2.8169,2.8049,2.8291,2.8951,2.8846,2.9101,2.9773,3.0253,0.0,0.0,0.0,0.0,0.0,0.0,0.0,0.0,0.0,0.0,3.7417,0.0,3.8227,3.8661,3.9331,3.9675,3.9945,4.128,4.2357,4.307,4.2705,0.0,4.2231,4.1265,4.0786,0.0,0.0,0.0,0.0,0.0,0.0,0.0,0.0,0.0,3.9406,0.0,0.0,0.0,0.0,0.0,0.0,0.0,0.0,0.0,0.0,0.0,0.0,0.0,0.0,0.0,0.0,0.0,0.0,0.0,0.0,4.7115,4.7115,4.7115,4.7115,4.7115,4.7234,4.7309,4.7309,4.7309,4.7309,4.7309,4.7309,4.7309,4.7309,4.7309,4.7309,4.7309,4.7309,4.7309,4.7309,4.7309,4.7309,4.7339,4.7878,4.8588,4.9352,4.9949,5.0622,5.1191,5.1191,5.1191,5.1191,2.536,2.5423,2.5483,2.5483,2.5543,2.5809,2.6393,2.6494,2.6734,0.0,0.0,0.0,0.0,0.0,0.0,0.0,0.0,0.0,2.9398,0.0,0.0,3.0178,2.9653,2.9653,3.0268,2.9758,2.9788,3.0402,3.0477,3.0792,0.0,0.0,0.0,0.0,3.3829,0.0,0.0,0.0,3.7285,0.0,3.9349,3.9753,0.0,4.0038,4.0651,4.1324,4.2622,4.2836,4.2571,0.0,4.2836,4.247,0.0,4.2207,0.0,0.0,0.0,0.0,0.0,0.0,0.0,0.0,3.9406,0.0,0.0,0.0,0.0,0.0,0.0,0.0,0.0,0.0,0.0,0.0,0.0,0.0,0.0,0.0,0.0,0.0,0.0,0.0,0.0,0.0,0.0,4.6405,4.6405,4.6405,4.6405,4.6995,4.7309,4.7309,4.7309,4.7309,4.7309,4.7309,4.7309,4.7309,4.7309,4.7309,4.7309,4.7309,4.7309,4.7309,4.7309,4.7309,4.7309,4.7384,4.8147,4.9352,4.9949,5.0622,5.1191,5.1191,5.1191,5.1191,2.5737,2.5914,2.6183,2.6183,2.6509,2.6866,2.7151,2.718,2.7408,0.0,0.0,0.0,0.0,0.0,0.0,0.0,0.0,3.0972,0.0,0.0,0.0,0.0,2.9922,0.0,3.0492,3.0253,3.0447,3.1091,3.1465,3.1809,0.0,0.0,0.0,0.0,3.4248,0.0,3.6237,0.0,0.0,0.0,0.0,0.0,0.0,4.0861,4.1609,4.2607,4.3549,4.3733,4.3599,0.0,4.4032,0.0,0.0,0.0,0.0,0.0,0.0,0.0,0.0,0.0,0.0,0.0,0.0,0.0,0.0,0.0,3.9406,0.0,0.0,0.0,0.0,0.0,0.0,0.0,0.0,0.0,0.0,0.0,0.0,0.0,0.0,0.0,0.0,0.0,0.0,0.0,0.0,4.63,4.63,4.6929,4.7309,4.7309,4.7309,4.7309,4.7309,4.7309,4.7309,4.7309,4.7309,4.7309,4.7309,4.7309,4.7309,4.7309,4.7309,4.7309,4.7309,4.7309,4.7863,4.8783,4.9419,5.0301,5.1191,5.1191,5.1191,5.1191,2.6333,0.0,2.6869,2.6869,2.7285,2.76,2.76,2.7876,0.0,0.0,0.0,0.0,3.08,3.1024,0.0,0.0,0.0,3.2378,0.0,0.0,3.2094,0.0,0.0,0.0,0.0,0.0,3.1555,3.2049,3.2542,3.2766,0.0,0.0,0.0,0.0,0.0,3.5925,3.7417,0.0,0.0,4.0172,4.0531,4.1089,4.1688,4.1867,4.2611,4.3668,4.4326,4.4466,4.4386,4.5065,4.4975,0.0,4.479,0.0,0.0,0.0,0.0,0.0,4.1923,0.0,0.0,0.0,0.0,0.0,0.0,0.0,0.0,0.0,0.0,0.0,0.0,0.0,0.0,0.0,0.0,0.0,0.0,0.0,0.0,0.0,0.0,0.0,0.0,0.0,0.0,0.0,4.5663,0.0,4.5762,4.6756,4.7219,4.7018,4.7204,4.7309,4.7309,4.7309,4.7309,4.7309,4.7309,4.7309,4.7309,4.7309,4.7309,4.7309,4.7309,4.7309,4.7309,4.7309,4.7698,4.8379,4.9037,4.9957,5.0951,5.1131,5.1191,5.1191,2.754,2.754,0.0,0.0,0.0,2.76,2.76,0.0,0.0,0.0,0.0,0.0,0.0,0.0,0.0,0.0,0.0,3.4602,3.4144,0.0,3.6101,0.0,0.0,0.0,0.0,0.0,3.341,3.344,3.3455,3.3469,3.3484,0.0,0.0,0.0,0.0,3.6791,3.7494,3.8793,3.9376,3.9556,4.0846,4.1762,4.244,0.0,4.3668,4.4362,4.5035,0.0,0.0,4.5065,4.5289,0.0,0.0,0.0,0.0,0.0,0.0,0.0,0.0,0.0,0.0,0.0,0.0,0.0,0.0,0.0,4.1343,0.0,0.0,0.0,0.0,0.0,0.0,0.0,0.0,0.0,0.0,0.0,0.0,0.0,0.0,0.0,0.0,0.0,0.0,4.4326,4.4945,4.505,4.4386,4.6232,4.6988,4.6345,4.6958,4.7309,4.7309,4.7309,4.7309,4.7309,4.7309,4.7309,4.7309,4.7309,4.7309,4.7309,4.7309,4.7309,4.7309,4.7309,4.7698,4.8379,4.9037,4.9673,5.03,5.0966,5.1191,5.1191,2.76,0.0,0.0,0.0,0.0,0.0,0.0,2.9043,0.0,0.0,0.0,0.0,0.0,0.0,3.4223,0.0,0.0,3.5809,3.5912,3.6111,0.0,0.0,0.0,3.4607,0.0,0.0,0.0,0.0,0.0,0.0,3.4188,3.5296,0.0,0.0,0.0,3.7704,0.0,0.0,0.0,0.0,0.0,4.3718,4.4292,0.0,0.0,4.505,4.5717,4.5822,0.0,4.6396,4.6337,4.6076,4.6734,4.6495,4.5956,4.5956,4.5313,0.0,0.0,0.0,4.3554,4.312,0.0,0.0,0.0,0.0,0.0,0.0,0.0,0.0,0.0,0.0,0.0,0.0,0.0,0.0,0.0,0.0,0.0,0.0,0.0,0.0,0.0,0.0,0.0,4.3638,4.4252,4.4736,0.0,4.6016,4.6734,4.6943,4.7189,4.7309,4.7309,4.7309,4.7309,4.7309,4.7309,4.7309,4.7309,4.7309,4.7309,4.7309,4.7309,4.7309,4.7309,4.7309,4.7429,4.7743,4.8858,4.9411,4.9733,5.081,5.1191,5.1191,2.8246,0.0,0.0,0.0,0.0,0.0,0.0,0.0,0.0,0.0,3.1997,0.0,3.3857,0.0,3.4638,0.0,3.5878,3.6335,3.6799,3.6955,0.0,3.7421,3.6445,0.0,0.0,0.0,0.0,0.0,0.0,3.5535,3.555,3.6434,3.6941,0.0,0.0,3.8377,3.9421,0.0,4.0991,0.0,0.0,4.514,0.0,0.0,4.5499,4.5753,0.0,4.6659,4.6719,4.716,4.7003,4.6719,4.7174,4.6988,4.6659,4.6659,4.6352,4.6007,4.6007,4.5529,0.0,0.0,4.3898,0.0,4.2885,0.0,0.0,0.0,0.0,0.0,0.0,0.0,0.0,0.0,0.0,0.0,0.0,4.329,0.0,0.0,0.0,0.0,0.0,0.0,4.329,4.329,4.3923,4.4371,0.0,0.0,4.6016,4.6232,4.6471,4.6711,4.6929,4.6929,4.7048,4.7309,4.7309,4.7309,4.7309,4.7309,4.7309,4.7309,4.7309,4.7309,4.7309,4.7309,4.7309,4.7429,4.8783,4.9292,4.9441,5.0735,5.1191,5.1191,2.9418,2.9071,0.0,0.0,2.8325,0.0,0.0,0.0,3.2261,0.0,3.318,3.4189,3.4374,3.4091,3.4118,3.4735,3.5585,0.0,3.695,3.7989,0.0,0.0,3.8734,3.8497,3.8499,0.0,0.0,0.0,0.0,0.0,3.7464,3.7464,3.7793,0.0,3.8422,0.0,3.9496,4.0127,4.1194,4.268,4.5209,4.5852,4.5439,4.6713,0.0,4.6348,4.7048,4.7309,4.7309,4.7309,4.7309,4.7309,4.7309,4.7309,4.7309,4.7309,4.7309,4.7309,4.7309,4.6809,4.63,4.63,0.0,0.0,0.0,0.0,4.5304,0.0,0.0,0.0,0.0,0.0,0.0,0.0,0.0,0.0,0.0,0.0,0.0,0.0,0.0,0.0,0.0,4.329,4.329,4.329,4.3893,0.0,0.0,0.0,0.0,4.4377,4.4975,4.5618,4.6285,4.63,4.6629,4.7309,4.7309,4.7309,4.7309,4.7309,4.7309,4.7309,4.7309,4.7309,4.7309,4.7309,4.7309,4.7429,4.8783,4.9344,4.9531,5.075,5.1191,5.1191,2.9302,2.924,2.9306,0.0,3.0688,3.1132,0.0,0.0,0.0,0.0,3.3482,3.416,3.4309,3.463,3.5198,3.6103,3.6707,0.0,0.0,0.0,0.0,4.0256,3.9895,3.9723,3.9888,3.9227,0.0,3.8883,0.0,0.0,3.8138,3.8138,3.8227,3.8424,0.0,0.0,4.0157,4.0337,4.1444,4.3185,4.4715,4.5218,0.0,0.0,4.5624,4.5652,4.686,4.7309,4.7309,4.7309,4.7309,4.7309,4.7309,4.7309,4.7309,4.7309,4.7309,4.7309,4.7309,4.6809,4.63,4.63,4.5813,4.5289,0.0,0.0,0.0,0.0,0.0,0.0,0.0,0.0,0.0,0.0,0.0,0.0,0.0,0.0,0.0,0.0,0.0,0.0,0.0,0.0,4.329,4.329,4.3454,4.3698,0.0,0.0,0.0,4.5035,4.5214,4.5618,4.6285,4.63,4.6629,4.7309,4.7309,4.7309,4.7309,4.7309,4.7309,4.7309,4.7309,4.7309,4.7309,4.7309,4.7309,4.7429,4.8783,4.989,5.075,5.1071,5.1191,5.1191,2.978,0.0,0.0,3.1036,0.0,0.0,3.1846,0.0,0.0,3.3469,3.4244,0.0,3.4787,3.5003,3.5465,3.6201,3.6683,0.0,0.0,0.0,0.0,4.029,4.0341,4.0455,4.07,4.0435,0.0,4.0277,0.0,0.0,3.926,3.8975,3.8841,3.8871,0.0,4.0053,0.0,4.1215,4.2355,4.3702,4.4735,0.0,0.0,4.5281,4.5329,4.5417,4.61,4.6462,4.6653,4.6778,4.6822,4.6844,4.7055,4.7142,4.7142,4.7287,4.7309,4.7309,4.7309,4.7018,4.6734,4.6734,4.6456,4.6172,4.6172,4.6172,4.6277,0.0,0.0,0.0,0.0,0.0,0.0,0.0,0.0,0.0,0.0,0.0,0.0,0.0,0.0,0.0,0.0,0.0,0.0,4.329,4.329,4.3454,0.0,0.0,0.0,4.484,4.487,4.5185,4.5873,4.5852,4.6052,4.6426,4.6726,4.6854,4.6869,4.7174,4.7309,4.7309,4.7309,4.7309,4.7309,4.7309,4.7474,4.7863,4.9179,5.0316,5.1191,5.1191,5.1191,5.1191,0.0,0.0,0.0,0.0,0.0,0.0,0.0,3.3739,0.0,3.4211,0.0,3.5636,3.5433,3.5267,3.5337,3.5791,0.0,3.6897,3.7583,3.8517,3.9364,4.0049,4.0708,4.115,4.1347,4.1558,0.0,0.0,0.0,0.0,4.0516,3.984,3.9526,0.0,0.0,0.0,0.0,4.2441,4.3471,0.0,4.4919,4.5193,4.512,4.5199,4.5238,4.5147,4.4828,4.5113,4.5732,4.5972,4.6076,4.6188,4.6609,4.6807,4.6909,4.7142,4.7244,4.7229,4.7222,4.7244,4.7251,4.7251,4.7287,4.7309,4.7309,4.7309,4.7309,4.7309,4.6764,0.0,0.0,0.0,0.0,0.0,0.0,0.0,0.0,0.0,0.0,0.0,0.0,0.0,0.0,0.0,0.0,0.0,4.329,4.329,0.0,0.0,0.0,0.0,4.4296,0.0,4.5289,0.0,4.5289,4.5304,4.5971,4.63,4.633,4.6988,4.7309,4.7309,4.7309,4.7309,4.7309,4.7309,4.7743,4.8558,4.974,5.0622,5.1191,5.1191,5.1191,5.1191,0.0,0.0,0.0,0.0,0.0,3.3045,3.3867,3.4925,3.5497,3.5201,3.5197,0.0,3.5468,3.5449,3.5718,3.6462,3.72,0.0,0.0,0.0,0.0,4.1518,4.2373,4.2787,4.2669,4.2867,4.2965,0.0,0.0,0.0,4.1209,4.0531,4.0232,0.0,0.0,0.0,4.2137,4.3334,0.0,4.4063,4.4718,4.4842,4.456,4.4116,4.379,4.3505,4.2806,4.3687,4.5241,4.5287,4.5452,4.5685,4.5904,4.6299,4.6661,4.6705,4.6844,4.6931,4.6771,4.6844,4.6975,4.6975,4.7142,4.7309,4.7309,4.7309,4.7309,4.7309,4.6764,4.63,4.63,0.0,0.0,0.0,0.0,0.0,0.0,0.0,0.0,0.0,0.0,0.0,0.0,0.0,0.0,0.0,0.0,0.0,0.0,0.0,0.0,0.0,0.0,0.0,0.0,0.0,0.0,4.5304,4.5971,4.63,4.633,4.6988,4.7309,4.7309,4.7309,4.7309,4.7309,4.7309,4.8012,4.9202,4.992,5.0622,5.1191,5.1191,5.1191,5.1191,0.0,0.0,0.0,0.0,0.0,0.0,0.0,3.5382,0.0,3.5682,3.5816,3.6035,3.6356,3.6372,3.6656,3.733,3.7875,3.8438,3.9107,4.0184,4.1187,4.1967,4.2955,0.0,4.382,4.4163,4.4326,4.4326,0.0,0.0,0.0,4.2087,0.0,4.0954,0.0,4.2408,0.0,0.0,0.0,4.446,4.4375,4.4276,4.4141,4.3347,4.2857,4.2555,4.188,4.2295,4.3211,4.3735,4.4092,4.4425,4.5035,4.5611,4.6068,4.6314,4.6469,4.6521,4.6425,4.6454,4.6565,4.6712,4.6909,4.7142,4.7287,4.7309,4.7309,4.7309,4.7055,4.6809,4.6809,4.6256,0.0,0.0,0.0,0.0,0.0,0.0,0.0,0.0,0.0,0.0,0.0,0.0,0.0,0.0,0.0,0.0,0.0,0.0,0.0,0.0,0.0,0.0,0.0,0.0,0.0,4.5304,4.5971,4.63,4.633,4.6988,4.7309,4.7309,4.7309,4.7309,4.7354,4.8042,4.8723,4.9381,5.0361,5.0922,5.1191,5.1191,5.1191,5.1191,0.0,3.22,0.0,0.0,3.3648,0.0,0.0,3.5719,3.6185,3.6185,3.6539,3.6949,3.7323,3.7386,3.7538,3.7965,3.8301,3.8722,3.926,4.0162,4.111,4.2148,4.3277,4.4109,4.4598,4.506,4.5289,0.0,0.0,0.0,0.0,0.0,0.0,0.0,0.0,0.0,0.0,0.0,4.441,4.4863,4.4248,4.3979,4.379,4.2725,4.2115,4.1782,4.1172,4.0946,4.1096,4.1952,4.2577,4.3122,4.4022,4.4736,4.5353,4.5776,4.5919,4.5964,4.5919,4.5919,4.6031,4.6291,4.6602,4.6909,4.7164,4.7251,4.7309,4.7309,4.7309,4.7309,4.7309,4.6875,0.0,0.0,0.0,0.0,0.0,0.0,0.0,0.0,0.0,0.0,0.0,0.0,0.0,0.0,0.0,0.0,0.0,0.0,0.0,0.0,0.0,4.4631,4.5289,0.0,4.5289,0.0,4.5971,4.63,4.633,4.6988,4.7309,4.7309,4.7309,4.7309,4.7399,4.8753,4.9292,4.9426,5.0705,5.1191,5.1191,5.1191,5.1191,5.1191,0.0,0.0,0.0,0.0,0.0,0.0,0.0,3.6381,3.7084,3.7084,3.7121,3.7336,3.7864,3.7939,3.7952,3.8002,3.8517,3.9095,3.9606,4.1036,4.2062,4.2522,4.3991,4.4734,4.4598,4.506,4.5289,0.0,0.0,0.0,0.0,0.0,0.0,0.0,0.0,0.0,0.0,4.528,4.5215,4.4892,4.4747,4.427,4.3505,4.2237,4.1459,4.0908,4.0134,3.9839,3.989,4.0249,4.1172,4.2286,4.2808,4.3671,4.4555,4.4853,4.5069,4.517,4.4991,4.5069,4.5261,4.5549,4.6113,4.6668,4.6887,4.7142,4.7309,4.7309,4.7309,4.7309,4.7309,4.7249,4.7189,0.0,0.0,0.0,0.0,0.0,0.0,0.0,0.0,0.0,0.0,0.0,0.0,0.0,0.0,0.0,0.0,0.0,0.0,4.4267,0.0,4.4631,4.5289,4.5289,0.0,4.5304,4.5971,4.63,4.633,4.6988,4.7309,4.7309,4.7309,4.7309,4.7399,4.8753,4.9292,4.9426,5.0705,5.1191,5.1191,5.1191,5.1191,5.1191,0.0,0.0,0.0,0.0,0.0,0.0,0.0,3.7186,3.7801,3.8178,3.7914,3.7902,3.8492,3.8555,3.8655,3.8994,3.9233,3.9613,4.0145,4.1066,4.1981,4.292,4.4128,4.5008,4.5544,4.6022,4.6337,0.0,0.0,0.0,0.0,0.0,0.0,0.0,0.0,4.513,4.5131,4.5157,4.4977,4.4567,4.4214,4.3519,4.259,4.1609,4.0883,4.0351,3.9865,3.9697,3.9723,3.9813,4.044,4.1285,4.2115,4.2857,4.3566,4.4139,4.4266,4.4167,4.4087,4.4134,4.4284,4.4741,4.5398,4.6023,4.6388,4.6778,4.7062,4.7062,4.7186,4.7309,4.7309,4.7309,4.7174,0.0,0.0,0.0,0.0,0.0,0.0,0.0,0.0,0.0,0.0,0.0,0.0,0.0,0.0,0.0,0.0,0.0,0.0,4.3698,0.0,4.4207,4.5289,4.5289,4.5693,4.6501,4.677,4.6899,4.6899,4.7189,4.7309,4.7309,4.7309,4.7534,4.7967,4.8902,4.9516,4.992,5.0832,5.1191,5.1191,5.1191,5.1191,5.1191,3.4663,0.0,3.5253,0.0,3.6094,3.6808,3.7337,3.7902,3.8429,3.8843,3.8655,3.8655,3.9095,3.9132,3.9296,3.9659,3.9697,3.9916,4.0453,4.1084,4.1954,4.3146,4.4238,0.0,4.6188,4.6653,4.7019,4.7309,4.7309,0.0,0.0,0.0,0.0,0.0,4.5656,4.5524,4.5471,4.5213,4.4784,4.4233,4.3709,4.2881,4.1906,4.1185,4.058,4.0057,3.9788,3.9697,3.9697,3.9697,3.9942,4.0453,4.1435,4.209,4.2628,4.3355,4.3365,4.3146,4.3146,4.3146,4.3266,4.3705,4.4494,4.5307,4.5769,4.6366,4.6844,4.6997,4.7164,4.7309,4.7309,4.7309,4.716,4.6674,0.0,0.0,0.0,0.0,0.0,0.0,0.0,4.5185,4.4102,0.0,0.0,0.0,0.0,0.0,0.0,0.0,0.0,0.0,0.0,0.0,0.0,4.52,4.5873,4.7003,4.7219,4.7309,4.7309,4.7309,4.7309,4.7309,4.7309,4.7683,4.8364,4.9022,4.9658,5.0278,5.0936,5.1191,5.1191,5.1191,5.1191,5.1191,3.6243,3.638,3.6545,3.7085,3.7185,3.7386,3.7914,3.8492,3.8881,3.8894,3.9333,3.9672,3.9685,3.9685,3.9685,3.9697,3.9697,3.9916,4.0453,4.1248,4.2152,0.0,0.0,4.5444,4.6188,4.6653,4.7019,4.7309,0.0,0.0,4.6285,0.0,4.6644,4.7258,4.7004,4.6616,4.6165,4.5693,4.4926,4.3955,4.341,4.2604,4.1647,4.1109,4.058,4.0057,3.9788,3.9697,3.9697,3.9697,3.9697,3.9839,4.0669,4.1285,4.182,4.2351,4.2338,4.2128,4.2128,4.2128,4.2164,4.2368,4.343,4.4541,4.5012,4.5882,4.6749,4.7186,4.7309,4.7309,4.7309,4.7309,4.7309,4.7294,0.0,0.0,0.0,0.0,0.0,0.0,4.5882,4.5508,4.3499,0.0,0.0,0.0,0.0,0.0,0.0,0.0,0.0,4.329,4.329,0.0,4.4317,4.4975,4.5648,4.633,4.6973,4.7309,4.7309,4.7309,4.7309,4.7309,4.7309,4.7683,4.8364,4.9022,4.9658,5.0278,5.0936,5.1191,5.1191,5.1191,5.1191,5.1191,3.6833,3.6947,3.7122,3.7651,3.8102,3.8416,3.8592,3.9095,3.9459,3.9459,3.9584,3.9697,3.9697,3.9697,3.9697,0.0,3.9697,3.9839,0.0,4.082,4.1534,4.2409,4.3505,4.4494,4.5444,4.6098,4.6609,4.7019,0.0,0.0,0.0,4.6103,4.61,4.6134,4.6189,4.6023,4.5685,4.4833,4.4111,4.3437,4.2544,4.1758,4.1084,4.0554,4.0134,3.9813,3.9723,3.9697,3.9697,3.9697,3.9697,3.9774,4.0211,4.0706,4.1285,4.2018,4.1919,4.1547,4.1547,4.1423,4.1335,4.1582,4.2479,4.3433,4.3965,4.5233,4.6513,4.7179,4.7309,4.7309,4.7309,4.7309,4.7309,4.7309,0.0,0.0,0.0,0.0,0.0,0.0,0.0,4.52,0.0,4.4601,0.0,0.0,0.0,0.0,0.0,0.0,0.0,0.0,4.329,0.0,4.4282,4.496,4.5648,4.6315,4.6995,4.7309,4.7309,4.7309,4.7309,4.7339,4.7773,4.8364,4.9022,4.9658,5.0293,5.0907,5.1116,5.1191,5.1191,5.1191,5.1191,5.1191,3.7411,3.75,3.7676,3.8228,3.8655,3.8969,3.917,3.9471,3.9697,3.9697,3.9697,3.9697,3.9697,3.9697,0.0,3.9697,3.9697,3.9813,4.007,4.0605,4.121,4.1906,4.3002,4.3979,4.481,0.0,0.0,4.6631,4.6975,4.6869,4.633,4.6266,4.6027,4.5661,4.5624,4.5413,4.5032,4.4097,4.3375,4.2776,4.1895,4.1173,4.0554,4.0224,3.9929,3.9697,3.9697,3.9697,3.9697,3.9697,3.9697,3.9736,4.0032,4.0415,4.0846,4.1335,4.1248,4.101,4.101,4.0946,4.0908,4.0984,4.1769,4.2798,4.38,4.5164,4.6366,4.7033,4.7229,4.7309,4.7309,4.7309,4.7309,4.7309,0.0,4.7309,0.0,0.0,0.0,0.0,0.0,0.0,0.0,4.4915,0.0,0.0,0.0,0.0,0.0,0.0,0.0,4.4042,4.4042,0.0,4.4676,4.5349,4.5882,4.6315,4.6995,4.7309,4.7309,4.7309,4.7309,4.7339,4.7997,4.8678,4.9337,4.9949,5.0607,5.1191,5.1191,5.1191,5.1191,5.1191,5.1191,5.1191,3.7965,3.8065,0.0,0.0,3.8957,0.0,3.9609,3.9697,3.9697,3.9697,3.9697,3.9697,3.9697,3.9697,3.9697,3.9697,0.0,0.0,0.0,4.0554,4.1084,4.1622,4.2833,4.3743,4.4284,4.5284,4.5933,4.6188,4.6653,4.6851,4.6844,4.6616,4.6225,4.5664,4.5201,4.4741,4.4261,4.3433,4.2701,4.2029,4.1448,4.077,4.0096,4.007,3.9904,3.9697,3.9697,3.9697,3.9697,3.9723,3.9723,3.9788,4.0083,4.0338,4.0529,4.0529,4.0529,4.0555,4.0529,4.0719,4.0833,4.058,4.131,4.2566,4.4289,4.5446,4.6299,4.6807,4.7121,4.7309,4.7309,4.7309,4.7309,4.7309,4.7309,4.7309,4.7309,0.0,0.0,0.0,0.0,0.0,0.0,4.505,4.5439,0.0,0.0,0.0,0.0,0.0,4.4685,4.5274,4.5289,4.5289,4.5289,4.5956,4.633,4.6375,4.6988,4.7309,4.7309,4.7309,4.7339,4.7414,4.8094,4.8753,4.9411,5.0009,5.0652,5.1191,5.1191,5.1191,5.1191,5.1191,5.1191,5.1191,0.0,0.0,3.8869,3.9396,3.9522,3.9546,3.9672,3.9697,3.9697,3.9697,3.9697,3.9697,3.9697,3.9697,3.9697,3.9697,3.9697,3.9723,3.9788,4.0109,4.0529,4.1059,4.1967,4.2798,4.3481,4.4485,4.5384,4.6188,4.6513,4.6506,4.6127,4.5866,4.5398,4.4703,4.4191,4.379,4.341,4.2457,4.1955,4.1721,4.0757,4.0287,4.007,3.9865,3.9762,3.9697,3.9697,3.9697,3.9723,3.9929,4.0006,4.0083,4.0554,4.0757,4.082,4.082,4.0959,4.106,4.0871,4.0833,4.0833,4.058,4.1459,4.276,4.4102,4.5173,4.6084,4.6763,4.7121,4.7309,4.7309,4.7309,4.7309,4.7309,4.7309,4.7309,4.7309,4.6719,0.0,0.0,4.6061,4.6001,4.5837,4.6441,4.683,0.0,0.0,0.0,0.0,0.0,4.5657,4.5304,4.5289,4.5289,4.5289,4.5956,4.6555,4.707,4.7234,4.7309,4.7309,4.7309,4.7578,4.8087,4.8768,4.9404,5.0039,5.0682,5.1056,5.1191,5.1191,5.1191,5.1191,5.1191,5.1191,5.1191,3.9158,3.9271,3.9371,3.9647,3.9697,3.9697,3.9697,3.9697,3.9697,3.9697,3.9697,3.9697,3.9697,3.9697,3.9697,3.9697,3.9697,3.9697,3.9697,3.9955,4.0287,4.0694,4.1609,4.2349,4.286,4.3983,4.5055,4.6068,4.609,4.597,4.5722,4.5216,4.4532,4.3648,4.3146,4.2687,4.2297,4.1634,4.1273,4.1097,4.0377,4.0032,3.9916,3.9762,3.9697,3.9697,3.9697,3.9697,3.9736,4.0006,4.0096,4.0198,4.0732,4.0997,4.1122,4.1385,4.1534,4.1622,4.1484,4.1459,4.1385,4.1122,4.1782,4.2784,4.3918,4.5012,4.5972,4.6646,4.7055,4.7309,4.7309,4.7309,4.7309,4.7309,4.7309,4.7309,4.7309,4.6719,0.0,4.63,4.63,4.63,4.63,4.6899,4.7309,4.7309,0.0,0.0,4.7279,4.6943,4.6585,4.6232,4.6217,4.6217,4.6217,4.6591,4.6929,4.7309,4.7309,4.7309,4.7309,4.7309,4.7668,4.8349,4.9007,4.9628,5.024,5.0922,5.1191,5.1191,5.1191,5.1191,5.1191,5.1191,5.1191,5.1191,3.9597,3.9697,3.9697,3.9697,3.9697,3.9697,3.9697,3.9697,3.9697,3.9697,3.9697,3.9697,3.9697,3.9697,3.9697,3.9697,3.9697,3.9697,3.9697,3.9904,4.0211,4.0555,4.1509,4.2215,4.256,4.3774,4.4853,4.5722,4.5518,4.5344,4.5261,4.4555,4.3648,4.2604,4.2177,4.1683,4.1147,4.0883,4.0643,4.0428,4.016,3.9916,3.9697,3.9697,3.9697,3.9697,3.9697,3.9697,3.9736,4.0057,4.0147,4.0287,4.0883,4.1248,4.1522,4.2152,4.2335,4.2286,4.2202,4.2128,4.2054,4.182,4.2226,4.2905,4.3861,4.4989,4.5994,4.6506,4.6968,4.7309,4.7309,4.7309,4.7309,4.7309,4.7219,4.7189,4.7294,0.0,4.6345,4.6435,4.645,4.645,4.645,4.698,4.7309,4.7309,4.7309,0.0,0.0,4.7309,4.7309,4.7309,4.7309,4.7309,4.7309,4.7309,4.7309,4.7309,4.7309,4.7309,4.7309,4.7399,4.7818,4.8498,4.9157,4.9778,5.0413,5.0966,5.1191,5.1191,5.1191,5.1191,5.1191,5.1191,5.1191,5.1191,3.9672,3.9697,3.9697,3.9697,3.9697,3.9697,3.9697,3.9697,3.9697,3.9697,3.9697,3.9697,3.9697,3.9697,3.9697,3.9697,3.9697,3.9697,3.9697,3.9736,4.0096,4.082,4.1435,4.2092,4.2814,4.3869,4.4574,4.4968,4.4936,4.4676,4.4214,4.3648,4.2833,4.1857,4.1547,4.1135,4.0605,4.0338,4.0211,4.0134,3.9865,3.9736,3.9697,3.9697,3.9697,3.9697,3.9697,3.9697,3.9774,4.0275,4.0428,4.0605,4.1609,4.1931,4.2152,4.3098,4.3362,4.3218,4.2606,4.2264,4.2103,4.2054,4.2749,4.36,4.4191,4.527,4.6232,4.655,4.6968,4.7309,4.7309,4.7309,4.7309,4.7309,4.6809,4.6644,4.7234,0.0,4.651,4.7085,4.7138,4.7138,4.7138,4.7249,4.7309,4.7309,4.7309,4.7309,4.7309,4.7309,4.7309,4.7309,4.7309,4.7309,4.7309,4.7309,4.7309,4.7309,4.7309,4.7309,4.7324,4.7878,4.8513,4.9172,4.9808,5.0428,5.1041,5.1161,5.1191,5.1191,5.1191,5.1191,5.1191,5.1191,5.1191,5.1191,3.9697,3.9697,3.9697,3.9697,3.9697,3.9697,3.9697,3.9697,3.9697,3.9697,3.9697,3.9697,3.9697,3.9697,3.9697,3.9697,3.9697,3.9697,3.9697,3.9697,3.9993,4.0669,4.121,4.2005,4.308,4.3584,4.3988,4.4364,4.4129,4.377,4.3338,4.2701,4.1906,4.1047,4.077,4.0453,4.007,3.9942,3.989,3.9865,3.9736,3.9697,3.9697,3.9697,3.9697,3.9697,3.9697,3.9697,3.9774,4.0326,4.0504,4.0707,4.1758,4.2103,4.2286,4.329,4.36,4.3505,4.3043,4.2741,4.2557,4.2677,4.3362,4.4191,4.4856,4.5739,4.6469,4.6712,4.7055,4.7309,4.7309,4.7309,4.7309,4.7309,4.7055,0.0,0.0,4.7018,4.6943,4.7264,4.7309,4.7309,4.7309,4.7309,4.7309,4.7309,4.7309,4.7309,4.7309,4.7309,4.7309,4.7309,4.7309,4.7309,4.7309,4.7309,4.7309,4.7309,4.7309,4.7489,4.7848,4.8147,4.8835,4.9808,5.0084,5.0592,5.1191,5.1191,5.1191,5.1191,5.1191,5.1191,5.1191,5.1191,5.1191,5.1191,3.9697,3.9697,3.9697,3.9697,3.9697,3.9697,3.9697,3.9697,3.9697,3.9697,3.9697,3.9697,3.9697,3.9697,3.9697,3.9697,3.9697,3.9697,3.9697,3.9697,3.9968,4.058,4.1235,4.209,4.3163,4.3225,4.3393,4.3751,4.3321,4.2922,4.2531,4.1906,4.1173,4.0402,4.0185,3.9955,3.9697,3.9697,3.9697,3.9697,3.9697,3.9697,3.9697,3.9697,3.9697,3.9723,3.9762,3.9788,3.989,4.0478,4.0732,4.0946,4.1955,4.2373,4.2628,4.3519,4.3828,4.3804,4.3461,4.3259,4.3211,4.341,4.4073,4.4833,4.5512,4.618,4.6712,4.6887,4.7121,4.7309,4.7309,4.7309,4.7309,4.7309,0.0,0.0,0.0,4.7174,4.713,4.7294,4.7309,4.7309,4.7309,4.7309,4.7309,4.7309,4.7309,4.7309,4.7309,4.7309,4.7309,4.7309,4.7309,4.7309,4.7309,4.7309,4.7309,4.7309,4.7309,4.7653,4.8319,4.8468,4.9149,5.0196,5.0345,5.0727,5.1191,5.1191,5.1191,5.1191,5.1191,5.1191,5.1191,5.1191,5.1191,5.1191,3.9697,3.9697,3.9697,3.9697,3.9697,3.9697,3.9697,3.9697,3.9697,3.9697,3.9697,3.9697,3.9697,3.9697,3.9697,3.9697,3.9697,3.9697,3.9697,3.9697,4.0044,4.0833,4.1845,4.2571,4.2911,4.2935,4.296,4.2984,4.2693,4.2302,4.1771,4.1486,4.0896,4.0134,4.0096,3.9955,3.9697,3.9697,3.9697,3.9697,3.9697,3.9697,3.9697,3.9697,3.9697,3.9723,3.9981,4.0083,4.0185,4.0985,4.1411,4.1746,4.2582,4.3149,4.36,4.4162,4.4527,4.4551,4.378,4.3747,4.3974,4.4252,4.4856,4.5549,4.6031,4.6521,4.6873,4.6894,4.7121,4.7309,4.7309,4.7309,4.7309,4.7309,0.0,0.0,4.7219,4.6764,4.66,4.7234,4.7309,4.7309,4.7309,4.7309,4.7309,4.7309,4.7309,4.7309,4.7309,4.7309,4.7309,4.7309,4.7309,4.7309,4.7309,4.7309,4.7309,4.7309,4.7309,4.7653,4.8334,4.8932,4.9568,5.0226,5.0862,5.1146,5.1191,5.1191,5.1191,5.1191,5.1191,5.1191,5.1191,5.1191,5.1191,5.1191,3.9697,3.9697,3.9697,3.9697,3.9697,3.9697,3.9697,3.9697,3.9697,3.9697,3.9697,3.9697,3.9697,3.9697,3.9697,3.9697,3.9697,3.9697,3.9697,3.9697,3.9968,4.0618,4.1198,4.1634,4.1893,4.1906,4.1906,4.1906,4.1634,4.1323,4.0959,4.0694,4.0313,3.9865,3.9865,3.9788,3.9697,3.9697,3.9697,3.9697,3.9697,3.9788,3.9955,3.9955,4.016,4.0466,4.0554,4.0807,4.1185,4.1781,4.2161,4.2552,4.3491,4.3894,4.4163,4.4871,4.5253,4.5338,4.5049,4.4833,4.4732,4.5009,4.5625,4.6247,4.658,4.6909,4.7142,4.7142,4.7229,4.7309,4.7309,4.7309,4.7309,4.7309,0.0,4.7003,4.7264,4.7085,4.7003,4.7279,4.7309,4.7309,4.7309,4.7309,4.7309,4.7309,4.7309,4.7309,4.7309,4.7309,4.7309,4.7309,4.7309,4.7309,4.7309,4.7309,4.7309,4.7309,4.7713,4.8274,4.8932,4.9568,5.0204,5.0832,5.1086,5.1191,5.1191,5.1191,5.1191,5.1191,5.1191,5.1191,5.1191,5.1191,5.1191,5.1191,3.9697,3.9697,3.9697,3.9697,3.9697,3.9697,3.9697,3.9697,3.9697,3.9697,3.9697,3.9697,3.9697,3.9697,3.9697,3.9697,3.9697,3.9697,3.9697,3.9697,3.989,4.0338,4.0618,4.0858,4.1034,4.1059,4.1059,4.1059,4.0858,4.0643,4.0377,4.0185,3.9955,3.9697,3.9697,3.9697,3.9723,3.9788,3.9839,3.9839,3.9929,4.0109,4.0351,4.0351,4.0681,4.116,4.126,4.1596,4.2126,4.2709,4.3129,4.3559,4.442,4.4768,4.5035,4.5648,4.5941,4.6053,4.6053,4.5859,4.5693,4.5821,4.6269,4.6756,4.6975,4.7164,4.7309,4.7309,4.7309,4.7309,4.7309,4.7309,4.7309,4.7309,4.7309,4.7309,4.7309,4.7309,4.7309,4.7309,4.7309,4.7309,4.7309,4.7309,4.7309,4.7309,4.7309,4.7309,4.7309,4.7309,4.7309,4.7309,4.7309,4.7309,4.7309,4.7309,4.7414,4.7623,4.8094,4.8753,4.9583,5.0009,5.0578,5.1191,5.1191,5.1191,5.1191,5.1191,5.1191,5.1191,5.1191,5.1191,5.1191,5.1191,5.1191,5.1191,3.9697,3.9697,3.9697,3.9697,3.9697,3.9697,3.9697,3.9697,3.9697,3.9697,3.9697,3.9697,3.9697,3.9697,3.9697,3.9697,3.9697,3.9697,3.9697,3.9697,3.9813,4.0096,4.0338,4.0478,4.0478,4.0478,4.0478,4.0478,4.0478,4.0377,4.0096,4.0096,3.9955,3.9697,3.9697,3.9697,3.9723,3.9981,4.0096,4.0121,4.0389,4.0669,4.0908,4.0908,4.1235,4.1746,4.2005,4.2406,4.2937,4.3729,4.4317,4.4814,4.5353,4.5829,4.6254,4.6528,4.6616,4.6616,4.6616,4.6756,4.6851,4.6661,4.6756,4.6975,4.7229,4.7309,4.7309,4.7309,4.7309,4.7309,4.7309,4.7309,4.7309,4.7309,4.7309,4.7309,4.7309,4.7309,4.7309,4.7309,4.7309,4.7309,4.7309,4.7309,4.7309,4.7309,4.7309,4.7309,4.7309,4.7309,4.7309,4.7309,4.7309,4.7309,4.7309,4.7309,4.7638,4.8304,4.8319,4.8985,5.0196,5.0219,5.0578,5.1191,5.1191,5.1191,5.1191,5.1191,5.1191,5.1191,5.1191,5.1191,5.1191,5.1191,5.1191,5.1191,3.9697,3.9697,3.9697,3.9697,3.9697,3.9697,3.9697,3.9697,3.9697,3.9697,3.9697,3.9697,3.9697,3.9697,3.9697,3.9697,3.9697,3.9697,3.9697,3.9697,3.9736,3.9813,3.989,3.9942,3.9942,3.9942,3.9942,3.9942,3.9942,3.989,3.9813,3.9813,3.9788,3.9697,3.9697,3.9697,3.9723,3.9981,4.0096,4.0121,4.0389,4.0783,4.1186,4.1186,4.1746,4.2557,4.2798,4.3433,4.4238,4.4833,4.5361,4.5837,4.6343,4.6712,4.699,4.7055,4.7077,4.7077,4.7077,4.7121,4.7121,4.6866,4.7012,4.7207,4.7287,4.7309,4.7309,4.7309,4.7309,4.7309,4.7309,4.7309,4.7309,4.7309,4.7309,4.7309,4.7309,4.7309,4.7309,4.7309,4.7309,4.7309,4.7309,4.7309,4.7309,4.7309,4.7309,4.7309,4.7309,4.7309,4.7309,4.7309,4.7309,4.7534,4.7997,4.7997,4.8087,4.8319,4.9224,4.983,5.0211,5.0697,5.1011,5.1191,5.1191,5.1191,5.1191,5.1191,5.1191,5.1191,5.1191,5.1191,5.1191,5.1191,5.1191,5.1191,3.9697,3.9697,3.9697,3.9697,3.9697,3.9697,3.9697,3.9697,3.9697,3.9697,3.9697,3.9697,3.9697,3.9697,3.9697,3.9697,3.9697,3.9697,3.9697,3.9697,3.9697,3.9697,3.9697,3.9697,3.9697,3.9697,3.9697,3.9697,3.9697,3.9697,3.9697,3.9697,3.9697,3.9697,3.9697,3.9697,3.9723,4.0096,4.0262,4.0287,4.0681,4.1135,4.1622,4.1622,4.2264,4.3197,4.3423,4.4158,4.5087,4.5603,4.6158,4.669,4.6975,4.7164,4.7309,4.7309,4.7309,4.7309,4.7309,4.7309,4.7251,4.7099,4.7186,4.7309,4.7309,4.7309,4.7309,4.7309,4.7309,4.7309,4.7309,4.7309,4.7309,4.7309,4.7309,4.7309,4.7309,4.7309,4.7309,4.7309,4.7309,4.7309,4.7309,4.7309,4.7309,4.7309,4.7309,4.7309,4.7309,4.7309,4.7309,4.7309,4.7563,4.7878,4.8304,4.8805,4.906,4.906,4.983,5.0353,5.0622,5.1011,5.1191,5.1191,5.1191,5.1191,5.1191,5.1191,5.1191,5.1191,5.1191,5.1191,5.1191,5.1191,5.1191,5.1191,3.9697,3.9697,3.9697,3.9697,3.9697,3.9697,3.9697,3.9697,3.9697,3.9697,3.9697,3.9697,3.9697,3.9697,3.9697,3.9697,3.9697,3.9697,3.9697,3.9697,3.9697,3.9697,3.9697,3.9697,3.9697,3.9697,3.9697,3.9697,3.9697,3.9697,3.9697,3.9697,3.9697,3.9697,3.9697,3.9723,3.9774,4.0275,4.0529,4.0605,4.1135,4.1647,4.2128,4.2152,4.2774,4.3671,4.3974,4.4723,4.564,4.6121,4.6734,4.7309,4.7309,4.7309,4.7309,4.7309,4.7309,4.7309,4.7309,4.7309,4.7309,4.7309,4.7309,4.7309,4.7309,4.7309,4.7309,4.7309,4.7309,4.7309,4.7309,4.7309,4.7309,4.7309,4.7309,4.7309,4.7309,4.7309,4.7309,4.7309,4.7309,4.7309,4.7309,4.7309,4.7309,4.7309,4.7309,4.7309,4.7309,4.7309,4.7339,4.7399,4.7982,4.8341,4.8461,4.962,5.0196,5.0196,5.0255,5.0622,5.1191,5.1191,5.1191,5.1191,5.1191,5.1191,5.1191,5.1191,5.1191,5.1191,5.1191,5.1191,5.1191,5.1191,5.1191,5.1191,3.9697,3.9697,3.9697,3.9697,3.9697,3.9697,3.9697,3.9697,3.9697,3.9697,3.9697,3.9697,3.9697,3.9697,3.9697,3.9697,3.9697,3.9697,3.9697,3.9697,3.9697,3.9697,3.9697,3.9697,3.9697,3.9697,3.9697,3.9697,3.9697,3.9697,3.9697,3.9697,3.9697,3.9697,3.9697,3.9813,4.0032,4.0377,4.0732,4.1161,4.1473,4.1919,4.2449,4.2644,4.3211,4.3974,4.4457,4.523,4.6143,4.6822,4.7164,4.7309,4.7309,4.7309,4.7309,4.7309,4.7309,4.7309,4.7309,4.7309,4.7309,4.7309,4.7309,4.7309,4.7309,4.7309,4.7309,4.7309,4.7309,4.7309,4.7309,4.7309,4.7309,4.7309,4.7309,4.7309,4.7309,4.7309,4.7309,4.7309,4.7309,4.7309,4.7309,4.7309,4.7309,4.7309,4.7309,4.7309,4.7309,4.7309,4.7534,4.8079,4.8207,4.8775,4.9785,5.0046,5.0196,5.0196,5.0742,5.1056,5.1191,5.1191,5.1191,5.1191,5.1191,5.1191,5.1191,5.1191,5.1191,5.1191,5.1191,5.1191,5.1191,5.1191,5.1191,5.1191,3.9697,3.9697,3.9697,3.9697,3.9697,3.9697,3.9697,3.9697,3.9697,3.9697,3.9697,3.9697,3.9697,3.9697,3.9697,3.9697,3.9697,3.9697,3.9697,3.9697,3.9697,3.9697,3.9697,3.9697,3.9697,3.9697,3.9697,3.9697,3.9697,3.9697,3.9697,3.9697,3.9697,3.9723,3.9839,4.0032,4.0313,4.0846,4.1298,4.1721,4.2117,4.2568,4.3029,4.3173,4.377,4.4583,4.4977,4.5753,4.6609,4.7121,4.7309,4.7309,4.7309,4.7309,4.7309,4.7309,4.7309,4.7309,4.7309,4.7309,4.7309,4.7309,4.7309,4.7309,4.7309,4.7309,4.7309,4.7309,4.7309,4.7309,4.7309,4.7309,4.7309,4.7309,4.7309,4.7309,4.7309,4.7309,4.7309,4.7309,4.7309,4.7309,4.7309,4.7309,4.7309,4.7309,4.7309,4.7309,4.7309,4.7593,4.7938,4.8304,4.8895,4.9531,5.0181,5.0533,5.0682,5.0682,5.1026,5.1191,5.1191,5.1191,5.1191,5.1191,5.1191,5.1191,5.1191,5.1191,5.1191,5.1191,5.1191,5.1191,5.1191,5.1191,5.1191,5.1191,3.9697,3.9697,3.9697,3.9697,3.9697,3.9697,3.9697,3.9697,3.9697,3.9697,3.9697,3.9697,3.9697,3.9697,3.9697,3.9697,3.9697,3.9697,3.9697,3.9697,3.9697,3.9697,3.9697,3.9697,3.9697,3.9697,3.9697,3.9697,3.9697,3.9697,3.9697,3.9697,3.9697,3.9723,3.9981,4.0287,4.0631,4.1373,4.1931,4.2335,4.2873,4.3365,4.379,4.3885,4.4448,4.5261,4.5512,4.6165,4.6953,4.7207,4.7309,4.7309,4.7309,4.7309,4.7309,4.7309,4.7309,4.7309,4.7309,4.7309,4.7309,4.7309,4.7309,4.7309,4.7309,4.7309,4.7309,4.7309,4.7309,4.7309,4.7309,4.7309,4.7309,4.7309,4.7309,4.7309,4.7309,4.7309,4.7309,4.7309,4.7309,4.7309,4.7309,4.7309,4.7309,4.7309,4.7414,4.7474,4.7474,4.8102,4.8528,4.8611,4.965,5.0263,5.036,5.0922,5.1191,5.1191,5.1191,5.1191,5.1191,5.1191,5.1191,5.1191,5.1191,5.1191,5.1191,5.1191,5.1191,5.1191,5.1191,5.1191,5.1191,5.1191,5.1191,5.1191,3.9697,3.9697,3.9697,3.9697,3.9697,3.9697,3.9697,3.9697,3.9697,3.9697,3.9697,3.9697,3.9697,3.9697,3.9697,3.9697,3.9697,3.9697,3.9697,3.9697,3.9697,3.9697,3.9697,3.9697,3.9697,3.9697,3.9697,3.9697,3.9697,3.9697,3.9697,3.9697,3.9697,3.9723,3.9981,4.0377,4.0883,4.1473,4.2226,4.3098,4.3624,4.4134,4.4602,4.5078,4.5444,4.5747,4.6009,4.6454,4.6953,4.7207,4.7309,4.7309,4.7309,4.7309,4.7309,4.7309,4.7309,4.7309,4.7309,4.7309,4.7309,4.7309,4.7309,4.7309,4.7309,4.7309,4.7309,4.7309,4.7309,4.7309,4.7309,4.7309,4.7309,4.7309,4.7309,4.7309,4.7309,4.7309,4.7309,4.7309,4.7309,4.7309,4.7309,4.7309,4.7309,4.7309,4.7833,4.8147,4.8147,4.8798,4.9389,4.9934,5.0106,5.0488,5.1056,5.1146,5.1191,5.1191,5.1191,5.1191,5.1191,5.1191,5.1191,5.1191,5.1191,5.1191,5.1191,5.1191,5.1191,5.1191,5.1191,5.1191,5.1191,5.1191,5.1191,5.1191,3.9697,3.9697,3.9697,3.9697,3.9697,3.9697,3.9697,3.9697,3.9697,3.9697,3.9697,3.9697,3.9697,3.9697,3.9697,3.9697,3.9697,3.9697,3.9697,3.9697,3.9697,3.9697,3.9697,3.9697,3.9697,3.9998,4.0162,4.0162,4.0162,4.0162,4.0162,4.0437,4.0587,4.0614,4.1074,4.1491,4.1905,4.2748,4.3527,4.4269,4.4951,4.5623,4.626,4.6648,4.7109,4.7573,4.7836,4.806,4.8253,4.8379,4.8184,4.7863,4.7863,4.7593,4.7309,4.7309,4.7309,4.7309,4.7309,4.7309,4.7309,4.7309,4.7309,4.7309,4.7309,4.7309,4.7309,4.7309,4.7309,4.7309,4.7309,4.7309,4.7309,4.7309,4.7309,4.7309,4.7309,4.7309,4.7309,4.7309,4.7309,4.7309,4.7309,4.7638,4.7863,4.7863,4.8483,4.8858,4.8858,4.9449,4.992,5.0181,5.0563,5.0907,5.1191,5.1191,5.1191,5.1191,5.1191,5.1191,5.1191,5.1191,5.1191,5.1191,5.1191,5.1191,5.1191,5.1191,5.1191,5.1191,5.1191,5.1191,5.1191,5.1191,5.1191,5.1191]},{"header":{"parameterUnit":"m.s-1","parameterCategory":1,"la1":30.6,"la2":28.766,"lo1":-90.7593,"lo2":-88.6598,"dy":0.0162,"dx":0.0183,"nx":116,"ny":114,"refTime":"2024-03-31T06:00:00:Z","depth":0,"parameterNumber":3,"parameterNumberName":"V-component_of_WINDS"},"data":[0.0,0.0,0.0,0.0,0.0,0.0,0.0,0.0,0.0,0.0,0.0,0.0,0.0,0.0,0.0,0.0,0.0,0.0,0.0,0.0,0.0,0.0,0.0,0.0,0.0,0.0,0.0,0.0,0.0,0.0,0.0,0.0,0.0,0.0,0.0,0.0,0.0,0.0,0.0,0.0,0.0,0.0,0.0,0.0,0.0,0.0,0.0,0.0,0.0,0.0,0.0,0.0,0.0,0.0,0.0,0.0,0.0,0.0,0.0,0.0,0.0,0.0,0.0,0.0,0.0,0.0,0.0,0.0,0.0,0.0,0.0,0.0,0.0,0.0,0.0,0.0,0.0,0.0,0.0,0.0,0.0,0.0,0.0,0.0,0.0,0.0,0.0,0.0,0.0,0.0,0.0,0.0,0.0,0.0,0.0,0.0,0.0,0.0,0.0,0.0,0.0,0.0,0.0,0.0,0.0,0.0,0.0,0.0,0.0,0.0,0.0,0.0,0.0,0.0,0.0,0.0,0.0,0.0,0.0,0.0,0.0,0.0,0.0,0.0,0.0,0.0,0.0,0.0,0.0,0.0,0.0,0.0,0.0,0.0,0.0,0.0,0.0,0.0,0.0,0.0,0.0,0.0,0.0,0.0,0.0,0.0,0.0,0.0,0.0,0.0,0.0,0.0,0.0,0.0,0.0,0.0,0.0,0.0,0.0,0.0,0.0,0.0,0.0,0.0,0.0,0.0,0.0,0.0,0.0,0.0,0.0,0.0,0.0,0.0,0.0,0.0,0.0,0.0,0.0,0.0,0.0,0.0,0.0,0.0,0.0,0.0,0.0,0.0,0.0,0.0,0.0,0.0,0.0,0.0,0.0,0.0,0.0,0.0,0.0,0.0,0.0,0.0,0.0,0.0,0.0,0.0,0.0,0.0,0.0,0.0,0.0,0.0,0.0,0.0,0.0,0.0,0.0,0.0,0.0,0.0,0.0,0.0,0.0,0.0,0.0,0.0,0.0,0.0,0.0,0.0,0.0,0.0,0.0,0.0,0.0,0.0,0.0,0.0,0.0,0.0,0.0,0.0,0.0,0.0,0.0,0.0,0.0,0.0,0.0,0.0,0.0,0.0,0.0,0.0,0.0,0.0,0.0,0.0,0.0,0.0,0.0,0.0,0.0,0.0,0.0,0.0,0.0,0.0,0.0,0.0,0.0,0.0,0.0,0.0,0.0,0.0,0.0,0.0,0.0,0.0,0.0,0.0,0.0,0.0,0.0,0.0,0.0,0.0,0.0,0.0,0.0,0.0,0.0,0.0,0.0,0.0,0.0,0.0,0.0,0.0,0.0,0.0,0.0,0.0,0.0,0.0,0.0,0.0,0.0,0.0,0.0,0.0,0.0,0.0,0.0,0.0,0.0,0.0,0.0,0.0,0.0,0.0,0.0,0.0,0.0,0.0,0.0,0.0,0.0,0.0,0.0,0.0,0.0,0.0,0.0,0.0,0.0,0.0,0.0,0.0,0.0,0.0,0.0,0.0,0.0,0.0,0.0,0.0,0.0,0.0,0.0,0.0,0.0,0.0,0.0,0.0,0.0,0.0,0.0,0.0,0.0,0.0,0.0,0.0,0.0,0.0,0.0,0.0,0.0,0.0,0.0,0.0,0.0,0.0,0.0,0.0,0.0,0.0,0.0,0.0,0.0,0.0,0.0,0.0,0.0,0.0,0.0,0.0,0.0,0.0,0.0,0.0,0.0,0.0,0.0,0.0,0.0,0.0,0.0,0.0,0.0,0.0,0.0,0.0,0.0,0.0,0.0,0.0,0.0,0.0,0.0,0.0,0.0,0.0,0.0,0.0,0.0,0.0,0.0,0.0,0.0,0.0,0.0,0.0,0.0,0.0,0.0,0.0,0.0,0.0,0.0,0.0,0.0,0.0,0.0,0.0,0.0,0.0,0.0,0.0,0.0,0.0,0.0,0.0,0.0,0.0,0.0,0.0,0.0,0.0,0.0,0.0,0.0,0.0,0.0,0.0,0.0,0.0,0.0,0.0,0.0,0.0,0.0,0.0,0.0,0.0,0.0,0.0,0.0,0.0,0.0,0.0,0.0,0.0,0.0,0.0,0.0,0.0,0.0,0.0,0.0,0.0,0.0,0.0,0.0,0.0,0.0,0.0,0.0,0.0,0.0,0.0,0.0,0.0,0.0,0.0,0.0,0.0,0.0,0.0,0.0,0.0,0.0,0.0,0.0,0.0,0.0,0.0,0.0,0.0,0.0,0.0,0.0,0.0,0.0,0.0,0.0,0.0,0.0,0.0,0.0,0.0,0.0,0.0,0.0,0.0,0.0,0.0,0.0,0.0,0.0,0.0,0.0,0.0,0.0,0.0,0.0,0.0,0.0,0.0,0.0,0.0,0.0,0.0,0.0,0.0,0.0,0.0,0.0,0.0,0.0,0.0,0.0,0.0,0.0,0.0,0.0,0.0,0.0,0.0,0.0,0.0,0.0,0.0,0.0,0.0,0.0,0.0,0.0,0.0,0.0,0.0,0.0,0.0,0.0,0.0,0.0,0.0,0.0,0.0,0.0,0.0,0.0,0.0,0.0,0.0,0.0,0.0,0.0,0.0,0.0,0.0,0.0,0.0,0.0,0.0,0.0,0.0,0.0,0.0,0.0,0.0,0.0,0.0,0.0,0.0,0.0,0.0,0.0,0.0,0.0,0.0,0.0,0.0,0.0,0.0,0.0,0.0,0.0,0.0,0.0,0.0,0.0,0.0,0.0,0.0,0.0,0.0,0.0,0.0,0.0,0.0,0.0,0.0,0.0,0.0,0.0,0.0,0.0,0.0,0.0,0.0,0.0,0.0,0.0,0.0,0.0,0.0,0.0,0.0,0.0,0.0,0.0,0.0,0.0,0.0,0.0,0.0,0.0,0.0,0.0,0.0,0.0,0.0,0.0,0.0,0.0,0.0,0.0,0.0,0.0,0.0,0.0,0.0,0.0,0.0,0.0,0.0,0.0,0.0,0.0,0.0,0.0,0.0,0.0,0.0,0.0,0.0,0.0,0.0,0.0,0.0,0.0,0.0,0.0,0.0,0.0,0.0,0.0,0.0,0.0,0.0,0.0,0.0,0.0,0.0,0.0,0.0,0.0,0.0,0.0,0.0,0.0,0.0,0.0,0.0,0.0,0.0,0.0,0.0,0.0,0.0,0.0,0.0,0.0,0.0,0.0,0.0,0.0,0.0,0.0,0.0,0.0,0.0,0.0,0.0,0.0,0.0,0.0,0.0,0.0,0.0,0.0,0.0,0.0,0.0,0.0,0.0,0.0,0.0,0.0,0.0,0.0,0.0,0.0,0.0,0.0,0.0,0.0,0.0,0.0,0.0,0.0,0.0,0.0,0.0,0.0,0.0,0.0,0.0,0.0,0.0,0.0,0.0,0.0,0.0,0.0,0.0,0.0,0.0,0.0,0.0,0.0,0.0,0.0,0.0,0.0,0.0,0.0,0.0,0.0,0.0,0.0,0.0,0.0,0.0,0.0,0.0,0.0,0.0,0.0,0.0,0.0,0.0,0.0,0.0,0.0,0.0,0.0,0.0,0.0,0.0,0.0,0.0,0.0,0.0,0.0,0.0,0.0,0.0,0.0,0.0,0.0,0.0,0.0,0.0,0.0,0.0,0.0,0.0,0.0,0.0,0.0,0.0,0.0,0.0,0.0,0.0,0.0,0.0,0.0,0.0,0.0,0.0,0.0,0.0,0.0,0.0,0.0,0.0,0.0,0.0,0.0,0.0,0.0,0.0,0.0,0.0,0.0,0.0,0.0,0.0,0.0,0.0,0.0,0.0,0.0,0.0,0.0,0.0,0.0,0.0,0.0,0.0,0.0,0.0,0.0,0.0,0.0,0.0,0.0,0.0,0.0,0.0,0.0,0.0,0.0,0.0,0.0,0.0,0.0,0.0,0.0,0.0,0.0,0.0,0.0,0.0,0.0,0.0,0.0,0.0,0.0,0.0,0.0,0.0,0.0,0.0,0.0,0.0,0.0,0.0,0.0,0.0,0.0,0.0,0.0,0.0,0.0,0.0,0.0,0.0,0.0,0.0,0.0,0.0,0.0,0.0,0.0,0.0,0.0,0.0,0.0,0.0,0.0,0.0,0.0,0.0,0.0,0.0,0.0,0.0,0.0,0.0,0.0,0.0,0.0,0.0,0.0,0.0,0.0,0.0,0.0,0.0,0.0,0.0,0.0,0.0,0.0,0.0,0.0,0.0,0.0,0.0,0.0,0.0,0.0,0.0,0.0,0.0,0.0,0.0,0.0,0.0,0.0,0.0,0.0,0.0,0.0,0.0,0.0,0.0,0.0,0.0,0.0,0.0,0.0,0.0,0.0,0.0,0.0,0.0,0.0,0.0,0.0,0.0,0.0,0.0,0.0,0.0,0.0,0.0,0.0,0.0,0.0,0.0,0.0,0.0,0.0,0.0,0.0,0.0,0.0,0.0,0.0,0.0,0.0,0.0,0.0,0.0,0.0,0.0,0.0,0.0,0.0,0.0,0.0,0.0,0.0,0.0,0.0,0.0,0.0,0.0,0.0,0.0,0.0,0.0,0.0,0.0,0.0,0.0,0.0,0.0,0.0,0.0,0.0,0.0,0.0,0.0,0.0,0.0,0.0,0.0,0.0,0.0,0.0,0.0,0.0,0.0,0.0,0.0,0.0,0.0,0.0,0.0,0.0,0.0,0.0,0.0,0.0,0.0,0.0,0.0,0.0,0.0,0.0,0.0,0.0,0.0,0.0,0.0,0.0,0.0,0.0,0.0,0.0,0.0,0.0,0.0,0.0,0.0,0.0,0.0,0.0,0.0,0.0,0.0,0.0,0.0,0.0,0.0,0.0,0.0,0.0,0.0,0.0,0.0,0.0,0.0,0.0,0.0,0.0,0.0,0.0,0.0,0.0,0.0,0.0,0.0,0.0,0.0,0.0,0.0,0.0,0.0,0.0,0.0,0.0,0.0,0.0,0.0,0.0,0.0,0.0,0.0,0.0,0.0,0.0,0.0,0.0,0.0,0.0,0.0,0.0,0.0,0.0,0.0,0.0,0.0,0.0,0.0,0.0,0.0,0.0,0.0,0.0,0.0,0.0,0.0,0.0,0.0,0.0,0.0,0.0,0.0,0.0,0.0,0.0,0.0,0.0,0.0,0.0,0.0,0.0,0.0,0.0,0.0,0.0,0.0,0.0,0.0,0.0,0.0,0.0,0.0,0.0,0.0,0.0,0.0,0.0,0.0,0.0,0.0,0.0,0.0,0.0,0.0,0.0,0.0,0.0,0.0,0.0,0.0,0.0,0.0,0.0,0.0,0.0,0.0,0.0,0.0,0.0,0.0,0.0,0.0,0.0,0.0,0.0,0.0,0.0,0.0,0.0,0.0,0.0,0.0,0.0,0.0,0.0,0.0,0.0,0.0,0.0,0.0,0.0,0.0,0.0,0.0,0.0,0.0,0.0,0.0,0.0,0.0,0.0,0.0,0.0,0.0,0.0,0.0,0.0,0.0,0.0,0.0,0.0,0.0,0.0,0.0,0.0,0.0,0.0,0.0,0.0,0.0,0.0,0.0,0.0,0.0,0.0,0.0,0.0,0.0,0.0,0.0,0.0,0.0,0.0,0.0,0.0,0.0,0.0,0.0,0.0,0.0,0.0,0.0,0.0,0.0,0.0,0.0,0.0,0.0,0.0,0.0,0.0,0.0,0.0,0.0,0.0,0.0,0.0,0.0,0.0,0.0,0.0,0.0,0.0,0.0,0.0,0.0,0.0,0.0,0.0,0.0,0.0,0.0,0.0,0.0,0.0,0.0,0.0,0.0,0.0,0.0,0.0,0.0,0.0,0.0,0.0,0.0,0.0,0.0,0.0,0.0,0.0,0.0,0.0,0.0,0.0,0.0,0.0,0.0,0.0,0.0,0.0,0.0,0.0,0.0,0.0,0.0,0.0,0.0,0.0,0.0,0.0,0.0,0.0,0.0,0.0,0.0,0.0,0.0,0.0,0.0,0.0,0.0,0.0,0.0,0.0,0.0,0.0,0.0,0.0,0.0,0.0,0.0,0.0,0.0,0.0,0.0,1.5618,0.0,0.0,0.0,0.0,0.0,0.0,0.0,0.0,0.0,0.0,0.0,0.0,0.0,0.0,0.0,0.0,0.0,0.0,0.0,0.0,0.0,0.0,0.0,0.0,1.5184,1.5025,1.4863,1.4667,1.4439,1.4208,0.0,0.0,0.0,0.0,0.0,1.4621,1.4689,1.4999,1.5584,1.5972,1.6673,1.7686,1.7193,1.671,1.6234,0.0,0.0,0.0,0.0,0.0,0.0,0.0,0.0,0.0,0.0,0.0,0.0,0.0,0.0,0.0,0.0,0.0,0.0,0.0,0.0,0.0,0.0,0.0,0.0,0.0,0.0,0.0,0.0,0.0,0.0,0.0,0.0,0.0,0.0,0.0,0.0,0.0,0.0,0.0,0.0,0.0,0.0,0.0,0.0,0.0,0.0,0.0,0.0,0.0,0.0,0.0,0.0,0.0,0.0,0.0,0.0,0.0,0.0,0.0,0.0,0.0,0.0,0.0,0.0,0.0,0.0,0.0,0.0,0.0,0.0,0.0,1.6383,0.0,0.0,0.0,0.0,0.0,0.0,0.0,0.0,0.0,0.0,0.0,0.0,0.0,0.0,0.0,0.0,0.0,0.0,0.0,0.0,0.0,1.5536,1.538,1.5328,1.5215,1.4986,1.4832,1.4701,1.4606,1.4315,1.4334,1.48,1.4746,1.4925,1.5424,1.5555,1.6003,1.6773,1.7745,1.8825,1.9995,1.9858,1.935,1.851,1.7516,0.0,0.0,0.0,0.0,0.0,0.0,0.0,0.0,0.0,0.0,0.0,0.0,0.0,0.0,0.0,0.0,0.0,0.0,0.0,0.0,0.0,0.0,0.0,0.0,0.0,0.0,0.0,0.0,0.0,0.0,0.0,0.0,0.0,0.0,0.0,0.0,0.0,0.0,0.0,0.0,0.0,0.0,0.0,0.0,0.0,0.0,0.0,0.0,0.0,0.0,0.0,0.0,0.0,0.0,0.0,0.0,0.0,0.0,0.0,0.0,0.0,0.0,0.0,0.0,1.8496,1.8557,1.8557,1.8781,1.9162,1.882,1.8644,1.8549,0.0,0.0,0.0,0.0,0.0,0.0,0.0,0.0,0.0,0.0,0.0,0.0,0.0,0.0,0.0,0.0,0.0,0.0,0.0,0.0,1.5595,1.5558,1.5403,1.529,1.5253,1.5017,1.5041,1.5419,1.5179,1.521,1.5616,1.5582,1.5795,1.6326,1.6453,1.7367,1.9067,2.0978,2.2059,2.2346,2.2211,2.2084,2.186,1.9545,1.8588,1.8655,0.0,0.0,0.0,0.0,0.0,0.0,0.0,0.0,0.0,0.0,0.0,0.0,0.0,0.0,0.0,0.0,0.0,0.0,0.0,0.0,0.0,0.0,0.0,0.0,0.0,0.0,0.0,0.0,0.0,0.0,0.0,0.0,0.0,0.0,0.0,0.0,0.0,0.0,0.0,0.0,0.0,1.5782,1.5371,0.0,0.0,0.0,0.0,0.0,0.0,0.0,0.0,0.0,0.0,0.0,0.0,0.0,0.0,1.9111,1.9482,1.964,1.9649,2.0068,2.043,2.0791,2.0791,2.1025,2.1455,2.1396,0.0,1.8588,1.8481,0.0,0.0,0.0,0.0,0.0,0.0,0.0,0.0,0.0,0.0,0.0,0.0,0.0,0.0,0.0,0.0,0.0,0.0,0.0,0.0,0.0,1.5853,1.6167,1.6518,1.6739,1.6916,1.6995,1.6791,1.6677,1.6701,1.6729,1.7139,1.7943,1.8505,1.9734,2.1688,2.3066,2.3998,2.4555,2.4667,2.4734,2.4693,2.3331,2.1848,2.0319,1.9853,0.0,0.0,0.0,0.0,0.0,0.0,0.0,0.0,0.0,0.0,0.0,0.0,0.0,0.0,0.0,0.0,0.0,0.0,0.0,0.0,0.0,0.0,0.0,0.0,0.0,0.0,0.0,0.0,0.0,0.0,0.0,0.0,0.0,0.0,0.0,0.0,0.0,0.0,0.0,1.629,1.6656,1.6196,1.6557,1.6664,0.0,0.0,0.0,0.0,0.0,0.0,0.0,0.0,0.0,1.9308,1.959,2.0049,2.0742,2.0928,2.1025,2.1025,2.1241,2.1406,2.1581,2.1581,2.1709,2.1905,2.1905,2.1348,2.043,1.9922,1.952,1.9139,0.0,0.0,0.0,0.0,0.0,1.8533,0.0,0.0,0.0,0.0,0.0,0.0,0.0,0.0,0.0,0.0,0.0,0.0,1.5891,1.6619,1.7293,1.7747,1.8331,1.8584,1.8363,1.8199,1.8053,1.7969,1.8097,1.859,1.9496,2.0854,2.2475,2.4347,2.525,2.6054,2.6714,2.6944,2.7039,2.704,2.6687,2.4998,2.2361,2.2025,2.1212,0.0,0.0,0.0,0.0,0.0,0.0,0.0,0.0,0.0,0.0,0.0,0.0,0.0,0.0,0.0,0.0,0.0,0.0,0.0,0.0,0.0,0.0,0.0,0.0,0.0,0.0,0.0,0.0,0.0,0.0,0.0,0.0,0.0,0.0,0.0,0.0,0.0,0.0,1.7288,1.7704,1.7305,1.785,1.7971,0.0,0.0,0.0,0.0,0.0,0.0,1.8801,1.9095,1.963,2.04,2.0752,2.129,2.2041,2.2041,2.21,2.2207,2.2207,2.2266,2.2394,2.2394,2.2432,2.2539,2.2539,2.2539,2.2451,2.1378,2.0859,2.0693,2.0039,1.9717,1.9647,1.9746,1.9785,1.9853,0.0,0.0,0.0,0.0,0.0,0.0,0.0,0.0,0.0,0.0,0.0,1.6651,1.6651,1.7761,1.8518,1.854,1.9093,1.9332,1.9076,1.8977,1.9104,1.947,1.9619,1.999,2.0604,2.3276,2.5408,2.6916,2.8097,2.8783,2.8936,2.8828,2.8759,2.8773,2.8619,2.7272,2.5031,2.4077,2.3335,2.2663,0.0,0.0,0.0,0.0,0.0,0.0,0.0,0.0,0.0,0.0,0.0,0.0,0.0,0.0,0.0,0.0,0.0,0.0,0.0,0.0,0.0,0.0,0.0,0.0,0.0,0.0,0.0,0.0,0.0,0.0,0.0,0.0,0.0,0.0,0.0,0.0,0.0,0.0,0.0,1.8815,1.8882,0.0,0.0,0.0,0.0,1.9178,1.958,2.0166,2.0986,2.1054,2.1298,2.1788,2.1827,2.2031,2.248,2.248,2.2664,2.3033,2.3033,2.3269,2.3691,2.3691,2.3916,2.4264,2.4264,2.4264,2.4137,2.25,2.1572,2.1181,2.1112,2.0879,2.0566,2.0957,2.1093,2.1181,0.0,0.0,0.0,0.0,0.0,1.5799,1.5799,1.5799,1.5799,1.5799,1.6323,1.6868,1.7294,1.8512,1.9663,2.0529,2.1197,2.1669,2.1916,2.1506,2.1297,2.1405,2.1484,2.2427,2.432,2.6107,2.7535,2.8582,2.9401,2.9872,3.0011,3.0316,3.0451,3.0437,3.0308,2.9605,2.8451,2.7399,2.6308,2.5164,2.4071,2.2613,0.0,0.0,0.0,0.0,0.0,0.0,0.0,0.0,0.0,0.0,0.0,0.0,0.0,0.0,0.0,0.0,0.0,0.0,0.0,0.0,0.0,0.0,0.0,0.0,0.0,0.0,0.0,0.0,0.0,0.0,0.0,0.0,0.0,0.0,0.0,0.0,0.0,1.9589,1.9948,0.0,0.0,2.008,2.0333,2.0932,2.1224,2.1708,2.2458,2.2362,2.2625,2.3357,2.3202,2.331,2.3718,2.3718,2.3796,2.3942,2.4248,2.4463,2.4642,2.4912,2.5103,2.524,2.524,2.524,2.5171,2.4307,2.3516,2.2852,2.2578,2.2373,2.2225,2.236,2.244,2.25,0.0,0.0,0.0,0.0,1.5799,1.5799,1.5799,1.5799,1.5866,1.6076,1.6846,1.7631,1.8305,1.9765,2.107,2.1959,2.2842,2.3283,2.3171,2.316,2.3028,2.2728,2.3433,2.4971,2.7435,2.8263,2.9138,3.0113,3.0502,3.0753,3.0852,3.12,3.138,3.1365,3.1278,3.1041,3.0667,2.9952,2.8774,2.7305,2.6522,2.5127,2.337,0.0,0.0,0.0,0.0,0.0,0.0,0.0,0.0,0.0,0.0,0.0,0.0,0.0,0.0,0.0,0.0,0.0,0.0,0.0,0.0,0.0,0.0,0.0,0.0,0.0,0.0,0.0,0.0,0.0,0.0,0.0,0.0,0.0,0.0,0.0,2.1055,2.0896,2.139,2.1774,2.1806,2.1949,2.2199,2.2574,2.3,2.3444,2.3867,2.3921,2.4291,2.5017,2.4879,2.5035,2.5625,2.5507,2.5563,2.5722,2.5817,2.5883,2.5868,2.606,2.6147,2.6147,2.6147,2.6147,2.6118,2.585,2.5391,2.4795,2.3948,2.3584,2.3542,2.3542,2.3574,2.3606,0.0,0.0,0.0,1.5791,1.5791,1.5791,1.5791,1.5799,1.6024,1.6614,1.7878,1.8957,1.9654,2.1505,2.2728,2.2763,2.3883,2.4037,2.2714,2.3822,2.4219,2.3467,2.539,2.7476,2.9578,2.9638,3.0268,3.1525,3.1525,3.154,3.157,3.157,3.157,3.157,3.157,3.157,3.157,3.157,3.0652,2.9127,2.8232,2.7614,2.7086,0.0,0.0,0.0,0.0,0.0,0.0,0.0,0.0,0.0,0.0,0.0,0.0,0.0,0.0,0.0,0.0,0.0,0.0,0.0,0.0,0.0,0.0,0.0,0.0,0.0,0.0,0.0,0.0,0.0,0.0,0.0,0.0,0.0,2.1645,2.2,2.2517,2.2857,2.3248,2.3541,2.3707,2.4111,2.4313,2.4148,2.4898,2.5396,2.5429,2.5877,2.6324,2.6785,2.6806,2.7199,2.8036,2.7809,2.7897,2.8338,2.7768,2.7499,2.7509,2.7259,2.7141,2.7141,2.7141,2.7141,2.7141,2.7131,2.7121,2.691,2.5166,2.4469,2.4469,2.4469,2.4469,2.4469,0.0,0.0,1.5639,1.5595,1.5617,1.5646,1.5646,1.5741,1.6024,1.6614,1.7878,1.9142,2.0294,2.1794,2.3067,2.4003,2.4395,2.4847,2.543,2.537,2.5627,2.6392,2.791,2.9194,3.0223,3.0732,3.139,3.2228,3.2228,3.2467,3.2961,3.2961,3.2961,3.2961,3.2961,3.2961,3.2961,3.2961,3.2408,3.1454,3.0138,2.9022,2.8037,0.0,0.0,0.0,0.0,0.0,0.0,0.0,0.0,0.0,0.0,0.0,0.0,0.0,0.0,0.0,0.0,0.0,0.0,0.0,0.0,0.0,0.0,0.0,0.0,0.0,0.0,0.0,0.0,0.0,0.0,0.0,0.0,2.4277,2.3417,2.3854,2.4501,2.5131,2.5333,2.5633,2.6156,2.6103,2.63,2.694,2.7227,2.7706,2.8373,2.8547,2.8827,2.9304,2.8927,2.8837,2.9102,2.9345,2.9452,2.9398,2.9922,3.0061,2.9871,3.0093,3.0183,3.0183,3.0183,3.0183,3.0162,2.9872,2.9535,2.8976,2.7046,2.6299,2.6299,2.6299,2.6299,2.6299,0.0,1.5602,1.558,1.5507,1.5536,1.5566,1.5566,1.5646,1.6137,1.7337,1.8437,1.9744,2.1365,2.2468,2.349,2.4515,2.4859,2.5349,2.6123,2.6333,2.7153,2.874,2.9563,3.0268,3.0912,3.1585,3.2108,3.2497,3.2781,3.3125,3.3499,3.3499,3.3499,3.3499,3.3499,3.3499,3.3499,3.3499,3.3275,3.2826,3.1692,3.0599,2.9592,2.8823,2.7654,2.6371,2.5824,2.4765,2.358,2.3056,0.0,0.0,0.0,0.0,0.0,0.0,0.0,0.0,0.0,0.0,0.0,0.0,0.0,0.0,0.0,0.0,0.0,0.0,0.0,0.0,0.0,0.0,0.0,0.0,2.5768,2.6407,2.6219,2.6186,2.6415,2.7076,2.7387,2.7824,2.8558,2.8648,2.8948,2.9629,2.992,3.0285,3.0824,3.106,3.1417,3.1878,3.1811,3.1875,3.2099,3.2114,3.2042,3.19,3.1946,3.1907,3.1769,3.1775,3.1793,0.0,3.1793,3.1793,3.1772,3.1509,3.1236,0.0,0.0,0.0,0.0,0.0,2.7114,2.6986,0.0,1.5595,1.5566,1.5492,1.5477,1.5485,1.5485,1.5617,1.6411,1.8346,1.931,2.0546,2.2478,2.3246,2.3898,2.4649,2.5259,2.5693,2.5917,2.7183,2.8695,3.0418,3.0568,3.0927,3.16,3.2198,3.2572,3.2721,3.332,3.3649,3.3724,3.3724,3.3724,3.3724,3.3724,3.3724,3.3724,3.3724,3.3679,3.3559,3.2976,3.2199,3.1337,3.054,2.9521,2.8412,2.757,2.6297,2.5002,2.472,0.0,0.0,0.0,0.0,0.0,0.0,0.0,0.0,0.0,0.0,0.0,0.0,0.0,0.0,0.0,0.0,0.0,0.0,0.0,0.0,0.0,0.0,0.0,0.0,2.7459,2.8781,2.9354,2.8839,2.8542,2.8935,2.9435,3.0046,3.0853,3.1362,3.1798,3.2114,3.2604,3.2912,3.2924,0.0,0.0,0.0,0.0,3.5303,3.5799,3.5319,3.5057,3.5005,3.4053,3.3581,3.3528,3.3057,3.2825,3.2825,3.2825,3.2825,3.2825,3.2825,3.2766,3.2432,3.0198,2.9034,2.8574,2.7978,2.7578,0.0,0.0,1.5529,1.5477,1.5358,1.5381,1.5418,1.5418,1.5987,1.6923,1.8406,1.9704,2.1066,2.2538,2.3246,2.4088,2.5304,2.5528,2.6288,2.7919,2.922,3.0103,3.0478,3.1031,3.1615,3.2288,3.2437,3.3036,3.4113,3.4233,3.4578,3.5115,3.5115,3.5115,3.5115,3.5115,3.5115,3.5115,3.5115,3.4801,3.4293,3.4158,3.3318,3.2035,3.1337,3.0588,2.9878,2.9584,2.8453,2.702,2.626,2.5236,2.4187,2.3588,0.0,0.0,0.0,0.0,0.0,0.0,0.0,0.0,0.0,0.0,0.0,0.0,0.0,0.0,0.0,0.0,0.0,0.0,0.0,0.0,2.8138,2.8969,2.987,3.0833,3.1597,3.1867,3.1343,3.1594,3.2108,3.286,3.3121,3.3339,3.3584,3.4335,3.4847,3.5014,3.5782,0.0,3.6362,3.6258,3.6228,3.6336,3.6601,3.6635,3.6412,0.0,0.0,3.6325,3.6217,3.6164,3.6164,3.6164,3.6164,3.6164,3.6164,3.5654,3.4644,3.2207,3.1062,3.0731,3.011,2.9684,2.9384,0.0,1.5536,1.5514,1.5366,1.5388,1.5389,1.5351,1.6029,1.7024,1.8367,1.9513,2.0707,2.2049,2.2468,2.3176,2.4492,2.5836,2.7168,2.8517,2.9789,3.0657,3.0987,3.1316,3.1809,3.2482,3.2841,3.3484,3.4503,3.4832,3.516,3.5504,3.5504,3.5504,3.5504,3.5504,3.5504,3.5504,3.5504,3.531,3.4982,3.4637,3.4052,3.3287,3.2273,3.1442,3.0777,3.0613,2.9778,2.8669,2.8056,2.7023,2.5935,2.5489,2.4893,2.4302,0.0,0.0,0.0,0.0,0.0,0.0,0.0,0.0,0.0,0.0,0.0,0.0,0.0,0.0,2.6218,0.0,0.0,2.8455,2.9572,3.0708,3.1645,3.2185,3.3194,3.3539,3.2605,3.3121,3.3787,3.4437,3.4825,3.52,3.5554,3.6254,3.6701,3.681,3.7506,3.7914,3.7914,3.8035,3.8106,3.8106,3.8197,3.8189,3.8033,3.7973,3.7882,3.7749,3.7616,3.7563,3.7563,3.7563,3.7563,3.7563,3.7563,3.7237,3.6617,3.5056,3.348,3.1972,3.1374,3.0873,3.0414,0.0,1.5507,1.55,1.5388,1.5366,1.5359,1.5298,1.6085,1.7123,1.8342,1.9316,2.0357,2.156,2.1695,2.2203,2.349,2.6165,2.8021,2.8562,2.9924,3.0942,3.1481,3.1511,3.1809,3.2482,3.3155,3.3829,3.4503,3.516,3.5504,3.5504,3.5504,3.5504,3.5504,3.5504,3.5504,3.5504,3.5504,3.5504,3.5459,3.4922,3.4623,3.4384,3.3155,3.2184,3.1471,3.1161,3.0568,2.9839,2.9482,2.861,2.7606,2.7386,2.6628,2.5711,2.5121,2.4954,0.0,0.0,0.0,0.0,0.0,0.0,0.0,0.0,0.0,2.5925,2.5925,2.657,2.7417,2.8273,2.8944,2.976,3.0889,3.2215,3.3178,3.3391,3.4226,3.4577,3.3831,3.45,3.523,3.5782,3.6358,3.6884,3.7336,3.7864,3.8165,3.8165,3.8743,3.9057,3.9057,3.9459,3.9697,3.9697,3.9478,3.9374,3.9374,3.8893,3.8657,3.8657,3.8435,3.833,3.833,3.833,3.833,3.833,3.833,3.8303,3.8198,3.764,3.5898,3.3623,3.2662,3.1973,3.1388,0.0,1.5335,1.5313,1.5238,1.5261,1.5298,1.5222,1.6441,1.7661,1.8401,1.9715,2.0862,2.163,2.1695,2.2203,2.349,2.6602,2.8517,2.8607,3.0345,3.1421,3.1511,3.1511,3.1809,3.2482,3.3155,3.3829,3.4503,3.516,3.5504,3.5504,3.5504,3.5504,3.5504,3.5504,3.5504,3.5504,3.5504,3.5504,3.5489,3.5429,3.5026,3.4429,3.3664,3.2885,3.2109,3.1486,3.0836,3.0175,2.9716,2.8949,2.8105,2.749,2.6964,2.6443,2.5724,0.0,2.5498,2.5435,2.546,2.5511,2.5511,2.5511,2.5511,0.0,0.0,2.711,2.711,2.8354,2.9484,2.9578,3.0432,3.1486,3.2638,3.2977,3.342,3.4377,3.5019,3.5556,3.5979,3.613,3.6419,3.6972,3.75,3.7852,3.7914,3.8442,3.8806,3.8806,3.9321,3.9597,3.9597,3.9659,3.9697,3.9697,3.9671,3.9671,3.9659,3.9594,3.9555,3.9555,3.9504,3.9504,3.9504,3.9504,3.9504,3.9504,3.9504,3.9374,3.9128,3.8762,3.8125,3.7145,3.4995,3.3815,3.3152,0.0,0.0,1.4986,1.4925,1.5124,1.5283,1.5215,1.6514,1.7594,1.7882,1.9194,2.0213,2.0507,2.0887,2.15,2.2413,2.5166,2.7186,2.7961,2.9849,3.1091,3.1481,3.1511,3.1809,3.2482,3.2766,3.344,3.4503,3.4772,3.5115,3.5504,3.5504,3.5504,3.5504,3.5504,3.5504,3.5504,3.5504,3.5504,3.5504,3.5504,3.51,3.4444,3.3754,3.305,3.2288,3.1214,3.0497,0.0,0.0,2.8674,2.7843,2.7518,2.6868,2.6147,2.5711,2.5598,0.0,2.603,2.6356,0.0,0.0,2.6816,2.7055,2.7055,2.7934,2.875,2.875,2.9811,3.0841,3.1148,3.1838,3.265,0.0,3.4098,3.4653,3.5117,3.5932,3.6584,3.6833,3.7449,3.7801,3.7676,3.8178,3.8529,3.8529,3.9057,3.9371,3.9371,3.9572,3.9697,3.9697,3.9697,3.9697,3.9697,3.9697,3.9697,3.9697,3.9697,3.9697,3.9697,3.9697,3.9697,3.9697,3.9697,3.9697,3.9697,3.9697,3.9633,3.9504,3.9218,3.8945,3.8514,3.6514,3.5394,3.4719,0.0,0.0,0.0,1.4604,1.4909,1.5155,1.5155,1.6483,1.7505,1.7505,1.8786,1.9708,1.9708,2.0303,2.0967,2.1635,2.3913,2.5899,2.724,2.9159,3.0552,3.1197,3.1406,3.1735,3.2213,3.2407,3.2976,3.3949,3.4323,3.4742,3.5235,3.5415,3.5504,3.5504,3.5504,3.5504,3.5504,3.5504,3.5504,3.5473,3.5295,3.4937,3.4398,3.3544,3.2811,3.2078,3.0912,3.0269,0.0,0.0,2.8245,2.7441,2.7133,2.6423,2.5744,2.5833,2.605,2.6339,2.665,0.0,0.0,2.7507,2.7921,2.8355,2.8536,2.9327,3.0055,3.0206,3.0992,3.1788,3.2353,3.2939,0.0,3.4236,3.4981,3.5608,3.5932,3.6684,3.7323,3.7637,3.8404,3.8793,3.8504,3.8843,3.912,3.912,3.9471,3.9697,3.9697,3.9697,3.9697,3.9697,3.9697,3.9697,3.9697,3.9697,3.9697,3.9697,3.9697,3.9697,3.9697,3.9697,3.9697,3.9697,3.9697,3.9697,3.9697,3.9697,3.9697,3.9685,3.9478,3.94,3.9258,3.7906,3.6866,3.5986,0.0,0.0,0.0,0.0,1.4596,1.4856,1.499,1.6429,1.7505,1.7505,1.8786,1.9708,1.9708,2.0303,2.0967,2.1635,2.3509,2.5199,2.6539,2.85,2.9892,3.0507,3.1152,3.1511,3.1525,3.2168,3.2527,3.2557,3.3859,3.4503,3.4533,3.519,3.5504,3.5504,3.5504,3.5504,3.5504,3.5504,3.5504,3.5444,3.4787,3.4518,3.4369,3.3036,3.2108,3.1436,3.0747,0.0,0.0,2.8656,2.7778,2.7056,2.6146,2.5615,0.0,2.6249,2.7211,2.7908,0.0,0.0,2.8084,2.8084,2.848,2.9032,2.9616,3.0181,3.0713,3.1235,3.1788,3.2365,3.2964,3.3508,3.4223,3.527,3.547,3.5895,3.6985,3.7185,3.7612,3.8718,3.8881,3.9107,0.0,3.9659,3.9672,3.9672,3.9685,3.9697,3.9697,3.9697,3.9697,3.9697,3.9697,3.9697,3.9697,3.9697,3.9697,3.9697,3.9697,3.9697,3.9697,3.9697,3.9697,3.9697,3.9697,3.9697,3.9697,3.9697,3.9697,3.9697,3.9697,3.9697,3.9645,3.9348,3.8305,3.6842,0.0,0.0,0.0,0.0,0.0,1.4818,1.5087,1.6483,1.753,1.7558,1.8806,0.0,0.0,0.0,0.0,0.0,2.2697,2.4073,2.5824,2.7393,2.8768,2.9862,3.0507,3.1032,3.1496,3.172,3.2049,3.2497,3.2961,3.3395,3.3844,3.4068,3.4173,3.4173,3.4173,3.4173,3.4173,3.4173,3.4173,3.4143,3.3934,3.3559,3.308,3.2183,3.1363,3.0562,0.0,0.0,2.8525,2.7794,2.6959,2.6212,2.5897,2.551,2.5332,2.6227,2.7014,2.7613,2.777,0.0,2.8731,2.9126,2.9641,3.0161,3.0733,3.1286,3.1704,3.1901,3.239,3.2864,3.3065,3.3822,3.454,3.4916,3.5895,3.6759,3.716,3.7851,3.8467,3.8856,3.922,0.0,0.0,0.0,0.0,3.9697,3.9697,3.9697,3.9697,3.9697,3.9697,3.9697,3.9697,3.9697,3.9697,3.9697,3.9697,3.9697,3.9697,3.9697,3.9697,3.9697,3.9697,3.9697,3.9697,3.9697,3.9697,3.9697,3.9697,3.9697,3.9697,3.9697,3.9671,3.94,3.8985,3.8423,0.0,0.0,0.0,0.0,0.0,0.0,0.0,0.0,0.0,0.0,0.0,0.0,0.0,0.0,0.0,0.0,0.0,2.3067,2.4765,2.615,2.7378,2.8485,2.9355,3.0015,3.0449,3.0702,3.1031,3.1465,3.1914,3.2362,3.2796,3.3275,3.3499,3.3499,3.3499,3.3499,3.3499,3.3499,3.3365,3.3125,3.2871,3.2377,3.1704,3.1076,3.032,0.0,0.0,0.0,2.7264,2.6926,2.6356,2.5806,2.577,2.5955,2.6219,2.6433,2.7304,2.8278,2.8612,2.9095,2.9647,3.0231,3.0633,3.1035,3.1562,3.1951,3.2307,3.2708,3.2955,3.3228,3.3596,3.4248,3.4828,3.524,3.6358,3.7349,3.7751,3.8441,3.8969,3.917,3.9484,0.0,0.0,0.0,0.0,3.9697,3.9697,3.9697,3.9697,3.9697,3.9697,3.9697,3.9697,3.9697,3.9697,3.9885,4.0086,4.0275,4.0275,4.0275,4.0275,4.0275,4.0275,4.0275,4.0275,4.0174,3.9986,3.9986,3.9873,3.9697,3.9697,3.9697,3.9671,3.9504,3.9452,3.9322,0.0,0.0,0.0,0.0,0.0,0.0,0.0,0.0,0.0,0.0,0.0,0.0,0.0,0.0,0.0,0.0,0.0,0.0,2.3475,2.481,2.5854,2.6524,2.7799,2.8532,2.8607,2.9219,2.9577,2.9593,3.0807,3.1406,3.1436,3.2706,3.329,3.329,3.329,3.329,3.329,3.329,3.2931,3.2303,3.166,3.1031,3.0373,2.9759,0.0,0.0,0.0,0.0,0.0,2.6124,2.5952,2.5784,2.5758,2.682,2.7871,2.6914,2.8128,2.9804,2.9829,3.0231,3.0783,3.1298,3.1436,3.1574,3.2127,3.2256,3.2604,3.3684,3.3504,3.3454,0.0,0.0,3.5004,3.613,3.6808,3.76,3.8705,3.8906,3.9132,0.0,0.0,0.0,0.0,0.0,0.0,3.9697,0.0,3.9697,3.9697,3.9697,3.9697,3.9697,3.9722,3.9735,3.9735,4.0261,4.08,4.1315,4.1315,4.1315,4.1315,4.1315,4.1315,4.1315,4.1315,4.1014,4.0537,4.0537,4.0211,3.9735,3.9735,3.9722,3.9697,3.9697,3.9697,3.9581,0.0,0.0,0.0,0.0,0.0,0.0,0.0,0.0,0.0,0.0,0.0,0.0,0.0,0.0,0.0,0.0,0.0,0.0,2.2882,2.4137,2.5143,2.5839,2.6662,2.7575,2.8577,2.8771,2.9099,2.9593,2.9937,3.0073,3.0088,3.0431,3.0596,3.0596,3.0596,3.0596,3.0596,3.0596,3.0491,3.0313,0.0,2.9927,2.9606,0.0,0.0,0.0,0.0,0.0,0.0,0.0,0.0,0.0,0.0,2.6859,2.7613,2.8134,2.9013,2.988,3.0294,3.0796,3.1323,3.1863,3.2001,3.2152,3.2751,3.3169,3.3558,3.3847,3.3784,3.3771,0.0,0.0,0.0,3.5027,3.6295,0.0,3.8128,3.8956,0.0,0.0,0.0,3.9697,3.9697,3.9697,0.0,0.0,3.9697,3.9697,3.9697,3.9697,3.9697,3.9697,4.0086,4.0312,4.0312,4.0826,4.1177,4.1315,4.1315,4.1315,4.1315,4.1315,4.1315,4.1315,4.1315,4.1227,4.1102,4.1102,4.0775,4.0312,4.0312,4.0061,3.9697,3.9697,3.9697,3.9671,0.0,0.0,0.0,0.0,0.0,0.0,0.0,0.0,0.0,0.0,0.0,0.0,0.0,0.0,0.0,0.0,0.0,0.0,0.0,2.3206,2.4059,2.4691,2.5364,2.6201,2.726,2.7575,2.8051,2.8723,2.9024,2.9159,2.9174,2.9458,2.9593,2.9593,2.9593,2.9593,2.9593,2.9593,0.0,0.0,0.0,0.0,0.0,0.0,0.0,0.0,0.0,0.0,0.0,0.0,0.0,2.6319,2.6712,2.755,2.8461,2.8806,0.0,3.0269,3.0809,3.1348,3.1888,3.2453,3.2591,3.2679,3.3027,3.3341,3.363,3.3847,3.3709,0.0,0.0,0.0,0.0,0.0,0.0,0.0,3.8605,3.9295,3.9697,0.0,3.9697,0.0,3.9697,3.9697,3.9697,0.0,3.9697,3.9697,3.9697,3.9697,3.9798,4.0049,4.035,4.0752,4.1229,4.1543,4.1819,4.2057,4.2057,4.2057,4.2057,4.2057,4.2057,4.2057,0.0,4.1919,4.1693,4.1693,4.1352,4.0851,4.0851,4.0512,4.0061,4.0061,3.9898,3.9697,0.0,0.0,0.0,0.0,0.0,0.0,0.0,0.0,0.0,0.0,1.9424,0.0,0.0,0.0,0.0,0.0,0.0,0.0,0.0,0.0,0.0,2.3565,2.4167,2.4784,2.5453,2.6123,0.0,0.0,0.0,0.0,2.8472,2.9054,2.9324,2.9324,0.0,0.0,0.0,0.0,0.0,0.0,0.0,0.0,0.0,0.0,0.0,0.0,0.0,0.0,0.0,0.0,2.6096,2.7165,2.7352,2.8517,2.9691,2.917,2.9822,3.0821,3.1273,3.1851,3.2453,3.2977,3.3102,3.3102,3.3102,3.3153,3.3341,3.3796,0.0,3.3354,3.3809,3.3897,3.4387,3.5929,0.0,3.7663,3.9245,3.9534,3.9609,3.9685,3.9697,3.9697,3.9697,3.9697,3.9697,3.9697,3.9697,3.9697,3.9697,3.976,4.0086,4.0714,4.0739,4.1229,4.2313,4.2313,4.2524,4.3002,4.3002,4.3002,4.3002,4.3002,4.3002,4.3002,0.0,0.0,4.2313,4.2313,4.1972,4.1415,4.1415,4.1089,4.06,4.06,4.0275,3.9798,0.0,0.0,0.0,0.0,0.0,0.0,0.0,0.0,0.0,0.0,1.8992,1.9593,0.0,0.0,0.0,0.0,0.0,0.0,0.0,0.0,0.0,0.0,2.3714,2.4092,0.0,0.0,0.0,0.0,0.0,0.0,2.7779,2.7884,0.0,0.0,0.0,0.0,0.0,0.0,0.0,0.0,0.0,0.0,0.0,0.0,0.0,0.0,0.0,0.0,0.0,0.0,2.5817,2.6921,2.7717,2.8812,2.9779,2.9666,3.0407,3.1273,3.1361,3.216,3.2977,3.3077,3.3102,3.3102,3.3102,3.3454,0.0,0.0,0.0,3.3784,3.3884,3.3897,3.4135,3.4889,0.0,0.0,0.0,0.0,3.9208,0.0,0.0,0.0,0.0,0.0,0.0,0.0,0.0,0.0,3.9697,4.0124,4.084,4.1858,4.1896,4.221,4.2851,4.2864,4.2914,4.3002,4.3002,4.3002,4.3002,4.3002,4.3002,4.3002,0.0,0.0,4.2864,4.2864,4.2537,4.2034,4.2034,4.1681,4.1177,4.1177,4.0826,4.0349,0.0,0.0,0.0,0.0,0.0,0.0,0.0,1.5678,1.6565,1.7328,1.8269,1.9017,1.9402,1.9505,1.9578,0.0,0.0,0.0,0.0,0.0,0.0,0.0,0.0,0.0,0.0,0.0,0.0,0.0,0.0,0.0,0.0,0.0,0.0,0.0,0.0,0.0,0.0,0.0,0.0,0.0,0.0,0.0,0.0,0.0,0.0,0.0,0.0,0.0,0.0,0.0,2.5207,2.632,2.7354,2.8649,2.9729,2.9428,3.0319,3.1406,3.1406,3.2236,3.3102,3.3102,3.3102,3.3102,3.3102,0.0,0.0,0.0,0.0,3.347,3.347,0.0,0.0,0.0,0.0,0.0,0.0,0.0,0.0,0.0,0.0,0.0,0.0,0.0,0.0,0.0,0.0,0.0,4.0111,4.0915,4.1645,4.2187,4.2462,4.2738,4.3002,4.3002,4.3002,4.3002,4.3002,4.3002,4.3002,4.3002,4.3002,4.3002,4.3002,0.0,4.3002,4.3002,4.2851,4.2612,4.2612,4.2273,4.1769,4.1769,4.1417,4.0913,0.0,0.0,0.0,0.0,0.0,0.0,1.426,1.5106,1.6016,1.6812,1.7617,1.8395,1.9146,1.933,1.9455,0.0,0.0,0.0,0.0,0.0,0.0,0.0,0.0,0.0,0.0,0.0,0.0,0.0,0.0,0.0,0.0,0.0,0.0,0.0,0.0,0.0,0.0,0.0,0.0,0.0,0.0,0.0,0.0,0.0,0.0,0.0,0.0,0.0,0.0,0.0,2.4707,2.5766,2.6658,2.809,2.9365,2.9007,2.9998,3.1248,3.1381,3.2236,3.3102,3.3102,3.3102,3.3065,3.2939,3.3014,0.0,0.0,3.3014,3.3102,3.3102,0.0,0.0,0.0,0.0,0.0,0.0,0.0,0.0,0.0,0.0,0.0,0.0,0.0,0.0,0.0,0.0,0.0,4.065,4.1645,4.2235,4.2389,4.2776,4.3002,4.3002,4.3002,4.3002,4.3002,4.3002,4.3002,4.3002,4.3002,4.3002,4.3002,4.3002,0.0,0.0,4.3002,4.3002,4.3002,4.3002,4.2738,4.2389,4.2389,4.2009,4.149,0.0,0.0,0.0,0.0,0.0,0.0,1.4219,1.496,1.5786,1.6531,1.7351,1.8141,1.894,1.9252,1.9455,0.0,0.0,0.0,0.0,0.0,0.0,0.0,0.0,0.0,0.0,0.0,0.0,0.0,0.0,0.0,0.0,0.0,0.0,0.0,0.0,0.0,0.0,0.0,0.0,0.0,0.0,0.0,0.0,0.0,0.0,0.0,0.0,0.0,0.0,0.0,0.0,2.5611,2.5711,2.6904,2.8348,2.8781,0.0,0.0,3.126,3.2236,3.3102,3.3102,3.3102,3.2964,3.2416,0.0,0.0,3.2403,3.2717,3.3102,3.3102,0.0,0.0,0.0,0.0,3.6171,0.0,0.0,0.0,0.0,0.0,0.0,0.0,0.0,0.0,0.0,0.0,0.0,0.0,4.1858,4.2411,4.2914,4.2977,4.3002,4.3002,4.3002,4.3002,4.3002,4.3002,4.3002,4.3002,4.3002,4.3002,4.3002,0.0,0.0,0.0,4.3002,4.3002,4.3002,4.3002,4.2977,4.2926,4.2926,4.2575,4.211,0.0,0.0,0.0,0.0,0.0,0.0,1.4276,1.4685,1.5243,1.5855,1.667,1.7493,1.8243,1.8865,1.9274,1.9404,0.0,0.0,0.0,0.0,0.0,0.0,0.0,0.0,0.0,0.0,0.0,0.0,0.0,0.0,0.0,0.0,0.0,0.0,0.0,0.0,0.0,0.0,0.0,0.0,0.0,0.0,0.0,0.0,0.0,0.0,0.0,0.0,0.0,0.0,0.0,0.0,2.5498,2.6319,0.0,0.0,2.9446,3.0733,3.1248,3.2236,3.3102,3.3102,3.3102,3.2939,3.234,0.0,3.2939,3.2307,3.2667,3.3102,3.3102,3.3533,0.0,0.0,0.0,0.0,0.0,0.0,0.0,0.0,0.0,0.0,0.0,0.0,0.0,0.0,0.0,0.0,0.0,4.2374,4.2776,4.3002,4.3002,4.3002,4.3002,4.3002,4.3002,4.3002,4.3002,4.3002,4.3002,4.3002,4.3002,4.3002,0.0,0.0,0.0,4.3002,4.3002,4.3002,4.3002,4.3002,4.3002,4.3002,4.2864,4.2675,0.0,0.0,0.0,0.0,0.0,1.4509,1.4437,1.4588,1.4892,1.543,1.6238,1.7041,1.7789,1.8613,1.912,1.92,1.9265,0.0,0.0,0.0,0.0,0.0,0.0,0.0,0.0,0.0,0.0,0.0,0.0,0.0,0.0,0.0,0.0,0.0,0.0,0.0,0.0,0.0,0.0,0.0,0.0,0.0,0.0,0.0,0.0,0.0,0.0,0.0,0.0,0.0,0.0,0.0,0.0,0.0,0.0,0.0,2.9176,3.052,3.1198,3.2236,3.3102,3.3102,3.2977,3.2667,0.0,0.0,3.2487,3.2051,3.2428,3.2889,3.3065,3.3416,3.3884,3.459,3.5144,3.6045,3.755,0.0,0.0,0.0,0.0,0.0,0.0,0.0,0.0,0.0,0.0,0.0,0.0,4.2788,4.3002,4.3002,4.3002,4.3002,4.3002,4.3002,4.3002,4.3002,4.3002,4.3002,4.3002,4.3002,4.3002,4.3002,0.0,0.0,0.0,4.3002,4.3002,4.3002,4.3002,4.3002,4.3002,4.3002,4.3002,4.3002,0.0,0.0,0.0,0.0,0.0,0.0,1.4714,1.4706,1.4892,1.543,1.6204,1.6985,1.7718,1.8581,1.9078,1.9012,1.9196,0.0,0.0,0.0,0.0,0.0,0.0,0.0,0.0,0.0,2.3622,2.4304,2.4784,2.534,0.0,0.0,0.0,0.0,0.0,0.0,0.0,0.0,0.0,0.0,0.0,0.0,0.0,0.0,0.0,0.0,0.0,0.0,0.0,0.0,0.0,0.0,0.0,2.6005,2.6713,0.0,2.8913,3.003,3.1097,3.2236,3.3102,3.3102,3.2641,3.2077,0.0,0.0,3.1432,3.1419,3.1838,3.239,3.2989,3.3102,3.3467,3.4527,3.5144,0.0,3.706,0.0,0.0,0.0,0.0,0.0,0.0,0.0,0.0,0.0,0.0,0.0,0.0,4.3002,4.3002,4.3002,4.3002,4.3002,4.3002,4.3002,4.3002,4.3002,4.3002,4.3002,4.3002,4.3002,4.3002,0.0,0.0,0.0,0.0,4.3002,4.3002,4.3002,4.3002,4.3002,4.3002,4.3002,4.3002,4.3002,0.0,0.0,0.0,0.0,0.0,0.0,1.4793,1.4816,1.4833,1.4818,1.5958,1.6842,1.7022,1.8239,1.897,1.8812,1.8979,0.0,0.0,0.0,0.0,0.0,0.0,0.0,0.0,0.0,2.2991,2.3209,2.4142,2.4702,2.4916,2.5759,0.0,0.0,0.0,0.0,0.0,0.0,0.0,0.0,0.0,0.0,0.0,0.0,0.0,0.0,0.0,0.0,0.0,0.0,0.0,0.0,0.0,0.0,0.0,2.7349,2.8335,2.9346,3.0093,3.1117,3.1947,3.1947,3.1788,3.1512,3.0984,0.0,3.1406,3.1406,3.1825,3.239,3.2989,3.3102,3.3558,3.5017,3.5382,3.6033,0.0,0.0,0.0,0.0,0.0,0.0,0.0,0.0,0.0,0.0,0.0,0.0,0.0,0.0,4.3002,4.3002,4.3002,4.3002,4.3002,4.3002,4.3002,4.3002,4.3002,4.3002,4.3002,4.3002,0.0,0.0,0.0,0.0,0.0,4.3002,4.3002,4.3002,4.3002,4.3002,4.3002,4.3002,4.3002,4.3002,0.0,0.0,0.0,0.0,0.0,0.0,1.5017,1.5002,1.494,1.4672,1.5731,1.6562,1.6711,1.7859,1.8626,1.8615,1.8687,0.0,0.0,0.0,0.0,0.0,0.0,0.0,2.1885,2.2201,2.2365,2.2365,2.3431,2.3947,2.3963,2.4927,2.5342,2.5272,0.0,0.0,0.0,0.0,0.0,0.0,0.0,0.0,2.3108,0.0,0.0,0.0,0.0,0.0,0.0,0.0,0.0,0.0,0.0,0.0,0.0,0.0,2.7758,2.8769,2.9578,3.057,3.1406,3.1406,3.1248,3.1009,0.0,0.0,3.0896,3.1331,3.1825,3.239,3.2989,3.3278,3.3796,3.5017,3.5556,0.0,0.0,0.0,0.0,0.0,0.0,0.0,0.0,0.0,0.0,0.0,0.0,0.0,0.0,0.0,4.3002,4.3002,4.3002,4.3002,4.3002,4.3002,4.3002,4.3002,4.3002,4.3002,4.3002,4.3002,0.0,0.0,0.0,0.0,0.0,4.3002,4.3002,4.3002,4.3002,4.3002,4.3002,4.3002,4.3002,4.3002,0.0,0.0,0.0,0.0,0.0,0.0,0.0,1.5246,1.5147,1.4948,1.5567,1.6219,1.6761,1.7519,1.8136,1.8461,1.8362,0.0,0.0,0.0,0.0,0.0,0.0,0.0,2.1256,2.1565,2.1734,2.1734,2.268,2.3134,2.3162,2.4033,2.4393,2.4263,2.4117,0.0,0.0,0.0,0.0,0.0,0.0,2.3108,0.0,0.0,0.0,0.0,0.0,0.0,0.0,0.0,0.0,0.0,0.0,0.0,0.0,0.0,0.0,0.0,0.0,3.0477,3.1293,3.1293,3.0909,3.0538,3.0538,0.0,0.0,3.1173,3.1825,3.239,3.2989,3.3533,3.4098,3.4653,3.5667,0.0,0.0,0.0,0.0,0.0,0.0,0.0,0.0,0.0,0.0,0.0,0.0,0.0,0.0,0.0,4.3002,4.3002,4.3002,4.3002,4.3002,4.3002,4.3002,4.3002,4.3002,4.3002,4.3002,4.3002,0.0,0.0,0.0,0.0,0.0,4.3002,4.3002,4.3002,4.3002,4.3002,4.3002,4.3002,4.3002,4.3002,0.0,0.0,0.0,0.0,0.0,0.0,0.0,0.0,0.0,0.0,1.5757,1.6368,1.6898,1.7525,1.8034,0.0,0.0,0.0,0.0,0.0,0.0,0.0,0.0,0.0,2.0028,2.0688,2.1043,2.1043,2.2074,2.259,2.2603,2.3592,2.4024,2.398,2.3688,2.3465,0.0,0.0,0.0,0.0,2.3108,2.3108,0.0,0.0,0.0,0.0,2.3108,2.3411,0.0,0.0,0.0,0.0,0.0,0.0,0.0,0.0,2.7261,2.816,2.8423,0.0,3.0168,3.0168,3.008,2.9993,0.0,2.988,0.0,0.0,0.0,3.239,3.2989,3.3533,3.4223,3.5167,3.5918,0.0,0.0,0.0,0.0,0.0,0.0,0.0,0.0,0.0,0.0,0.0,0.0,0.0,0.0,0.0,4.3002,4.3002,4.3002,4.3002,4.3002,4.3002,4.3002,4.3002,4.3002,4.3002,4.3002,4.3002,0.0,0.0,0.0,0.0,4.3002,4.3002,4.3002,4.3002,4.3002,4.3002,4.3002,4.3002,4.3002,4.3002,0.0,0.0,0.0,0.0,0.0,0.0,0.0,0.0,0.0,0.0,1.5927,1.6505,1.7026,1.7575,1.8011,0.0,0.0,0.0,0.0,0.0,0.0,0.0,0.0,1.9231,1.9369,2.0132,2.051,2.051,2.1574,2.2089,2.2101,2.3076,2.3537,2.3537,2.3345,2.3198,2.3108,0.0,0.0,0.0,2.3108,0.0,0.0,0.0,0.0,0.0,2.3108,2.3487,0.0,2.4616,2.5172,2.5716,0.0,0.0,0.0,0.0,2.7462,2.8141,2.8392,2.9126,2.9792,2.9792,2.9792,2.9792,2.9792,0.0,0.0,0.0,0.0,3.239,3.2989,3.3734,0.0,0.0,3.5843,0.0,0.0,0.0,0.0,0.0,0.0,0.0,0.0,0.0,0.0,0.0,0.0,0.0,0.0,0.0,4.3002,4.3002,4.3002,4.3002,4.3002,4.3002,4.3002,4.3002,4.3002,4.3002,4.3002,4.3002,0.0,0.0,0.0,0.0,4.3002,4.3002,4.3002,4.3002,4.3002,4.3002,4.3002,4.3002,4.3002,4.3002,0.0,0.0,0.0,0.0,0.0,0.0,0.0,0.0,0.0,0.0,0.0,0.0,0.0,0.0,0.0,0.0,0.0,0.0,0.0,0.0,0.0,0.0,1.838,1.8881,1.8983,1.9742,2.0144,2.0144,2.1171,2.1675,2.1688,2.264,2.3108,2.3108,2.3108,2.3108,2.3108,2.3108,0.0,0.0,2.3108,0.0,0.0,0.0,0.0,0.0,0.0,0.0,0.0,2.4741,2.5297,2.5829,2.6336,0.0,0.0,0.0,0.0,0.0,2.8737,2.9333,2.9792,2.9792,2.9792,2.9792,2.9792,0.0,0.0,0.0,0.0,0.0,0.0,0.0,0.0,0.0,0.0,0.0,0.0,0.0,0.0,0.0,0.0,0.0,0.0,0.0,0.0,0.0,0.0,0.0,0.0,0.0,0.0,4.3002,4.3002,4.3002,4.3002,4.3002,4.3002,4.3002,4.3002,4.3002,4.3002,4.3002,0.0,0.0,0.0,0.0,4.3002,4.3002,4.3002,4.3002,4.3002,4.3002,4.3002,4.3002,4.3002,4.3002,0.0,0.0,0.0,0.0,0.0,0.0,0.0,0.0,0.0,0.0,0.0,0.0,0.0,0.0,0.0,0.0,0.0,0.0,0.0,0.0,0.0,1.7026,1.7965,1.8485,1.8509,1.9408,1.9863,1.9863,2.0969,2.1522,2.1548,2.2623,2.3108,2.3108,2.3108,2.3108,2.3108,2.3108,2.3108,2.3108,0.0,0.0,0.0,0.0,0.0,0.0,0.0,0.0,0.0,2.5297,2.5866,2.6373,2.6461,0.0,0.0,0.0,0.0,0.0,2.8737,2.9333,2.9792,2.9792,2.9792,2.9792,2.9792,0.0,0.0,0.0,0.0,0.0,0.0,0.0,0.0,0.0,0.0,0.0,0.0,0.0,0.0,0.0,0.0,0.0,0.0,0.0,0.0,0.0,0.0,0.0,0.0,0.0,0.0,4.3002,4.3002,4.3002,4.3002,4.3002,4.3002,4.3002,4.3002,4.3002,4.3002,4.3002,4.3002,0.0,0.0,4.3002,4.3002,4.3002,4.3002,4.3002,4.3002,4.3002,4.3002,4.3002,4.3002,4.3002,0.0,0.0,0.0,0.0,0.0,0.0,0.0,0.0,0.0,0.0,0.0,0.0,0.0,0.0,0.0,0.0,0.0,0.0,0.0,0.0,1.6822,1.7162,1.7891,1.8321,1.8403,1.9321,1.9798,1.9798,2.0942,2.1507,2.152,2.2608,2.3108,2.3108,2.3108,2.3108,2.3108,2.3108,2.3108,2.3108,0.0,0.0,0.0,0.0,0.0,0.0,0.0,0.0,0.0,0.0,2.6005,2.6499,2.6499,0.0,0.0,0.0,0.0,0.0,2.922,2.9591,2.9792,2.9792,2.9792,2.9867,3.0168,0.0,0.0,0.0,0.0,0.0,0.0,0.0,0.0,0.0,0.0,0.0,0.0,0.0,0.0,0.0,0.0,0.0,0.0,0.0,0.0,0.0,0.0,0.0,0.0,0.0,0.0,0.0,4.3002,4.3002,4.3002,4.3002,4.3002,4.3002,4.3002,4.3002,4.3002,4.3002,4.3002,4.3002,0.0,4.3002,4.3002,4.3002,4.3002,4.3002,4.3002,4.3002,4.3002,4.3002,4.3002,4.3002,0.0,0.0,0.0,0.0,0.0,0.0,0.0,0.0,0.0,0.0,0.0,0.0,0.0,0.0,0.0,0.0,0.0,0.0,0.0,1.6661,1.6762,1.7361,1.7903,1.8314,1.8535,1.9371,1.9874,2.0012,2.1017,2.1633,2.1895,2.2721,2.3108,2.3108,2.3108,2.3108,2.3108,2.3108,2.3108,2.3108,0.0,0.0,0.0,0.0,0.0,0.0,0.0,0.0,0.0,0.0,0.0,0.0,0.0,0.0,0.0,2.7946,2.848,2.9032,2.9641,2.9792,2.9792,2.9792,0.0,2.9942,3.0475,0.0,0.0,0.0,0.0,0.0,0.0,0.0,0.0,0.0,0.0,0.0,0.0,0.0,0.0,0.0,0.0,0.0,0.0,0.0,0.0,0.0,0.0,0.0,0.0,0.0,0.0,0.0,4.3002,4.3002,4.3002,4.3002,4.3002,4.3002,4.3002,4.3002,4.3002,4.3002,4.3002,4.3002,4.3002,4.3002,4.3002,4.3002,4.3002,4.3002,4.3002,4.3002,4.3002,4.3002,4.3002,4.3002,0.0,0.0,0.0,0.0,0.0,0.0,0.0,0.0,0.0,0.0,0.0,0.0,0.0,0.0,0.0,0.0,0.0,0.0,0.0,1.6575,1.6762,1.7361,1.7903,1.843,1.8945,1.951,2.0075,2.0629,2.1218,2.202,2.2995,2.3058,2.3108,2.3108,2.3108,2.3108,2.3108,2.3108,2.3108,2.3108,2.3108,0.0,0.0,0.0,0.0,0.0,0.0,0.0,0.0,0.0,0.0,0.0,0.0,0.0,2.7412,2.7946,2.848,2.9032,2.9641,2.9792,2.9792,2.9792,2.9792,0.0,3.0475,0.0,0.0,0.0,0.0,0.0,0.0,0.0,0.0,0.0,0.0,0.0,0.0,0.0,0.0,0.0,0.0,0.0,0.0,0.0,0.0,0.0,0.0,0.0,0.0,0.0,0.0,0.0,0.0,4.3002,4.3002,4.3002,4.3002,4.3002,4.3002,4.3002,4.3002,4.3002,4.3002,4.3002,4.3002,4.3002,4.3002,4.3002,4.3002,4.3002,4.3002,4.3002,4.3002,4.3002,4.3002,4.3002,0.0,0.0,0.0,0.0,0.0,0.0,0.0,0.0,0.0,0.0,0.0,0.0,0.0,0.0,0.0,0.0,0.0,0.0,0.0,1.6565,1.6925,1.7864,1.8091,1.8618,1.9484,1.9698,2.01,2.0705,2.157,2.237,2.3108,2.3108,2.3108,2.3108,2.3108,2.3108,2.3108,2.3108,2.3108,2.3108,2.3108,2.3108,0.0,0.0,0.0,0.0,0.0,0.0,0.0,0.0,2.6499,2.6549,2.6901,2.7374,2.7896,2.8442,2.9007,2.9515,2.9729,2.9792,2.988,3.0218,0.0,0.0,0.0,0.0,0.0,0.0,0.0,0.0,0.0,0.0,0.0,0.0,0.0,0.0,0.0,0.0,0.0,0.0,0.0,0.0,0.0,0.0,0.0,0.0,0.0,0.0,0.0,0.0,0.0,0.0,0.0,4.3002,4.3002,4.3002,4.3002,4.3002,4.3002,4.3002,4.3002,4.3002,4.3002,4.3002,4.3002,4.3002,4.3002,4.3002,4.3002,4.3002,4.3002,4.3002,4.3002,4.3002,4.3002,4.3002,0.0,0.0,0.0,0.0,0.0,0.0,0.0,0.0,0.0,0.0,0.0,0.0,0.0,0.0,0.0,0.0,0.0,0.0,1.6654,1.6543,1.7013,1.8154,1.8204,1.8694,1.9773,1.9798,2.0188,2.0955,2.2033,2.2732,2.3108,2.3108,2.3108,2.3108,2.3108,2.3108,2.3108,2.3108,2.3108,2.3108,2.3108,2.3208,0.0,0.0,0.0,0.0,0.0,0.0,0.0,0.0,2.6612,2.6826,2.7185,2.7783,2.8417,2.8787,2.934,2.9792,2.9792,2.9792,2.993,0.0,0.0,0.0,0.0,0.0,0.0,0.0,0.0,0.0,0.0,0.0,0.0,0.0,0.0,0.0,0.0,0.0,0.0,0.0,0.0,0.0,0.0,0.0,0.0,0.0,0.0,0.0,0.0,0.0,0.0,0.0,0.0,0.0,4.3002,4.3002,4.3002,4.3002,4.3002,4.3002,4.3002,4.3002,4.3002,4.3002,4.3002,4.3002,4.3002,4.3002,4.3002,4.3002,4.3002,4.3002,4.3002,4.3002,4.3002,4.3002,0.0,0.0,0.0,0.0,0.0,0.0,0.0,0.0,1.5131,1.5455,1.6083,0.0,0.0,0.0,0.0,0.0,0.0,0.0,1.6511,1.65,1.7013,1.8154,1.8204,1.8694,1.9773,1.9811,2.0363,2.1507,2.2571,2.3108,2.3108,2.3108,2.3108,2.3108,2.3108,2.3108,2.3108,2.3108,2.3108,2.3108,2.3108,2.3474,2.4004,0.0,0.0,0.0,0.0,0.0,0.0,0.0,2.6864,2.7298,2.7311,2.8047,2.8888,2.8919,2.9321,2.9792,2.9792,2.9792,2.993,0.0,0.0,0.0,0.0,0.0,0.0,0.0,0.0,0.0,0.0,0.0,0.0,0.0,0.0,0.0,0.0,0.0,0.0,0.0,0.0,0.0,0.0,0.0,0.0,0.0,0.0,0.0,0.0,0.0,0.0,0.0,0.0,0.0,4.3002,4.3002,4.3002,4.3002,4.3002,4.3002,4.3002,4.3002,4.3002,4.3002,4.3002,4.3002,4.3002,4.3002,4.3002,4.3002,4.3002,4.3002,4.3002,4.3002,4.3002,4.3002,0.0,0.0,0.0,0.0,0.0,0.0,0.0,0.0,1.561,1.5954,1.6542,0.0,0.0,0.0,0.0,0.0,0.0,0.0,1.6511,1.65,1.7013,1.8154,1.8204,1.8694,1.9773,2.059,2.1168,2.1507,2.2571,2.3108,2.3108,2.3108,2.3108,2.3108,2.3108,2.3108,2.3108,2.3108,2.3333,2.3725,2.3725,2.4064,2.4603,0.0,0.0,0.0,0.0,0.0,0.0,0.0,0.0,0.0,2.8197,2.8643,2.8982,2.9396,2.9654,2.9792,2.9792,3.008,0.0,0.0,0.0,0.0,0.0,0.0,0.0,0.0,0.0,0.0,0.0,0.0,0.0,0.0,0.0,0.0,0.0,0.0,0.0,0.0,0.0,0.0,0.0,0.0,0.0,0.0,0.0,0.0,0.0,0.0,0.0,0.0,0.0,0.0,4.3002,4.3002,4.3002,4.3002,4.3002,4.3002,4.3002,4.3002,4.3002,4.3002,4.3002,4.3002,4.3002,4.3002,4.3002,4.3002,4.3002,4.3002,4.3002,4.3002,4.3002,4.3002,0.0,0.0,0.0,0.0,0.0,0.0,0.0,0.0,1.5607,1.5919,1.6438,1.6903,0.0,0.0,0.0,0.0,0.0,0.0,0.0,1.6724,1.7262,1.8166,1.8405,1.9032,2.0138,2.1042,2.1594,2.182,2.2684,2.3108,2.3108,2.3108,2.3108,2.3108,2.3108,2.3108,2.312,2.3361,2.3662,2.4017,2.4243,2.4644,2.5143,0.0,0.0,0.0,0.0,0.0,0.0,0.0,0.0,0.0,2.8706,2.9201,2.9647,3.0018,3.0118,3.0118,3.0118,3.0337,0.0,0.0,0.0,0.0,0.0,0.0,0.0,0.0,0.0,0.0,0.0,0.0,0.0,0.0,0.0,0.0,0.0,0.0,0.0,0.0,0.0,0.0,0.0,0.0,0.0,0.0,0.0,0.0,0.0,0.0,0.0,0.0,0.0,0.0,4.2675,4.2901,4.3002,4.3002,4.3002,4.3002,4.3002,4.3002,4.3002,4.3002,4.3002,4.3002,4.3002,4.3002,4.3002,4.3002,4.3002,4.3002,4.3002,4.3002,4.3002,4.3002,0.0,0.0,1.5094,1.489,0.0,0.0,0.0,0.0,1.5358,1.5631,1.6071,1.6502,0.0,0.0,0.0,0.0,0.0,0.0,0.0,0.0,1.7638,1.8179,1.8769,1.961,2.0755,2.1243,2.1782,2.237,2.2857,2.3108,2.3108,2.3108,2.3108,2.3108,2.3108,2.3108,2.3145,2.3738,2.4029,2.4117,2.4653,2.5193,2.5674,2.5674,0.0,0.0,0.0,0.0,0.0,0.0,0.0,0.0,2.8969,2.9735,3.06,3.06,3.06,3.06,3.06,0.0,0.0,0.0,0.0,0.0,0.0,0.0,0.0,0.0,0.0,0.0,0.0,0.0,0.0,0.0,0.0,0.0,0.0,0.0,0.0,0.0,0.0,0.0,0.0,0.0,0.0,0.0,0.0,0.0,0.0,0.0,0.0,0.0,0.0,0.0,4.2213,4.2675,4.2951,0.0,4.3002,4.3002,4.3002,4.3002,4.3002,4.3002,4.3002,4.3002,4.3002,4.3002,4.3002,4.3002,4.3002,4.3002,4.3002,4.3002,4.3002,4.3002,0.0,0.0,1.474,1.4543,0.0,0.0,0.0,0.0,0.0,1.6117,0.0,0.0,0.0,0.0,0.0,0.0,0.0,0.0,0.0,0.0,1.7638,1.8179,1.912,2.0162,2.1306,2.1444,2.197,2.2932,2.3045,2.3108,2.3108,2.3108,2.3108,2.3108,2.3108,2.3108,2.3145,2.3738,2.4243,2.4678,2.5222,2.5791,2.6311,2.6311,2.665,0.0,0.0,0.0,0.0,0.0,0.0,0.0,2.9465,3.0068,3.06,3.06,3.06,3.06,3.06,3.1203,0.0,0.0,0.0,0.0,0.0,0.0,0.0,0.0,0.0,0.0,0.0,0.0,0.0,0.0,0.0,0.0,0.0,0.0,0.0,0.0,0.0,0.0,0.0,0.0,0.0,0.0,0.0,0.0,0.0,0.0,0.0,0.0,0.0,4.1318,4.22,4.2298,4.2575,0.0,4.3002,4.3002,4.3002,4.3002,4.3002,4.3002,4.3002,4.3002,4.3002,4.3002,4.3002,4.3002,4.3002,4.3002,4.3002,4.3002,4.3002,4.3002,0.0,0.0,0.0,0.0,0.0,0.0,0.0,0.0,0.0,0.0,0.0,0.0,0.0,0.0,0.0,0.0,0.0,0.0,0.0,0.0,1.8141,1.8932,1.951,2.0326,2.1482,2.1507,2.2033,2.3108,2.3108,2.3108,2.3108,2.3108,2.3108,2.3108,2.3108,2.3258,2.3574,2.4139,2.4691,2.5231,2.5804,2.6223,2.6524,2.6788,2.7047,2.7374,2.7883,0.0,0.0,0.0,0.0,0.0,0.0,0.0,3.06,3.06,3.06,3.0701,3.1215,0.0,0.0,3.3596,0.0,0.0,0.0,0.0,0.0,0.0,0.0,0.0,0.0,0.0,0.0,0.0,0.0,0.0,0.0,0.0,0.0,0.0,0.0,0.0,0.0,0.0,0.0,0.0,0.0,0.0,0.0,0.0,0.0,0.0,4.0375,4.0789,4.1394,4.163,4.2032,4.2612,4.2612,4.275,4.3002,4.3002,4.3002,4.3002,4.3002,4.3002,4.3002,4.3002,4.3002,4.3002,4.3002,4.3002,4.3002,4.3002,4.3002,4.3002,0.0,0.0,0.0,0.0,0.0,0.0,0.0,0.0,0.0,0.0,0.0,0.0,0.0,0.0,0.0,0.0,0.0,0.0,0.0,0.0,0.0,1.9761,1.9899,2.0439,2.1482,2.1595,2.2121,2.3108,2.3208,2.3258,2.3246,2.3145,2.3108,2.3093,2.3208,2.3537,2.4042,2.4666,2.518,2.5649,2.626,2.6549,2.6688,2.7123,2.7412,2.7682,2.858,2.8969,2.9132,2.9628,0.0,0.0,0.0,0.0,3.06,3.06,3.0683,3.0939,3.1918,0.0,3.3009,3.459,0.0,0.0,0.0,0.0,0.0,0.0,0.0,0.0,0.0,0.0,0.0,0.0,0.0,0.0,0.0,0.0,0.0,0.0,0.0,0.0,0.0,0.0,0.0,0.0,0.0,0.0,0.0,0.0,3.9697,3.9697,4.0136,4.0425,4.0487,4.0938,4.1453,4.2047,4.2135,4.2474,4.3002,4.3002,4.3002,4.3002,4.3002,4.3002,4.3002,4.3002,4.3002,4.3002,4.3002,4.3002,4.3002,4.3002,4.3002,4.3002,0.0,0.0,0.0,0.0,0.0,0.0,0.0,0.0,0.0,0.0,1.6659,1.6654,0.0,1.65,1.65,1.65,1.6974,1.7311,1.7398,0.0,0.0,1.9773,2.0301,2.0867,2.1495,2.1958,2.2495,2.3108,2.3625,2.3891,2.3866,2.3333,2.3108,2.3118,2.365,2.3929,2.4067,2.5071,2.5536,2.5649,2.626,2.6788,2.7198,2.7273,0.0,2.8718,2.8838,2.9233,2.9691,2.9767,2.9792,0.0,0.0,0.0,0.0,3.06,3.0934,3.1424,0.0,0.0,3.4653,0.0,3.6304,0.0,0.0,0.0,0.0,0.0,0.0,0.0,0.0,0.0,0.0,0.0,0.0,0.0,0.0,0.0,0.0,0.0,0.0,0.0,0.0,0.0,0.0,0.0,0.0,0.0,0.0,3.9697,3.9697,3.9697,3.9772,4.0036,4.0513,4.0562,4.0876,4.1428,4.1959,4.2474,4.3002,4.3002,4.3002,4.3002,4.3002,4.3002,4.3002,4.3002,4.3002,4.3002,4.3002,4.3002,4.3002,4.3002,4.3002,4.3002,0.0,0.0,0.0,0.0,0.0,0.0,0.0,0.0,0.0,0.0,0.0,1.6577,1.6511,1.65,1.6636,1.6974,1.7248,1.7663,1.8267,1.902,1.971,2.0276,2.0553,2.1094,2.1933,2.2169,2.2571,2.3108,2.37,0.0,0.0,2.3725,2.36,0.0,2.3891,2.4167,2.449,2.5272,2.5804,2.6143,2.6725,2.7085,2.7374,0.0,0.0,0.0,0.0,0.0,0.0,2.9792,2.9792,2.9792,2.9792,0.0,0.0,0.0,3.0984,0.0,3.283,3.4374,3.5778,0.0,3.6405,0.0,0.0,0.0,0.0,0.0,0.0,0.0,0.0,0.0,0.0,0.0,0.0,0.0,0.0,0.0,0.0,0.0,0.0,0.0,0.0,0.0,0.0,0.0,0.0,0.0,3.9697,3.9697,3.9697,3.9697,3.9697,3.981,4.0061,4.0061,4.0311,4.0863,4.1442,4.1995,4.2549,4.2549,4.2713,4.3002,4.3002,4.3002,4.3002,4.3002,4.3002,4.3002,4.3002,4.3002,4.3002,4.3002,4.3002,4.3002,0.0,0.0,0.0,0.0,0.0,0.0,0.0,0.0,0.0,0.0,0.0,1.65,1.65,0.0,0.0,0.0,1.765,1.8204,1.9133,1.9723,2.0226,2.0679,2.0968,2.1482,2.2282,2.2433,2.2694,2.3108,0.0,0.0,2.4004,2.4004,2.4067,0.0,2.4205,2.4443,0.0,0.0,0.0,2.6549,2.7072,0.0,0.0,0.0,0.0,0.0,0.0,0.0,0.0,0.0,0.0,0.0,0.0,0.0,0.0,0.0,0.0,0.0,0.0,0.0,3.5967,3.5967,3.5967,3.6293,0.0,0.0,0.0,0.0,0.0,0.0,0.0,0.0,0.0,0.0,0.0,0.0,0.0,0.0,0.0,0.0,0.0,0.0,0.0,0.0,0.0,0.0,0.0,0.0,3.9697,3.9697,3.9697,3.9697,3.9697,3.9697,3.9697,3.9697,3.9973,4.0499,4.0913,4.139,4.1984,4.2122,4.2439,4.2801,4.2951,4.3002,4.3002,4.3002,4.3002,4.3002,4.3002,4.3002,4.3002,4.3002,4.3002,4.3002,0.0,0.0,0.0,0.0,0.0,0.0,0.0,0.0,0.0,0.0,0.0,1.65,1.65,1.7011,1.7373,1.741,1.833,1.9171,1.9723,2.0314,2.068,2.0705,2.1669,0.0,2.2295,2.2794,2.3083,2.3108,0.0,0.0,2.4004,2.4004,2.4264,2.4766,2.4766,2.4763,2.4879,0.0,0.0,0.0,0.0,0.0,0.0,0.0,0.0,0.0,0.0,0.0,0.0,0.0,0.0,0.0,0.0,0.0,0.0,0.0,0.0,0.0,0.0,3.4327,0.0,3.4791,3.4791,0.0,0.0,0.0,0.0,0.0,0.0,0.0,0.0,0.0,0.0,0.0,0.0,0.0,0.0,0.0,0.0,0.0,0.0,0.0,0.0,0.0,0.0,0.0,0.0,0.0,3.9697,3.9697,3.9697,3.9697,3.9697,3.9697,3.9697,3.9697,3.9973,4.0487,4.0524,4.0826,4.1378,4.1946,4.2225,4.2288,4.2776,4.3002,4.3002,4.3002,4.3002,4.3002,4.3002,4.3002,4.3002,4.3002,4.3002,4.3002,0.0,0.0,0.0,0.0,0.0,0.0,0.0,0.0,0.0,0.0,0.0,0.0,0.0,1.779,1.8053,1.8393,1.9095,1.9761,2.0352,2.0578,2.1006,2.1694,2.2096,2.2458,2.2807,2.3007,2.3108,0.0,0.0,2.4004,2.4004,2.4004,2.4293,2.4804,2.4804,2.4992,2.5372,2.6172,0.0,0.0,0.0,0.0,0.0,0.0,0.0,0.0,0.0,0.0,0.0,0.0,0.0,0.0,0.0,0.0,0.0,0.0,0.0,0.0,0.0,0.0,0.0,3.4703,3.4703,0.0,0.0,0.0,0.0,0.0,0.0,0.0,0.0,0.0,0.0,0.0,0.0,0.0,0.0,0.0,0.0,0.0,0.0,0.0,0.0,0.0,0.0,0.0,0.0,0.0,3.9697,3.9697,3.9697,3.9697,3.9697,3.9697,3.9697,3.9697,3.9798,3.9986,3.9986,4.0275,4.0788,4.1015,4.1519,4.2213,4.2386,4.2675,4.3002,4.3002,4.3002,4.3002,4.3002,4.3002,4.3002,4.3002,4.3002,4.3002,0.0,0.0,0.0,0.0,0.0,1.6574,1.6762,1.6799,1.7011,1.76,0.0,0.0,0.0,0.0,1.8769,1.951,1.9899,2.0351,2.093,2.1144,2.1557,2.227,2.247,2.2746,2.3095,2.3108,2.3108,0.0,0.0,0.0,0.0,2.3904,2.4293,2.4816,2.4992,2.5272,0.0,0.0,0.0,2.7361,0.0,0.0,2.8988,0.0,0.0,0.0,0.0,0.0,0.0,0.0,0.0,0.0,0.0,0.0,0.0,0.0,0.0,0.0,3.3621,0.0,0.0,0.0,0.0,0.0,0.0,0.0,0.0,0.0,0.0,0.0,0.0,0.0,0.0,0.0,0.0,0.0,0.0,0.0,0.0,0.0,0.0,0.0,0.0,0.0,0.0,0.0,0.0,0.0,3.9697,3.9697,3.9697,3.9697,3.9697,3.9697,3.9697,3.9697,3.9697,3.9697,3.9697,3.9885,4.0249,4.0411,4.0915,4.1658,4.2022,4.2499,4.3002,4.3002,4.3002,4.3002,4.3002,4.3002,4.3002,4.3002,4.3002,4.3002,0.0,0.0,1.65,1.6525,1.6536,1.6724,1.7324,1.7412,1.7613,1.8154,0.0,0.0,0.0,0.0,0.0,2.0629,2.0717,2.0943,2.1495,2.202,2.2307,2.232,2.2819,2.3108,2.3108,0.0,0.0,0.0,0.0,0.0,0.0,0.0,2.429,2.4854,2.5372,2.5611,2.5711,0.0,2.7311,2.7424,0.0,2.8919,2.8994,0.0,0.0,0.0,3.1399,3.1411,0.0,0.0,0.0,0.0,0.0,0.0,0.0,0.0,0.0,0.0,0.0,0.0,0.0,0.0,0.0,0.0,3.4424,0.0,0.0,0.0,0.0,0.0,0.0,0.0,0.0,0.0,0.0,0.0,0.0,0.0,0.0,0.0,0.0,0.0,0.0,0.0,0.0,0.0,0.0,3.9697,3.9697,3.9697,3.9697,3.9697,3.9697,3.9697,3.9697,3.9697,3.9697,3.9697,3.9697,3.9697,3.971,4.0249,4.0501,4.0549,4.167,4.2449,4.2977,4.3002,4.3002,4.3002,4.3002,4.3002,4.3002,4.3002,4.3002,4.3002,0.0,1.65,1.6636,1.7074,1.7148,1.7349,1.789,1.7978,1.8179,0.0,0.0,0.0,0.0,0.0,2.0942,2.1243,2.1268,2.1507,2.2046,2.2219,2.247,2.2857,2.302,2.3108,2.3108,0.0,0.0,0.0,0.0,2.3321,2.375,2.3916,2.4494,2.5385,2.5536,2.605,2.6859,2.7173,0.0,0.0,2.8631,2.9157,0.0,0.0,0.0,0.0,0.0,3.1989,0.0,0.0,3.3068,3.2663,0.0,0.0,0.0,0.0,0.0,0.0,3.3102,0.0,0.0,0.0,0.0,0.0,3.3458,3.4274,0.0,0.0,0.0,0.0,0.0,0.0,0.0,0.0,0.0,0.0,0.0,0.0,0.0,0.0,0.0,0.0,0.0,0.0,0.0,0.0,3.9697,3.9697,3.9697,3.9697,3.9697,3.9697,3.9697,3.9697,3.9697,3.9697,3.9697,3.9697,3.9697,3.9697,3.9697,3.9848,4.0136,4.0512,4.084,4.1532,4.2436,4.2838,4.3002,4.3002,4.3002,4.3002,4.3002,4.3002,4.3002,4.3002,1.7174,1.7213,1.7314,1.7664,1.7727,1.7903,1.8443,1.8519,1.8819,0.0,0.0,0.0,0.0,0.0,0.0,2.1807,2.1832,2.2071,2.2608,2.2631,2.2769,2.3095,2.3108,2.3108,2.3108,2.3108,2.3108,0.0,0.0,0.0,0.0,0.0,0.0,2.5611,2.6105,2.6683,0.0,0.0,0.0,0.0,2.9045,0.0,0.0,3.0143,3.0419,0.0,0.0,0.0,3.2407,3.3762,3.3872,0.0,0.0,0.0,0.0,0.0,0.0,0.0,0.0,0.0,0.0,0.0,0.0,0.0,3.3102,3.3935,3.4853,0.0,0.0,0.0,0.0,0.0,0.0,0.0,0.0,0.0,0.0,0.0,0.0,0.0,0.0,0.0,0.0,0.0,0.0,0.0,3.9697,3.9697,3.9697,3.9697,3.9697,3.9697,3.9697,3.9697,3.9697,3.9697,3.9697,3.9697,3.9697,3.9697,3.9697,3.9697,3.9873,4.0187,4.0386,4.0877,4.1557,4.2336,4.2801,4.3002,4.3002,4.3002,4.3002,4.3002,4.3002,4.3002,0.0,1.8204,1.8229,1.828,1.828,1.8493,1.9108,1.9183,1.956,0.0,2.0842,0.0,0.0,0.0,0.0,0.0,2.2383,2.2596,2.307,2.3108,2.3108,2.3108,2.3108,2.3108,2.3108,2.3108,2.3133,0.0,0.0,0.0,0.0,0.0,0.0,0.0,2.6821,2.7336,2.7462,0.0,0.0,2.9145,2.9679,2.9917,0.0,0.0,3.0369,0.0,3.1993,3.242,3.2708,3.4264,3.4427,0.0,0.0,0.0,0.0,0.0,3.3102,0.0,0.0,0.0,0.0,0.0,0.0,0.0,3.3102,3.3884,3.4766,0.0,0.0,0.0,0.0,0.0,0.0,0.0,0.0,0.0,0.0,0.0,0.0,0.0,0.0,0.0,0.0,0.0,3.9697,3.9697,3.9697,3.9697,3.9697,3.9697,3.9697,3.9697,3.9697,3.9697,3.9697,3.9697,3.9697,3.9697,3.9697,3.9697,3.9697,3.9697,3.9697,3.9722,4.0212,4.0437,4.0562,4.1595,4.2361,4.2926,4.2977,4.3002,4.3002,4.3002,4.3002,4.3002,1.8179,1.8204,1.833,1.877,1.8845,1.9183,2.0201,2.0377,2.059,2.1256,2.1721,0.0,0.0,0.0,0.0,0.0,2.2945,2.2995,2.3095,2.3108,2.3108,2.3108,2.3108,2.3108,2.3108,2.3108,2.3349,2.3828,0.0,0.0,0.0,0.0,0.0,0.0,2.6997,2.755,2.7996,0.0,0.0,3.0274,3.0387,0.0,3.1122,3.1574,3.1792,3.2051,3.3169,3.3859,3.4327,0.0,3.4992,3.4439,0.0,0.0,0.0,0.0,0.0,0.0,0.0,0.0,0.0,0.0,0.0,0.0,3.3102,3.3605,3.4223,0.0,0.0,0.0,0.0,0.0,0.0,0.0,0.0,0.0,0.0,0.0,0.0,0.0,0.0,0.0,0.0,0.0,3.9697,3.9697,3.9697,3.9697,3.9697,3.9697,3.9697,3.9697,3.9697,3.9697,3.9697,3.9697,3.9697,3.9697,3.9697,3.9697,3.9697,3.9697,3.9697,3.9697,3.981,4.0111,4.0512,4.0752,4.1417,4.2386,4.2826,4.3002,4.3002,4.3002,4.3002,4.3002,1.8957,1.9233,1.9535,1.9798,2.0075,2.0439,2.1005,2.1106,2.1294,2.1832,2.237,0.0,0.0,0.0,0.0,0.0,0.0,0.0,0.0,2.3108,2.3108,2.3108,2.3108,2.3246,2.3537,2.3549,2.3825,2.439,0.0,0.0,0.0,0.0,0.0,0.0,0.0,0.0,0.0,0.0,2.9993,3.0997,3.0997,0.0,3.1863,3.2428,3.2641,3.2792,3.3909,3.4839,3.5542,3.5495,3.532,0.0,0.0,3.3709,3.3454,0.0,3.3102,3.3102,0.0,0.0,0.0,3.3102,0.0,0.0,0.0,3.3508,3.406,0.0,0.0,0.0,0.0,0.0,0.0,0.0,0.0,0.0,0.0,0.0,0.0,0.0,0.0,0.0,0.0,0.0,3.9697,3.9697,3.9697,3.9697,3.9697,3.9697,3.9697,3.9697,3.9697,3.9697,3.9697,3.9697,3.9697,3.9697,3.9697,3.9697,3.9697,3.9697,3.9697,3.9697,3.9697,3.9848,4.0124,4.04,4.1003,4.1806,4.2374,4.2763,4.3002,4.3002,4.3002,4.3002,2.0049,2.0515,2.0842,2.0842,2.1206,2.1532,2.1645,2.1644,2.1845,2.2383,0.0,0.0,0.0,0.0,0.0,0.0,0.0,0.0,0.0,0.0,2.3584,2.3584,2.3484,2.3712,2.4293,2.4205,2.4418,2.4954,2.5385,0.0,0.0,0.0,0.0,0.0,0.0,0.0,0.0,0.0,0.0,3.1432,0.0,3.2077,3.2441,3.304,3.3329,3.3555,3.4638,3.5542,3.618,3.5794,0.0,3.5357,3.4625,3.4223,0.0,0.0,0.0,0.0,0.0,0.0,0.0,0.0,0.0,3.3102,0.0,0.0,0.0,0.0,0.0,0.0,0.0,0.0,0.0,0.0,0.0,0.0,0.0,0.0,0.0,0.0,0.0,0.0,0.0,0.0,3.9534,3.9534,3.9534,3.9534,3.9534,3.9634,3.9697,3.9697,3.9697,3.9697,3.9697,3.9697,3.9697,3.9697,3.9697,3.9697,3.9697,3.9697,3.9697,3.9697,3.9697,3.9697,3.9722,4.0174,4.0725,4.1365,4.1959,4.2524,4.3002,4.3002,4.3002,4.3002,2.128,2.1356,2.1407,2.1407,2.1457,2.1656,2.2146,2.2207,2.2408,0.0,0.0,0.0,0.0,0.0,0.0,0.0,0.0,0.0,2.4641,0.0,0.0,2.5322,2.4854,2.4854,2.5398,2.4942,2.4967,2.5511,2.5573,2.5866,0.0,0.0,0.0,0.0,2.8355,0.0,0.0,0.0,3.1286,0.0,3.3018,3.3357,0.0,3.3596,3.411,3.4675,3.5803,3.5943,3.5682,0.0,3.5943,3.5558,0.0,3.5416,0.0,0.0,0.0,0.0,0.0,0.0,0.0,0.0,3.3102,0.0,0.0,0.0,0.0,0.0,0.0,0.0,0.0,0.0,0.0,0.0,0.0,0.0,0.0,0.0,0.0,0.0,0.0,0.0,0.0,0.0,0.0,3.8982,3.8982,3.8982,3.8982,3.9433,3.9697,3.9697,3.9697,3.9697,3.9697,3.9697,3.9697,3.9697,3.9697,3.9697,3.9697,3.9697,3.9697,3.9697,3.9697,3.9697,3.9697,3.976,4.04,4.1365,4.1959,4.2524,4.3002,4.3002,4.3002,4.3002,2.162,2.1744,2.197,2.197,2.2219,2.2493,2.2732,2.2757,2.2972,0.0,0.0,0.0,0.0,0.0,0.0,0.0,0.0,2.6017,0.0,0.0,0.0,0.0,2.508,0.0,2.5586,2.5385,2.5548,2.6118,2.6432,2.6721,0.0,0.0,0.0,0.0,2.8706,0.0,3.0407,0.0,0.0,0.0,0.0,0.0,0.0,3.4286,3.4914,3.5791,3.6582,3.6697,3.6584,0.0,3.6948,0.0,0.0,0.0,0.0,0.0,0.0,0.0,0.0,0.0,0.0,0.0,0.0,0.0,0.0,0.0,3.3102,0.0,0.0,0.0,0.0,0.0,0.0,0.0,0.0,0.0,0.0,0.0,0.0,0.0,0.0,0.0,0.0,0.0,0.0,0.0,0.0,3.8894,3.8894,3.9421,3.9697,3.9697,3.9697,3.9697,3.9697,3.9697,3.9697,3.9697,3.9697,3.9697,3.9697,3.9697,3.9697,3.9697,3.9697,3.9697,3.9697,3.9697,4.0162,4.0888,4.1467,4.2208,4.3002,4.3002,4.3002,4.3002,2.2096,0.0,2.2521,2.2521,2.2844,2.3108,2.3108,2.3417,0.0,0.0,0.0,0.0,2.616,2.6409,0.0,0.0,0.0,2.747,0.0,0.0,2.7019,0.0,0.0,0.0,0.0,0.0,2.6507,2.6952,2.7336,2.7525,0.0,0.0,0.0,0.0,0.0,3.0111,3.1432,0.0,0.0,3.3709,3.401,3.4439,3.4941,3.5092,3.5755,3.6683,3.7235,3.7312,3.7286,3.7814,3.7739,0.0,3.7625,0.0,0.0,0.0,0.0,0.0,3.5177,0.0,0.0,0.0,0.0,0.0,0.0,0.0,0.0,0.0,0.0,0.0,0.0,0.0,0.0,0.0,0.0,0.0,0.0,0.0,0.0,0.0,0.0,0.0,0.0,0.0,0.0,0.0,3.8316,0.0,3.8441,3.9233,3.9622,3.9497,3.9609,3.9697,3.9697,3.9697,3.9697,3.9697,3.9697,3.9697,3.9697,3.9697,3.9697,3.9697,3.9697,3.9697,3.9697,3.9697,4.0023,4.0549,4.1102,4.1919,4.2801,4.2951,4.3002,4.3002,2.3058,2.3058,0.0,0.0,0.0,2.3108,2.3108,0.0,0.0,0.0,0.0,0.0,0.0,0.0,0.0,0.0,0.0,2.9947,2.9162,0.0,3.0629,0.0,0.0,0.0,0.0,0.0,2.8034,2.8059,2.8072,2.8084,2.8097,0.0,0.0,0.0,0.0,3.0871,3.1461,3.2587,3.3077,3.3228,3.4274,3.5004,3.5533,0.0,3.6683,3.7224,3.7789,0.0,0.0,3.7814,3.8002,0.0,0.0,0.0,0.0,0.0,0.0,0.0,0.0,0.0,0.0,0.0,0.0,0.0,0.0,0.0,3.4653,0.0,0.0,0.0,0.0,0.0,0.0,0.0,0.0,0.0,0.0,0.0,0.0,0.0,0.0,0.0,0.0,0.0,0.0,3.7235,3.7713,3.7801,3.7286,3.8793,3.9472,3.8931,3.9446,3.9697,3.9697,3.9697,3.9697,3.9697,3.9697,3.9697,3.9697,3.9697,3.9697,3.9697,3.9697,3.9697,3.9697,3.9697,4.0023,4.0549,4.1102,4.1681,4.2301,4.2813,4.3002,4.3002,2.3108,0.0,0.0,0.0,0.0,0.0,0.0,2.4969,0.0,0.0,0.0,0.0,0.0,0.0,3.1428,0.0,0.0,3.1681,3.1149,3.0978,0.0,0.0,0.0,2.9007,0.0,0.0,0.0,0.0,0.0,0.0,2.8656,2.9584,0.0,0.0,0.0,3.1637,0.0,0.0,0.0,0.0,0.0,3.6684,3.7124,0.0,0.0,3.7801,3.8404,3.8492,0.0,3.8931,3.8881,3.8705,3.9258,3.9057,3.8605,3.8605,3.8065,0.0,0.0,0.0,3.6546,3.6182,0.0,0.0,0.0,0.0,0.0,0.0,0.0,0.0,0.0,0.0,0.0,0.0,0.0,0.0,0.0,0.0,0.0,0.0,0.0,0.0,0.0,0.0,0.0,3.6658,3.7173,3.7538,0.0,3.8655,3.9258,3.9434,3.9597,3.9697,3.9697,3.9697,3.9697,3.9697,3.9697,3.9697,3.9697,3.9697,3.9697,3.9697,3.9697,3.9697,3.9697,3.9697,3.9798,4.0061,4.0951,4.1415,4.1731,4.2635,4.3002,4.3002,2.3675,0.0,0.0,0.0,0.0,0.0,0.0,0.0,0.0,0.0,3.0265,0.0,3.2588,0.0,3.3522,0.0,3.3493,3.3258,3.2773,3.2302,0.0,3.1609,3.0615,0.0,0.0,0.0,0.0,0.0,0.0,2.9785,2.9797,3.0538,3.0997,0.0,0.0,3.2202,3.3115,0.0,3.4434,0.0,0.0,3.7877,0.0,0.0,3.8178,3.8391,0.0,3.9195,3.9245,3.9572,3.9484,3.9245,3.9584,3.9472,3.9195,3.9195,3.8894,3.8605,3.8605,3.8203,0.0,0.0,3.6835,0.0,3.5945,0.0,0.0,0.0,0.0,0.0,0.0,0.0,0.0,0.0,0.0,0.0,0.0,3.6405,0.0,0.0,0.0,0.0,0.0,0.0,3.6405,3.6405,3.6896,3.7273,0.0,0.0,3.8655,3.8793,3.8994,3.9195,3.9421,3.9421,3.9522,3.9697,3.9697,3.9697,3.9697,3.9697,3.9697,3.9697,3.9697,3.9697,3.9697,3.9697,3.9697,3.9798,4.0888,4.1315,4.144,4.2572,4.3002,4.3002,2.4739,2.4393,0.0,0.0,2.3794,0.0,0.0,0.0,2.9724,0.0,3.3,3.4943,3.4789,3.5148,3.5176,3.4622,3.4817,0.0,3.4119,3.4168,0.0,0.0,3.2718,3.2303,3.2269,0.0,0.0,0.0,0.0,0.0,3.1436,3.1436,3.1712,0.0,3.224,0.0,3.3178,3.3671,3.4527,3.5734,3.7977,3.8517,3.8128,3.9284,0.0,3.902,3.9522,3.9697,3.9697,3.9697,3.9697,3.9697,3.9697,3.9697,3.9697,3.9697,3.9697,3.9697,3.9697,3.9321,3.8894,3.8894,0.0,0.0,0.0,0.0,3.8015,0.0,0.0,0.0,0.0,0.0,0.0,0.0,0.0,0.0,0.0,0.0,0.0,0.0,0.0,0.0,0.0,3.6405,3.6405,3.6405,3.6871,0.0,0.0,0.0,0.0,3.7236,3.7739,3.8278,3.8881,3.8894,3.917,3.9697,3.9697,3.9697,3.9697,3.9697,3.9697,3.9697,3.9697,3.9697,3.9697,3.9697,3.9697,3.9798,4.0888,4.1313,4.1516,4.2585,4.3002,4.3002,2.5027,2.4919,2.5113,0.0,2.6471,2.6943,0.0,0.0,0.0,0.0,3.4975,3.6512,3.7279,3.7833,3.816,3.817,3.797,0.0,0.0,0.0,0.0,3.4994,3.4187,3.3665,3.347,3.2952,0.0,3.2663,0.0,0.0,3.2001,3.2001,3.2077,3.2206,0.0,0.0,3.3696,3.3847,3.4776,3.6317,3.7896,3.845,0.0,0.0,3.9923,3.9772,3.9714,3.9697,3.9697,3.9697,3.9697,3.9697,3.9697,3.9697,3.9697,3.9697,3.9697,3.9697,3.9697,3.9321,3.8894,3.8894,3.8442,3.8002,0.0,0.0,0.0,0.0,0.0,0.0,0.0,0.0,0.0,0.0,0.0,0.0,0.0,0.0,0.0,0.0,0.0,0.0,0.0,0.0,3.6405,3.6405,3.6543,3.6708,0.0,0.0,0.0,3.7789,3.7939,3.8278,3.8881,3.8894,3.917,3.9697,3.9697,3.9697,3.9697,3.9697,3.9697,3.9697,3.9697,3.9697,3.9697,3.9697,3.9697,3.9798,4.0888,4.1817,4.2585,4.2901,4.3002,4.3002,2.6145,0.0,0.0,2.8315,0.0,0.0,2.9827,0.0,0.0,3.523,3.7126,0.0,3.932,3.9781,3.9998,3.9942,3.9553,0.0,0.0,0.0,0.0,3.596,3.5223,3.4704,3.4417,3.4004,0.0,3.3796,0.0,0.0,3.2943,3.2704,3.2591,3.2616,0.0,3.3608,0.0,3.4775,3.5817,3.7037,3.8504,0.0,0.0,4.037,4.0814,4.0804,4.0741,4.0567,4.0377,4.0262,4.0211,4.0185,3.9968,3.9865,3.9865,3.9723,3.9697,3.9697,3.9697,3.9497,3.9258,3.9258,3.8981,3.8743,3.8743,3.8743,3.8831,0.0,0.0,0.0,0.0,0.0,0.0,0.0,0.0,0.0,0.0,0.0,0.0,0.0,0.0,0.0,0.0,0.0,0.0,3.6405,3.6405,3.6543,0.0,0.0,0.0,3.7626,3.7651,3.7914,3.8492,3.8517,3.8642,3.8956,3.9207,3.9359,3.9371,3.9584,3.9697,3.9697,3.9697,3.9697,3.9697,3.9697,3.9835,4.0162,4.1266,4.2221,4.3002,4.3002,4.3002,4.3002,0.0,0.0,0.0,0.0,0.0,0.0,0.0,3.385,0.0,3.7131,0.0,4.068,4.0987,4.1156,4.1147,4.0857,0.0,4.0046,3.9431,3.8601,3.7765,3.6981,3.6254,3.5692,3.5314,3.5065,0.0,0.0,0.0,0.0,3.3997,3.3467,3.3203,0.0,0.0,0.0,0.0,3.6048,3.7128,0.0,3.9393,4.0116,4.0316,4.1508,4.1955,4.2054,4.2308,4.1976,4.1358,4.1121,4.1034,4.0908,4.0427,4.0198,4.0109,3.9865,3.9774,3.9762,3.98,3.9774,3.9736,3.9736,3.9723,3.9697,3.9697,3.9697,3.9697,3.9697,3.9283,0.0,0.0,0.0,0.0,0.0,0.0,0.0,0.0,0.0,0.0,0.0,0.0,0.0,0.0,0.0,0.0,0.0,3.6405,3.6405,0.0,0.0,0.0,0.0,3.721,0.0,3.8002,0.0,3.8002,3.8015,3.8617,3.8894,3.8919,3.9472,3.9697,3.9697,3.9697,3.9697,3.9697,3.9697,4.0061,4.07,4.1783,4.2524,4.3002,4.3002,4.3002,4.3002,0.0,0.0,0.0,0.0,0.0,3.5013,3.6757,3.7534,3.8442,3.9919,4.0623,0.0,4.2036,4.2154,4.2285,4.255,4.2841,0.0,0.0,0.0,0.0,3.9356,3.8405,3.7441,3.6443,3.6209,3.6092,0.0,0.0,0.0,3.454,3.401,3.3759,0.0,0.0,0.0,3.5318,3.6807,0.0,3.7758,3.9651,4.0509,4.0876,4.2602,4.341,4.3695,4.4326,4.3402,4.1866,4.1817,4.1695,4.1498,4.1197,4.0782,4.0428,4.0377,4.0185,4.0083,4.03,4.0185,4.0032,4.0032,3.9865,3.9697,3.9697,3.9697,3.9697,3.9697,3.9283,3.8894,3.8894,0.0,0.0,0.0,0.0,0.0,0.0,0.0,0.0,0.0,0.0,0.0,0.0,0.0,0.0,0.0,0.0,0.0,0.0,0.0,0.0,0.0,0.0,0.0,0.0,0.0,0.0,3.8015,3.8617,3.8894,3.8919,3.9472,3.9697,3.9697,3.9697,3.9697,3.9697,3.9697,4.0287,4.124,4.1934,4.2524,4.3002,4.3002,4.3002,4.3002,0.0,0.0,0.0,0.0,0.0,0.0,0.0,4.0124,0.0,4.1365,4.1843,4.2426,4.328,4.3394,4.3589,4.4145,4.4297,4.412,4.3528,4.3045,4.2141,4.0749,3.9707,0.0,3.78,3.7429,3.7235,3.7235,0.0,0.0,0.0,3.5316,0.0,3.4327,0.0,3.5663,0.0,0.0,0.0,3.9206,4.0529,4.1469,4.2209,4.3632,4.4331,4.4648,4.5256,4.4814,4.3876,4.3355,4.3047,4.276,4.2088,4.1521,4.1072,4.0795,4.0618,4.0529,4.0669,4.0605,4.0478,4.0338,4.0109,3.9865,3.9723,3.9697,3.9697,3.9697,3.9484,3.9321,3.9321,3.8856,0.0,0.0,0.0,0.0,0.0,0.0,0.0,0.0,0.0,0.0,0.0,0.0,0.0,0.0,0.0,0.0,0.0,0.0,0.0,0.0,0.0,0.0,0.0,0.0,0.0,3.8015,3.8617,3.8894,3.8919,3.9472,3.9697,3.9697,3.9697,3.9697,3.9735,4.0312,4.0838,4.139,4.2258,4.2776,4.3002,4.3002,4.3002,4.3002,0.0,3.5449,0.0,0.0,3.8242,0.0,0.0,4.2053,4.2555,4.2555,4.2971,4.3597,4.4431,4.4506,4.4736,4.5244,4.5293,4.5088,4.462,4.4022,4.3085,4.1737,4.0622,3.9629,3.8811,3.8273,3.8002,0.0,0.0,0.0,0.0,0.0,0.0,0.0,0.0,0.0,0.0,0.0,3.9204,4.0572,4.1443,4.2378,4.341,4.4485,4.5064,4.5398,4.5927,4.6128,4.5994,4.5135,4.4573,4.4073,4.3119,4.2406,4.1832,4.1398,4.121,4.116,4.121,4.121,4.1084,4.082,4.0466,4.0109,3.9839,3.9736,3.9697,3.9697,3.9697,3.9697,3.9697,3.9333,0.0,0.0,0.0,0.0,0.0,0.0,0.0,0.0,0.0,0.0,0.0,0.0,0.0,0.0,0.0,0.0,0.0,0.0,0.0,0.0,0.0,3.745,3.8002,0.0,3.8002,0.0,3.8617,3.8894,3.8919,3.9472,3.9697,3.9697,3.9697,3.9697,3.9772,4.0863,4.1315,4.1428,4.2547,4.3002,4.3002,4.3002,4.3002,4.3002,0.0,0.0,0.0,0.0,0.0,0.0,0.0,4.3309,4.4097,4.4097,4.4142,4.4446,4.5125,4.5214,4.5229,4.5289,4.5852,4.5977,4.5511,4.5128,4.4227,4.2662,4.1202,3.9927,3.8811,3.8273,3.8002,0.0,0.0,0.0,0.0,0.0,0.0,0.0,0.0,0.0,0.0,3.9188,3.9915,4.0599,4.191,4.2892,4.3695,4.4949,4.5693,4.6188,4.6887,4.7164,4.7121,4.6763,4.5927,4.4903,4.4378,4.3529,4.2652,4.2424,4.2166,4.2029,4.2277,4.2166,4.1931,4.1647,4.1022,4.0389,4.0134,3.9865,3.9697,3.9697,3.9697,3.9697,3.9697,3.9647,3.9597,0.0,0.0,0.0,0.0,0.0,0.0,0.0,0.0,0.0,0.0,0.0,0.0,0.0,0.0,0.0,0.0,0.0,0.0,3.7185,0.0,3.745,3.8002,3.8002,0.0,3.8015,3.8617,3.8894,3.8919,3.9472,3.9697,3.9697,3.9697,3.9697,3.9772,4.0863,4.1315,4.1428,4.2547,4.3002,4.3002,4.3002,4.3002,4.3002,0.0,0.0,0.0,0.0,0.0,0.0,0.0,4.4317,4.505,4.5448,4.5134,4.517,4.5822,4.5897,4.6067,4.6471,4.6756,4.669,4.6233,4.5759,4.4921,4.3533,4.2336,4.1197,4.0073,3.9524,3.9184,0.0,0.0,0.0,0.0,0.0,0.0,0.0,0.0,3.8673,3.9448,3.9951,4.0854,4.2016,4.2837,4.3709,4.4587,4.5557,4.621,4.6675,4.7142,4.7309,4.7287,4.7186,4.6624,4.5851,4.5064,4.4331,4.3662,4.3139,4.2981,4.3026,4.3136,4.3088,4.2905,4.2457,4.1782,4.1122,4.0681,4.0262,3.9929,3.9929,3.9813,3.9697,3.9697,3.9697,3.9584,0.0,0.0,0.0,0.0,0.0,0.0,0.0,0.0,0.0,0.0,0.0,0.0,0.0,0.0,0.0,0.0,0.0,0.0,3.6708,0.0,3.7135,3.8002,3.8002,3.8341,3.9019,3.9245,3.9396,3.9396,3.9597,3.9697,3.9697,3.9697,3.9885,4.0249,4.0989,4.1503,4.1934,4.27,4.3002,4.3002,4.3002,4.3002,4.3002,4.1309,0.0,4.2013,0.0,4.3015,4.3818,4.4496,4.517,4.5747,4.6241,4.6067,4.6067,4.654,4.6585,4.6779,4.7264,4.7309,4.7099,4.6639,4.6031,4.5187,4.405,4.2953,0.0,4.0908,4.0377,3.9981,3.9697,3.9697,0.0,0.0,0.0,0.0,0.0,3.8779,3.9443,4.0362,4.071,4.167,4.3043,4.3519,4.4308,4.5284,4.5941,4.6476,4.6953,4.7207,4.7309,4.7309,4.7309,4.7077,4.6639,4.5716,4.5087,4.4578,4.3926,4.3889,4.405,4.405,4.405,4.3932,4.3467,4.2687,4.1881,4.1347,4.0706,4.0185,4.0006,3.9839,3.9697,3.9697,3.9697,3.9572,3.9208,0.0,0.0,0.0,0.0,0.0,0.0,0.0,3.7914,3.7047,0.0,0.0,0.0,0.0,0.0,0.0,0.0,0.0,0.0,0.0,0.0,0.0,3.7927,3.8492,3.9484,3.9622,3.9697,3.9697,3.9697,3.9697,3.9697,3.9697,4.0011,4.0537,4.1089,4.1668,4.2235,4.2788,4.3002,4.3002,4.3002,4.3002,4.3002,4.3145,4.326,4.3504,4.4147,4.4267,4.4506,4.5185,4.5873,4.6285,4.63,4.6875,4.7279,4.7294,4.7294,4.7294,4.7309,4.7309,4.7099,4.6639,4.5911,4.5055,0.0,0.0,4.1733,4.0908,4.0377,3.9981,3.9697,0.0,0.0,3.8881,0.0,3.9183,3.9698,3.9968,4.0389,4.0933,4.1459,4.2262,4.3242,4.379,4.4602,4.5549,4.6009,4.6476,4.6953,4.7207,4.7309,4.7309,4.7309,4.7309,4.7164,4.6425,4.5851,4.539,4.4922,4.4908,4.5078,4.5078,4.5078,4.5018,4.4745,4.3715,4.2639,4.2112,4.1222,4.0326,3.9813,3.9697,3.9697,3.9697,3.9697,3.9697,3.9685,0.0,0.0,0.0,0.0,0.0,0.0,3.8542,3.8228,3.6581,0.0,0.0,0.0,0.0,0.0,0.0,0.0,0.0,3.6405,3.6405,0.0,3.7186,3.7739,3.8304,3.8919,3.9459,3.9697,3.9697,3.9697,3.9697,3.9697,3.9697,4.0011,4.0537,4.1089,4.1668,4.2235,4.2788,4.3002,4.3002,4.3002,4.3002,4.3002,4.3848,4.3982,4.4192,4.487,4.5358,4.5732,4.5942,4.654,4.6973,4.6973,4.7174,4.7309,4.7309,4.7309,4.7309,0.0,4.7309,4.7164,0.0,4.6291,4.5625,4.4787,4.3695,4.2687,4.1733,4.1009,4.0427,3.9981,0.0,0.0,0.0,3.9158,3.9373,3.9752,4.0552,4.1122,4.1498,4.236,4.3112,4.3818,4.4685,4.5421,4.6031,4.6499,4.6887,4.7186,4.7287,4.7309,4.7309,4.7309,4.7309,4.7244,4.6822,4.6366,4.5851,4.5207,4.5299,4.564,4.564,4.5753,4.5806,4.5529,4.4666,4.3766,4.3204,4.1904,4.0567,3.9852,3.9697,3.9697,3.9697,3.9697,3.9697,3.9697,0.0,0.0,0.0,0.0,0.0,0.0,0.0,3.7927,0.0,3.7425,0.0,0.0,0.0,0.0,0.0,0.0,0.0,0.0,3.6405,0.0,3.7198,3.7726,3.8304,3.8906,3.9433,3.9697,3.9697,3.9697,3.9697,3.9722,4.0086,4.0537,4.1089,4.1668,4.2248,4.2763,4.2939,4.3002,4.3002,4.3002,4.3002,4.3002,4.4536,4.4691,4.49,4.5559,4.6016,4.639,4.6629,4.704,4.7309,4.7309,4.7309,4.7309,4.7309,4.7309,0.0,4.7309,4.7309,4.7186,4.6916,4.6454,4.5919,4.5284,4.4191,4.3218,4.2384,0.0,0.0,4.0402,4.0032,3.9765,3.9614,3.9689,3.9966,4.0353,4.1216,4.1796,4.2177,4.3098,4.3851,4.449,4.5321,4.5978,4.6499,4.6785,4.7062,4.7309,4.7309,4.7309,4.7309,4.7309,4.7309,4.7251,4.6975,4.6646,4.6269,4.5806,4.5911,4.615,4.615,4.618,4.6188,4.6121,4.5384,4.4415,4.3372,4.1978,4.0706,3.9993,3.9762,3.9697,3.9697,3.9697,3.9697,3.9697,0.0,3.9697,0.0,0.0,0.0,0.0,0.0,0.0,0.0,3.7688,0.0,0.0,0.0,0.0,0.0,0.0,0.0,3.6997,3.6997,0.0,3.7487,3.8052,3.8542,3.8906,3.9433,3.9697,3.9697,3.9697,3.9697,3.9722,4.0275,4.08,4.1352,4.1959,4.2512,4.3002,4.3002,4.3002,4.3002,4.3002,4.3002,4.3002,4.5244,4.5364,0.0,0.0,4.6375,0.0,4.7204,4.7309,4.7309,4.7309,4.7309,4.7309,4.7309,4.7309,4.7309,4.7309,0.0,0.0,0.0,4.6499,4.6031,4.5572,4.4355,4.3457,4.2905,4.1906,4.1223,4.0908,4.0377,4.0147,4.0185,4.0478,4.0896,4.1433,4.1967,4.2457,4.2929,4.3766,4.4509,4.517,4.573,4.6336,4.6894,4.6916,4.7084,4.7309,4.7309,4.7309,4.7309,4.7287,4.7287,4.7207,4.6931,4.6712,4.6572,4.6572,4.6572,4.655,4.6572,4.638,4.6254,4.6528,4.5829,4.4611,4.2816,4.1644,4.0782,4.0198,3.989,3.9697,3.9697,3.9697,3.9697,3.9697,3.9697,3.9697,3.9697,0.0,0.0,0.0,0.0,0.0,0.0,3.7801,3.8128,0.0,0.0,0.0,0.0,0.0,3.7537,3.799,3.8002,3.8002,3.8002,3.8605,3.8919,3.8957,3.9472,3.9697,3.9697,3.9697,3.9722,3.9785,4.0311,4.0863,4.1415,4.2009,4.2549,4.3002,4.3002,4.3002,4.3002,4.3002,4.3002,4.3002,0.0,0.0,4.6271,4.695,4.7048,4.713,4.7279,4.7309,4.7309,4.7309,4.7309,4.7309,4.7309,4.7309,4.7309,4.7309,4.7309,4.7287,4.7207,4.6909,4.6521,4.6053,4.5201,4.4415,4.3719,4.2725,4.1769,4.0908,4.0567,4.0605,4.1035,4.1298,4.1782,4.2468,4.3002,4.341,4.379,4.4741,4.5238,4.5481,4.6321,4.6756,4.6916,4.7142,4.7229,4.7309,4.7309,4.7309,4.7287,4.7062,4.6997,4.6931,4.6499,4.6321,4.6291,4.6291,4.6194,4.6105,4.6247,4.6254,4.6254,4.6528,4.5693,4.4425,4.3009,4.194,4.0996,4.0249,3.989,3.9697,3.9697,3.9697,3.9697,3.9697,3.9697,3.9697,3.9697,3.9245,0.0,0.0,3.8693,3.8642,3.8504,3.8969,3.9295,0.0,0.0,0.0,0.0,0.0,3.8354,3.8015,3.8002,3.8002,3.8002,3.8605,3.9107,3.9496,3.9634,3.9697,3.9697,3.9697,3.9923,4.035,4.0876,4.1455,4.2034,4.2575,4.2889,4.3002,4.3002,4.3002,4.3002,4.3002,4.3002,4.3002,4.6614,4.6749,4.6869,4.7249,4.7309,4.7309,4.7309,4.7309,4.7309,4.7309,4.7309,4.7309,4.7309,4.7309,4.7309,4.7309,4.7309,4.7309,4.7309,4.704,4.6756,4.6403,4.5557,4.4871,4.4383,4.3269,4.2152,4.1072,4.1047,4.1211,4.1486,4.198,4.2677,4.3553,4.405,4.4494,4.4865,4.5535,4.5888,4.6046,4.6653,4.6975,4.7099,4.7229,4.7309,4.7309,4.7309,4.7309,4.7251,4.6997,4.6894,4.6807,4.6343,4.6135,4.6023,4.5761,4.5625,4.5572,4.5671,4.5693,4.5761,4.6023,4.5398,4.4401,4.3252,4.2112,4.1121,4.0415,3.9968,3.9697,3.9697,3.9697,3.9697,3.9697,3.9697,3.9697,3.9697,3.9245,0.0,3.8894,3.8894,3.8894,3.8894,3.9396,3.9697,3.9697,0.0,0.0,3.9672,3.9434,3.9132,3.8793,3.8781,3.8781,3.8781,3.9094,3.9421,3.9697,3.9697,3.9697,3.9697,3.9697,3.9998,4.0524,4.1076,4.1643,4.225,4.2776,4.3002,4.3002,4.3002,4.3002,4.3002,4.3002,4.3002,4.3002,4.7189,4.7309,4.7309,4.7309,4.7309,4.7309,4.7309,4.7309,4.7309,4.7309,4.7309,4.7309,4.7309,4.7309,4.7309,4.7309,4.7309,4.7309,4.7309,4.7084,4.6822,4.655,4.5648,4.5023,4.4751,4.3536,4.2424,4.1486,4.171,4.187,4.1931,4.2652,4.3553,4.4602,4.5032,4.5489,4.5949,4.621,4.6447,4.6661,4.6866,4.7099,4.7309,4.7309,4.7309,4.7309,4.7309,4.7309,4.7251,4.6953,4.6851,4.6756,4.621,4.5911,4.5663,4.5055,4.4856,4.4903,4.5009,4.5078,4.5147,4.539,4.4986,4.4284,4.3338,4.2137,4.1096,4.0605,4.007,3.9697,3.9697,3.9697,3.9697,3.9697,3.9622,3.9597,3.9685,0.0,3.8931,3.9007,3.9019,3.9019,3.9019,3.9421,3.9697,3.9697,3.9697,0.0,0.0,3.9697,3.9697,3.9697,3.9697,3.9697,3.9697,3.9697,3.9697,3.9697,3.9697,3.9697,3.9697,3.9772,4.0124,4.065,4.1202,4.1769,4.2348,4.2813,4.3002,4.3002,4.3002,4.3002,4.3002,4.3002,4.3002,4.3002,4.7279,4.7309,4.7309,4.7309,4.7309,4.7309,4.7309,4.7309,4.7309,4.7309,4.7309,4.7309,4.7309,4.7309,4.7309,4.7309,4.7309,4.7309,4.7309,4.7251,4.6946,4.6291,4.5716,4.5138,4.4481,4.3441,4.2717,4.2302,4.2364,4.2582,4.2978,4.3553,4.4355,4.533,4.564,4.6038,4.6506,4.6712,4.6822,4.6887,4.7142,4.7251,4.7309,4.7309,4.7309,4.7309,4.7309,4.7309,4.7244,4.6793,4.6661,4.6506,4.5557,4.5261,4.5055,4.4097,4.3837,4.3979,4.4653,4.4977,4.5101,4.5147,4.4462,4.36,4.3002,4.1893,4.0858,4.0555,4.007,3.9697,3.9697,3.9697,3.9697,3.9697,3.9321,3.9183,3.9634,0.0,3.907,3.9509,3.9597,3.9597,3.9597,3.9647,3.9697,3.9697,3.9697,3.9697,3.9697,3.9697,3.9697,3.9697,3.9697,3.9697,3.9697,3.9697,3.9697,3.9697,3.9697,3.9697,3.971,4.0174,4.0662,4.1214,4.1794,4.2361,4.2876,4.2977,4.3002,4.3002,4.3002,4.3002,4.3002,4.3002,4.3002,4.3002,4.7309,4.7309,4.7309,4.7309,4.7309,4.7309,4.7309,4.7309,4.7309,4.7309,4.7309,4.7309,4.7309,4.7309,4.7309,4.7309,4.7309,4.7309,4.7309,4.7309,4.7033,4.6425,4.5919,4.5193,4.4223,4.3727,4.3321,4.2935,4.3177,4.3485,4.3861,4.4509,4.5284,4.609,4.6336,4.6639,4.6968,4.7077,4.7121,4.7142,4.7251,4.7309,4.7309,4.7309,4.7309,4.7309,4.7309,4.7309,4.7244,4.6749,4.6594,4.6417,4.5421,4.5101,4.4903,4.3908,4.36,4.3695,4.4233,4.4551,4.47,4.4532,4.3837,4.3002,4.2335,4.141,4.0618,4.0338,3.9968,3.9697,3.9697,3.9697,3.9697,3.9697,3.9484,0.0,0.0,3.9497,3.9434,3.9659,3.9697,3.9697,3.9697,3.9697,3.9697,3.9697,3.9697,3.9697,3.9697,3.9697,3.9697,3.9697,3.9697,3.9697,3.9697,3.9697,3.9697,3.9697,3.9697,3.9848,4.0149,4.04,4.0978,4.1794,4.2072,4.2499,4.3002,4.3002,4.3002,4.3002,4.3002,4.3002,4.3002,4.3002,4.3002,4.3002,4.7309,4.7309,4.7309,4.7309,4.7309,4.7309,4.7309,4.7309,4.7309,4.7309,4.7309,4.7309,4.7309,4.7309,4.7309,4.7309,4.7309,4.7309,4.7309,4.7309,4.7055,4.6528,4.5896,4.5087,4.4115,4.4082,4.3917,4.356,4.3988,4.435,4.4671,4.5284,4.5978,4.6683,4.6844,4.704,4.7309,4.7309,4.7309,4.7309,4.7309,4.7309,4.7309,4.7309,4.7309,4.7287,4.7229,4.7207,4.7121,4.6616,4.6395,4.618,4.5238,4.4847,4.4578,4.3709,4.3399,4.3423,4.3794,4.4021,4.4068,4.379,4.3122,4.236,4.1658,4.0946,4.0338,4.0134,3.989,3.9697,3.9697,3.9697,3.9697,3.9697,0.0,0.0,0.0,3.9584,3.9546,3.9685,3.9697,3.9697,3.9697,3.9697,3.9697,3.9697,3.9697,3.9697,3.9697,3.9697,3.9697,3.9697,3.9697,3.9697,3.9697,3.9697,3.9697,3.9697,3.9697,3.9986,4.0499,4.0625,4.1241,4.2213,4.2338,4.2612,4.3002,4.3002,4.3002,4.3002,4.3002,4.3002,4.3002,4.3002,4.3002,4.3002,4.7309,4.7309,4.7309,4.7309,4.7309,4.7309,4.7309,4.7309,4.7309,4.7309,4.7309,4.7309,4.7309,4.7309,4.7309,4.7309,4.7309,4.7309,4.7309,4.7309,4.699,4.6254,4.5367,4.4714,4.4387,4.4364,4.434,4.4317,4.4597,4.4968,4.5435,4.5722,4.6225,4.6887,4.6894,4.704,4.7309,4.7309,4.7309,4.7309,4.7309,4.7309,4.7309,4.7309,4.7309,4.7287,4.7019,4.6931,4.6844,4.6172,4.579,4.5458,4.4676,4.4101,4.36,4.3115,4.2766,4.2741,4.3447,4.3509,4.3307,4.2967,4.2335,4.1647,4.1084,4.0529,4.0121,4.0096,3.989,3.9697,3.9697,3.9697,3.9697,3.9697,0.0,0.0,3.9622,3.9283,3.9145,3.9634,3.9697,3.9697,3.9697,3.9697,3.9697,3.9697,3.9697,3.9697,3.9697,3.9697,3.9697,3.9697,3.9697,3.9697,3.9697,3.9697,3.9697,3.9697,3.9697,3.9986,4.0512,4.1014,4.1593,4.2238,4.2725,4.2964,4.3002,4.3002,4.3002,4.3002,4.3002,4.3002,4.3002,4.3002,4.3002,4.3002,4.7309,4.7309,4.7309,4.7309,4.7309,4.7309,4.7309,4.7309,4.7309,4.7309,4.7309,4.7309,4.7309,4.7309,4.7309,4.7309,4.7309,4.7309,4.7309,4.7309,4.7055,4.6469,4.5956,4.5535,4.527,4.5284,4.5284,4.5284,4.5535,4.5843,4.6194,4.6403,4.6734,4.7142,4.7142,4.7207,4.7309,4.7309,4.7309,4.7309,4.7309,4.7207,4.704,4.704,4.6866,4.6602,4.6499,4.6277,4.5941,4.5347,4.4966,4.4597,4.3681,4.3276,4.2974,4.2349,4.1969,4.1819,4.2101,4.236,4.2495,4.2202,4.1534,4.0871,4.0491,4.0109,3.9865,3.9865,3.9762,3.9697,3.9697,3.9697,3.9697,3.9697,0.0,3.9484,3.9659,3.9509,3.9484,3.9672,3.9697,3.9697,3.9697,3.9697,3.9697,3.9697,3.9697,3.9697,3.9697,3.9697,3.9697,3.9697,3.9697,3.9697,3.9697,3.9697,3.9697,3.9697,4.0036,4.0462,4.1014,4.1593,4.2173,4.27,4.2914,4.3002,4.3002,4.3002,4.3002,4.3002,4.3002,4.3002,4.3002,4.3002,4.3002,4.3002,4.7309,4.7309,4.7309,4.7309,4.7309,4.7309,4.7309,4.7309,4.7309,4.7309,4.7309,4.7309,4.7309,4.7309,4.7309,4.7309,4.7309,4.7309,4.7309,4.7309,4.7121,4.6712,4.6469,4.6232,4.6076,4.6053,4.6053,4.6053,4.6232,4.6447,4.6705,4.6844,4.704,4.7309,4.7309,4.7309,4.7287,4.7207,4.7164,4.7164,4.7114,4.6909,4.6675,4.6675,4.6388,4.5964,4.5874,4.5543,4.5026,4.442,4.3984,4.3559,4.2709,4.2344,4.2088,4.1509,4.1185,4.1059,4.1059,4.1247,4.1459,4.1348,4.0846,4.0287,4.0032,3.9839,3.9697,3.9697,3.9697,3.9697,3.9697,3.9697,3.9697,3.9697,3.9697,3.9697,3.9697,3.9697,3.9697,3.9697,3.9697,3.9697,3.9697,3.9697,3.9697,3.9697,3.9697,3.9697,3.9697,3.9697,3.9697,3.9697,3.9697,3.9697,3.9697,3.9697,3.9785,3.9961,4.0311,4.0863,4.1605,4.2009,4.2487,4.3002,4.3002,4.3002,4.3002,4.3002,4.3002,4.3002,4.3002,4.3002,4.3002,4.3002,4.3002,4.3002,4.7309,4.7309,4.7309,4.7309,4.7309,4.7309,4.7309,4.7309,4.7309,4.7309,4.7309,4.7309,4.7309,4.7309,4.7309,4.7309,4.7309,4.7309,4.7309,4.7309,4.7186,4.6894,4.6712,4.6616,4.6616,4.6616,4.6616,4.6616,4.6616,4.6705,4.6894,4.6894,4.704,4.7309,4.7309,4.7309,4.7287,4.7019,4.6894,4.6873,4.6668,4.6425,4.6188,4.6188,4.5896,4.5458,4.5193,4.4736,4.4172,4.3444,4.2843,4.2295,4.1832,4.131,4.0833,4.058,4.0478,4.0478,4.0478,4.0287,4.0147,4.0428,4.0287,4.0032,3.9762,3.9697,3.9697,3.9697,3.9697,3.9697,3.9697,3.9697,3.9697,3.9697,3.9697,3.9697,3.9697,3.9697,3.9697,3.9697,3.9697,3.9697,3.9697,3.9697,3.9697,3.9697,3.9697,3.9697,3.9697,3.9697,3.9697,3.9697,3.9697,3.9697,3.9697,3.9697,3.9973,4.0487,4.0499,4.1103,4.2213,4.2185,4.2487,4.3002,4.3002,4.3002,4.3002,4.3002,4.3002,4.3002,4.3002,4.3002,4.3002,4.3002,4.3002,4.3002,4.7309,4.7309,4.7309,4.7309,4.7309,4.7309,4.7309,4.7309,4.7309,4.7309,4.7309,4.7309,4.7309,4.7309,4.7309,4.7309,4.7309,4.7309,4.7309,4.7309,4.7251,4.7186,4.7121,4.7077,4.7077,4.7077,4.7077,4.7077,4.7077,4.7121,4.7186,4.7186,4.7207,4.7309,4.7309,4.7309,4.7287,4.7019,4.6894,4.6873,4.6668,4.6351,4.5993,4.5993,4.5458,4.47,4.4415,4.3766,4.2953,4.236,4.1794,4.1272,4.0732,4.0338,4.0044,3.9968,3.9942,3.9942,3.9942,3.989,3.989,4.016,4.0019,3.9788,3.9723,3.9697,3.9697,3.9697,3.9697,3.9697,3.9697,3.9697,3.9697,3.9697,3.9697,3.9697,3.9697,3.9697,3.9697,3.9697,3.9697,3.9697,3.9697,3.9697,3.9697,3.9697,3.9697,3.9697,3.9697,3.9697,3.9697,3.9697,3.9697,3.9885,4.0275,4.0275,4.035,4.0499,4.1304,4.1858,4.2225,4.2587,4.2851,4.3002,4.3002,4.3002,4.3002,4.3002,4.3002,4.3002,4.3002,4.3002,4.3002,4.3002,4.3002,4.3002,4.7309,4.7309,4.7309,4.7309,4.7309,4.7309,4.7309,4.7309,4.7309,4.7309,4.7309,4.7309,4.7309,4.7309,4.7309,4.7309,4.7309,4.7309,4.7309,4.7309,4.7309,4.7309,4.7309,4.7309,4.7309,4.7309,4.7309,4.7309,4.7309,4.7309,4.7309,4.7309,4.7309,4.7309,4.7309,4.7309,4.7287,4.6946,4.6778,4.6756,4.6439,4.6038,4.5572,4.5572,4.4977,4.4054,4.3804,4.3063,4.209,4.1559,4.0972,4.0364,4.0032,3.9839,3.9697,3.9697,3.9697,3.9697,3.9697,3.9697,3.9736,3.9916,3.9813,3.9697,3.9697,3.9697,3.9697,3.9697,3.9697,3.9697,3.9697,3.9697,3.9697,3.9697,3.9697,3.9697,3.9697,3.9697,3.9697,3.9697,3.9697,3.9697,3.9697,3.9697,3.9697,3.9697,3.9697,3.9697,3.9697,3.9697,3.9697,3.9697,3.991,4.0174,4.0487,4.0953,4.1166,4.1166,4.1858,4.2298,4.2524,4.2851,4.3002,4.3002,4.3002,4.3002,4.3002,4.3002,4.3002,4.3002,4.3002,4.3002,4.3002,4.3002,4.3002,4.3002,4.7309,4.7309,4.7309,4.7309,4.7309,4.7309,4.7309,4.7309,4.7309,4.7309,4.7309,4.7309,4.7309,4.7309,4.7309,4.7309,4.7309,4.7309,4.7309,4.7309,4.7309,4.7309,4.7309,4.7309,4.7309,4.7309,4.7309,4.7309,4.7309,4.7309,4.7309,4.7309,4.7309,4.7309,4.7309,4.7287,4.7244,4.6793,4.6572,4.6506,4.6038,4.5549,4.5078,4.5055,4.4439,4.3529,4.3307,4.2533,4.1547,4.0984,4.0313,3.9697,3.9697,3.9697,3.9697,3.9697,3.9697,3.9697,3.9697,3.9697,3.9697,3.9697,3.9697,3.9697,3.9697,3.9697,3.9697,3.9697,3.9697,3.9697,3.9697,3.9697,3.9697,3.9697,3.9697,3.9697,3.9697,3.9697,3.9697,3.9697,3.9697,3.9697,3.9697,3.9697,3.9697,3.9697,3.9697,3.9697,3.9697,3.9697,3.9722,3.9772,4.0262,4.0563,4.0664,4.1683,4.2213,4.2213,4.2263,4.2524,4.3002,4.3002,4.3002,4.3002,4.3002,4.3002,4.3002,4.3002,4.3002,4.3002,4.3002,4.3002,4.3002,4.3002,4.3002,4.3002,4.7309,4.7309,4.7309,4.7309,4.7309,4.7309,4.7309,4.7309,4.7309,4.7309,4.7309,4.7309,4.7309,4.7309,4.7309,4.7309,4.7309,4.7309,4.7309,4.7309,4.7309,4.7309,4.7309,4.7309,4.7309,4.7309,4.7309,4.7309,4.7309,4.7309,4.7309,4.7309,4.7309,4.7309,4.7309,4.7186,4.6975,4.6705,4.6395,4.6015,4.5708,4.5299,4.483,4.4644,4.4068,4.3307,4.2838,4.1993,4.0959,4.0211,3.9839,3.9697,3.9697,3.9697,3.9697,3.9697,3.9697,3.9697,3.9697,3.9697,3.9697,3.9697,3.9697,3.9697,3.9697,3.9697,3.9697,3.9697,3.9697,3.9697,3.9697,3.9697,3.9697,3.9697,3.9697,3.9697,3.9697,3.9697,3.9697,3.9697,3.9697,3.9697,3.9697,3.9697,3.9697,3.9697,3.9697,3.9697,3.9697,3.9697,3.9885,4.0299,4.045,4.0927,4.1821,4.2087,4.2213,4.2213,4.2625,4.2889,4.3002,4.3002,4.3002,4.3002,4.3002,4.3002,4.3002,4.3002,4.3002,4.3002,4.3002,4.3002,4.3002,4.3002,4.3002,4.3002,4.7309,4.7309,4.7309,4.7309,4.7309,4.7309,4.7309,4.7309,4.7309,4.7309,4.7309,4.7309,4.7309,4.7309,4.7309,4.7309,4.7309,4.7309,4.7309,4.7309,4.7309,4.7309,4.7309,4.7309,4.7309,4.7309,4.7309,4.7309,4.7309,4.7309,4.7309,4.7309,4.7309,4.7287,4.7164,4.6975,4.6734,4.6269,4.5866,4.5481,4.5115,4.4662,4.4219,4.4078,4.3485,4.2679,4.2264,4.1423,4.0427,3.989,3.9697,3.9697,3.9697,3.9697,3.9697,3.9697,3.9697,3.9697,3.9697,3.9697,3.9697,3.9697,3.9697,3.9697,3.9697,3.9697,3.9697,3.9697,3.9697,3.9697,3.9697,3.9697,3.9697,3.9697,3.9697,3.9697,3.9697,3.9697,3.9697,3.9697,3.9697,3.9697,3.9697,3.9697,3.9697,3.9697,3.9697,3.9697,3.9697,3.9936,4.0224,4.0487,4.1028,4.1607,4.22,4.2449,4.2575,4.2575,4.2864,4.3002,4.3002,4.3002,4.3002,4.3002,4.3002,4.3002,4.3002,4.3002,4.3002,4.3002,4.3002,4.3002,4.3002,4.3002,4.3002,4.3002,4.7309,4.7309,4.7309,4.7309,4.7309,4.7309,4.7309,4.7309,4.7309,4.7309,4.7309,4.7309,4.7309,4.7309,4.7309,4.7309,4.7309,4.7309,4.7309,4.7309,4.7309,4.7309,4.7309,4.7309,4.7309,4.7309,4.7309,4.7309,4.7309,4.7309,4.7309,4.7309,4.7309,4.7287,4.7019,4.6756,4.6484,4.5798,4.5261,4.4856,4.4397,4.3889,4.341,4.3314,4.2736,4.1931,4.1658,4.0933,4.0057,3.9788,3.9697,3.9697,3.9697,3.9697,3.9697,3.9697,3.9697,3.9697,3.9697,3.9697,3.9697,3.9697,3.9697,3.9697,3.9697,3.9697,3.9697,3.9697,3.9697,3.9697,3.9697,3.9697,3.9697,3.9697,3.9697,3.9697,3.9697,3.9697,3.9697,3.9697,3.9697,3.9697,3.9697,3.9697,3.9697,3.9697,3.9785,3.9835,3.9835,4.0362,4.0675,4.0789,4.1708,4.2223,4.2351,4.2776,4.3002,4.3002,4.3002,4.3002,4.3002,4.3002,4.3002,4.3002,4.3002,4.3002,4.3002,4.3002,4.3002,4.3002,4.3002,4.3002,4.3002,4.3002,4.3002,4.3002,4.7309,4.7309,4.7309,4.7309,4.7309,4.7309,4.7309,4.7309,4.7309,4.7309,4.7309,4.7309,4.7309,4.7309,4.7309,4.7309,4.7309,4.7309,4.7309,4.7309,4.7309,4.7309,4.7309,4.7309,4.7309,4.7309,4.7309,4.7309,4.7309,4.7309,4.7309,4.7309,4.7309,4.7287,4.7019,4.6653,4.621,4.5708,4.4986,4.4097,4.3576,4.3088,4.2604,4.2128,4.1733,4.1372,4.1109,4.0605,4.0057,3.9788,3.9697,3.9697,3.9697,3.9697,3.9697,3.9697,3.9697,3.9697,3.9697,3.9697,3.9697,3.9697,3.9697,3.9697,3.9697,3.9697,3.9697,3.9697,3.9697,3.9697,3.9697,3.9697,3.9697,3.9697,3.9697,3.9697,3.9697,3.9697,3.9697,3.9697,3.9697,3.9697,3.9697,3.9697,3.9697,3.9697,4.0136,4.04,4.04,4.0901,4.1442,4.1946,4.2137,4.2411,4.2889,4.2964,4.3002,4.3002,4.3002,4.3002,4.3002,4.3002,4.3002,4.3002,4.3002,4.3002,4.3002,4.3002,4.3002,4.3002,4.3002,4.3002,4.3002,4.3002,4.3002,4.3002,4.7309,4.7309,4.7309,4.7309,4.7309,4.7309,4.7309,4.7309,4.7309,4.7309,4.7309,4.7309,4.7309,4.7309,4.7309,4.7309,4.7309,4.7309,4.7309,4.7309,4.7309,4.7309,4.7309,4.7309,4.7309,4.7668,4.7863,4.7863,4.7863,4.7863,4.7863,4.8244,4.8423,4.8401,4.7985,4.7625,4.7261,4.6447,4.5718,4.5,4.4318,4.3627,4.295,4.2558,4.2047,4.1492,4.1218,4.0957,4.0759,4.064,4.0386,4.0162,4.0162,3.9936,3.9697,3.9697,3.9697,3.9697,3.9697,3.9697,3.9697,3.9697,3.9697,3.9697,3.9697,3.9697,3.9697,3.9697,3.9697,3.9697,3.9697,3.9697,3.9697,3.9697,3.9697,3.9697,3.9697,3.9697,3.9697,3.9697,3.9697,3.9697,3.9697,3.9973,4.0162,4.0162,4.0637,4.0951,4.0951,4.1492,4.1934,4.22,4.2474,4.2763,4.3002,4.3002,4.3002,4.3002,4.3002,4.3002,4.3002,4.3002,4.3002,4.3002,4.3002,4.3002,4.3002,4.3002,4.3002,4.3002,4.3002,4.3002,4.3002,4.3002,4.3002,4.3002]}]]